<?xml version="1.0" encoding="UTF-8" standalone="no" ?>
<gpx xmlns="http://www.topografix.com/GPX/1/1" xmlns:xsi="http://www.w3.org/2001/XMLSchema-instance" xsi:schemaLocation="http://www.topografix.com/GPX/1/1 http://www.topografix.com/GPX/1/1/gpx.xsd" version="1.1" creator="VisuGPX - https://www.visugpx.com">
  <metadata>
    <name>Marche - promnnade Conne-de-Labarde</name>
    <desc><![CDATA[Marche Promenade]]></desc>
  </metadata>
  <trk>
    <name><![CDATA[Tracé 8 mai 2016 9:06:16 AM]]></name>
    <trkseg>
      <trkpt lat="44.77944" lon="0.55258">
        <ele>34</ele>
        <time>2016-05-08T07:06:16Z</time>
      </trkpt>
      <trkpt lat="44.77944" lon="0.55258">
        <ele>34</ele>
        <time>2016-05-08T07:06:19Z</time>
      </trkpt>
      <trkpt lat="44.77937" lon="0.55239">
        <ele>29</ele>
        <time>2016-05-08T07:06:24Z</time>
      </trkpt>
      <trkpt lat="44.7793" lon="0.55245">
        <ele>52</ele>
        <time>2016-05-08T07:06:33Z</time>
      </trkpt>
      <trkpt lat="44.7792" lon="0.55244">
        <ele>49</ele>
        <time>2016-05-08T07:06:37Z</time>
      </trkpt>
      <trkpt lat="44.77911" lon="0.55238">
        <ele>50</ele>
        <time>2016-05-08T07:06:41Z</time>
      </trkpt>
      <trkpt lat="44.77903" lon="0.55236">
        <ele>46</ele>
        <time>2016-05-08T07:07:03Z</time>
      </trkpt>
      <trkpt lat="44.77896" lon="0.5523">
        <ele>44</ele>
        <time>2016-05-08T07:07:09Z</time>
      </trkpt>
      <trkpt lat="44.77891" lon="0.55222">
        <ele>41</ele>
        <time>2016-05-08T07:07:14Z</time>
      </trkpt>
      <trkpt lat="44.77887" lon="0.5521">
        <ele>40</ele>
        <time>2016-05-08T07:07:18Z</time>
      </trkpt>
      <trkpt lat="44.77884" lon="0.55198">
        <ele>40</ele>
        <time>2016-05-08T07:07:23Z</time>
      </trkpt>
      <trkpt lat="44.77886" lon="0.55186">
        <ele>39</ele>
        <time>2016-05-08T07:07:30Z</time>
      </trkpt>
      <trkpt lat="44.77887" lon="0.55174">
        <ele>39</ele>
        <time>2016-05-08T07:07:36Z</time>
      </trkpt>
      <trkpt lat="44.77889" lon="0.55162">
        <ele>38</ele>
        <time>2016-05-08T07:07:45Z</time>
      </trkpt>
      <trkpt lat="44.77889" lon="0.5515">
        <ele>37</ele>
        <time>2016-05-08T07:07:53Z</time>
      </trkpt>
      <trkpt lat="44.77891" lon="0.55138">
        <ele>36</ele>
        <time>2016-05-08T07:08:01Z</time>
      </trkpt>
      <trkpt lat="44.77893" lon="0.55128">
        <ele>36</ele>
        <time>2016-05-08T07:08:09Z</time>
      </trkpt>
      <trkpt lat="44.77894" lon="0.55116">
        <ele>35</ele>
        <time>2016-05-08T07:08:16Z</time>
      </trkpt>
      <trkpt lat="44.77898" lon="0.55104">
        <ele>34</ele>
        <time>2016-05-08T07:08:25Z</time>
      </trkpt>
      <trkpt lat="44.779" lon="0.55093">
        <ele>33</ele>
        <time>2016-05-08T07:08:32Z</time>
      </trkpt>
      <trkpt lat="44.77897" lon="0.55082">
        <ele>33</ele>
        <time>2016-05-08T07:08:41Z</time>
      </trkpt>
      <trkpt lat="44.77899" lon="0.55071">
        <ele>35</ele>
        <time>2016-05-08T07:08:46Z</time>
      </trkpt>
      <trkpt lat="44.77898" lon="0.5506">
        <ele>36</ele>
        <time>2016-05-08T07:08:50Z</time>
      </trkpt>
      <trkpt lat="44.77897" lon="0.55048">
        <ele>37</ele>
        <time>2016-05-08T07:08:55Z</time>
      </trkpt>
      <trkpt lat="44.77897" lon="0.55036">
        <ele>38</ele>
        <time>2016-05-08T07:09:01Z</time>
      </trkpt>
      <trkpt lat="44.77897" lon="0.55025">
        <ele>38</ele>
        <time>2016-05-08T07:09:06Z</time>
      </trkpt>
      <trkpt lat="44.77896" lon="0.55014">
        <ele>38</ele>
        <time>2016-05-08T07:09:11Z</time>
      </trkpt>
      <trkpt lat="44.77896" lon="0.55003">
        <ele>39</ele>
        <time>2016-05-08T07:09:18Z</time>
      </trkpt>
      <trkpt lat="44.77895" lon="0.54991">
        <ele>39</ele>
        <time>2016-05-08T07:09:25Z</time>
      </trkpt>
      <trkpt lat="44.77894" lon="0.54979">
        <ele>40</ele>
        <time>2016-05-08T07:09:33Z</time>
      </trkpt>
      <trkpt lat="44.77893" lon="0.54967">
        <ele>40</ele>
        <time>2016-05-08T07:09:40Z</time>
      </trkpt>
      <trkpt lat="44.77892" lon="0.54956">
        <ele>40</ele>
        <time>2016-05-08T07:09:47Z</time>
      </trkpt>
      <trkpt lat="44.7789" lon="0.54946">
        <ele>40</ele>
        <time>2016-05-08T07:09:53Z</time>
      </trkpt>
      <trkpt lat="44.77888" lon="0.54934">
        <ele>41</ele>
        <time>2016-05-08T07:10:00Z</time>
      </trkpt>
      <trkpt lat="44.77886" lon="0.54923">
        <ele>41</ele>
        <time>2016-05-08T07:10:07Z</time>
      </trkpt>
      <trkpt lat="44.77885" lon="0.54911">
        <ele>42</ele>
        <time>2016-05-08T07:10:14Z</time>
      </trkpt>
      <trkpt lat="44.77884" lon="0.54898">
        <ele>42</ele>
        <time>2016-05-08T07:10:23Z</time>
      </trkpt>
      <trkpt lat="44.77882" lon="0.54887">
        <ele>43</ele>
        <time>2016-05-08T07:10:31Z</time>
      </trkpt>
      <trkpt lat="44.7788" lon="0.54875">
        <ele>43</ele>
        <time>2016-05-08T07:10:40Z</time>
      </trkpt>
      <trkpt lat="44.77879" lon="0.54864">
        <ele>44</ele>
        <time>2016-05-08T07:10:46Z</time>
      </trkpt>
      <trkpt lat="44.77878" lon="0.54852">
        <ele>44</ele>
        <time>2016-05-08T07:10:54Z</time>
      </trkpt>
      <trkpt lat="44.77877" lon="0.54841">
        <ele>43</ele>
        <time>2016-05-08T07:11:02Z</time>
      </trkpt>
      <trkpt lat="44.77876" lon="0.54828">
        <ele>44</ele>
        <time>2016-05-08T07:11:12Z</time>
      </trkpt>
      <trkpt lat="44.77874" lon="0.54816">
        <ele>45</ele>
        <time>2016-05-08T07:11:19Z</time>
      </trkpt>
      <trkpt lat="44.77872" lon="0.54805">
        <ele>46</ele>
        <time>2016-05-08T07:11:25Z</time>
      </trkpt>
      <trkpt lat="44.77872" lon="0.54794">
        <ele>47</ele>
        <time>2016-05-08T07:11:31Z</time>
      </trkpt>
      <trkpt lat="44.77871" lon="0.54784">
        <ele>48</ele>
        <time>2016-05-08T07:11:36Z</time>
      </trkpt>
      <trkpt lat="44.77871" lon="0.54773">
        <ele>50</ele>
        <time>2016-05-08T07:11:41Z</time>
      </trkpt>
      <trkpt lat="44.7787" lon="0.54761">
        <ele>52</ele>
        <time>2016-05-08T07:11:47Z</time>
      </trkpt>
      <trkpt lat="44.77871" lon="0.54749">
        <ele>55</ele>
        <time>2016-05-08T07:11:53Z</time>
      </trkpt>
      <trkpt lat="44.77871" lon="0.54738">
        <ele>57</ele>
        <time>2016-05-08T07:12:00Z</time>
      </trkpt>
      <trkpt lat="44.7787" lon="0.54726">
        <ele>61</ele>
        <time>2016-05-08T07:12:07Z</time>
      </trkpt>
      <trkpt lat="44.7787" lon="0.54714">
        <ele>63</ele>
        <time>2016-05-08T07:12:14Z</time>
      </trkpt>
      <trkpt lat="44.77871" lon="0.54702">
        <ele>63</ele>
        <time>2016-05-08T07:12:22Z</time>
      </trkpt>
      <trkpt lat="44.77872" lon="0.5469">
        <ele>63</ele>
        <time>2016-05-08T07:12:29Z</time>
      </trkpt>
      <trkpt lat="44.77873" lon="0.54677">
        <ele>61</ele>
        <time>2016-05-08T07:12:38Z</time>
      </trkpt>
      <trkpt lat="44.77872" lon="0.54666">
        <ele>61</ele>
        <time>2016-05-08T07:12:46Z</time>
      </trkpt>
      <trkpt lat="44.77876" lon="0.54655">
        <ele>62</ele>
        <time>2016-05-08T07:12:56Z</time>
      </trkpt>
      <trkpt lat="44.77878" lon="0.54643">
        <ele>64</ele>
        <time>2016-05-08T07:13:04Z</time>
      </trkpt>
      <trkpt lat="44.77877" lon="0.54631">
        <ele>64</ele>
        <time>2016-05-08T07:13:11Z</time>
      </trkpt>
      <trkpt lat="44.77871" lon="0.54622">
        <ele>63</ele>
        <time>2016-05-08T07:13:19Z</time>
      </trkpt>
      <trkpt lat="44.77864" lon="0.54614">
        <ele>60</ele>
        <time>2016-05-08T07:13:28Z</time>
      </trkpt>
      <trkpt lat="44.77857" lon="0.54607">
        <ele>59</ele>
        <time>2016-05-08T07:13:36Z</time>
      </trkpt>
      <trkpt lat="44.77851" lon="0.54599">
        <ele>58</ele>
        <time>2016-05-08T07:13:44Z</time>
      </trkpt>
      <trkpt lat="44.77845" lon="0.54591">
        <ele>57</ele>
        <time>2016-05-08T07:13:51Z</time>
      </trkpt>
      <trkpt lat="44.7784" lon="0.54582">
        <ele>56</ele>
        <time>2016-05-08T07:13:59Z</time>
      </trkpt>
      <trkpt lat="44.77833" lon="0.54574">
        <ele>54</ele>
        <time>2016-05-08T07:14:07Z</time>
      </trkpt>
      <trkpt lat="44.77827" lon="0.54565">
        <ele>54</ele>
        <time>2016-05-08T07:14:16Z</time>
      </trkpt>
      <trkpt lat="44.77821" lon="0.54556">
        <ele>49</ele>
        <time>2016-05-08T07:14:26Z</time>
      </trkpt>
      <trkpt lat="44.77814" lon="0.54549">
        <ele>47</ele>
        <time>2016-05-08T07:14:32Z</time>
      </trkpt>
      <trkpt lat="44.77808" lon="0.5454">
        <ele>43</ele>
        <time>2016-05-08T07:14:40Z</time>
      </trkpt>
      <trkpt lat="44.77801" lon="0.54534">
        <ele>40</ele>
        <time>2016-05-08T07:14:48Z</time>
      </trkpt>
      <trkpt lat="44.77793" lon="0.54533">
        <ele>40</ele>
        <time>2016-05-08T07:14:57Z</time>
      </trkpt>
      <trkpt lat="44.77785" lon="0.54533">
        <ele>43</ele>
        <time>2016-05-08T07:15:02Z</time>
      </trkpt>
      <trkpt lat="44.77775" lon="0.5453">
        <ele>48</ele>
        <time>2016-05-08T07:15:07Z</time>
      </trkpt>
      <trkpt lat="44.77767" lon="0.5453">
        <ele>54</ele>
        <time>2016-05-08T07:15:12Z</time>
      </trkpt>
      <trkpt lat="44.77759" lon="0.54528">
        <ele>60</ele>
        <time>2016-05-08T07:15:17Z</time>
      </trkpt>
      <trkpt lat="44.77751" lon="0.54525">
        <ele>62</ele>
        <time>2016-05-08T07:15:24Z</time>
      </trkpt>
      <trkpt lat="44.77743" lon="0.54521">
        <ele>62</ele>
        <time>2016-05-08T07:15:31Z</time>
      </trkpt>
      <trkpt lat="44.77735" lon="0.54519">
        <ele>62</ele>
        <time>2016-05-08T07:15:38Z</time>
      </trkpt>
      <trkpt lat="44.77727" lon="0.54516">
        <ele>63</ele>
        <time>2016-05-08T07:15:44Z</time>
      </trkpt>
      <trkpt lat="44.77719" lon="0.54514">
        <ele>64</ele>
        <time>2016-05-08T07:15:50Z</time>
      </trkpt>
      <trkpt lat="44.77712" lon="0.54512">
        <ele>66</ele>
        <time>2016-05-08T07:15:56Z</time>
      </trkpt>
      <trkpt lat="44.77704" lon="0.54507">
        <ele>66</ele>
        <time>2016-05-08T07:16:03Z</time>
      </trkpt>
      <trkpt lat="44.77696" lon="0.54502">
        <ele>66</ele>
        <time>2016-05-08T07:16:10Z</time>
      </trkpt>
      <trkpt lat="44.77688" lon="0.54498">
        <ele>67</ele>
        <time>2016-05-08T07:16:17Z</time>
      </trkpt>
      <trkpt lat="44.77681" lon="0.54494">
        <ele>66</ele>
        <time>2016-05-08T07:16:24Z</time>
      </trkpt>
      <trkpt lat="44.77673" lon="0.54489">
        <ele>66</ele>
        <time>2016-05-08T07:16:33Z</time>
      </trkpt>
      <trkpt lat="44.77666" lon="0.54484">
        <ele>65</ele>
        <time>2016-05-08T07:16:40Z</time>
      </trkpt>
      <trkpt lat="44.77657" lon="0.54483">
        <ele>64</ele>
        <time>2016-05-08T07:16:47Z</time>
      </trkpt>
      <trkpt lat="44.77649" lon="0.54481">
        <ele>65</ele>
        <time>2016-05-08T07:16:53Z</time>
      </trkpt>
      <trkpt lat="44.7764" lon="0.54479">
        <ele>63</ele>
        <time>2016-05-08T07:17:00Z</time>
      </trkpt>
      <trkpt lat="44.77633" lon="0.54476">
        <ele>63</ele>
        <time>2016-05-08T07:17:06Z</time>
      </trkpt>
      <trkpt lat="44.77625" lon="0.54473">
        <ele>62</ele>
        <time>2016-05-08T07:17:13Z</time>
      </trkpt>
      <trkpt lat="44.77617" lon="0.54469">
        <ele>65</ele>
        <time>2016-05-08T07:17:19Z</time>
      </trkpt>
      <trkpt lat="44.77609" lon="0.54466">
        <ele>67</ele>
        <time>2016-05-08T07:17:26Z</time>
      </trkpt>
      <trkpt lat="44.77601" lon="0.54464">
        <ele>68</ele>
        <time>2016-05-08T07:17:33Z</time>
      </trkpt>
      <trkpt lat="44.77593" lon="0.54462">
        <ele>67</ele>
        <time>2016-05-08T07:17:40Z</time>
      </trkpt>
      <trkpt lat="44.77586" lon="0.54458">
        <ele>66</ele>
        <time>2016-05-08T07:17:47Z</time>
      </trkpt>
      <trkpt lat="44.77577" lon="0.54457">
        <ele>66</ele>
        <time>2016-05-08T07:17:54Z</time>
      </trkpt>
      <trkpt lat="44.77569" lon="0.54455">
        <ele>67</ele>
        <time>2016-05-08T07:18:00Z</time>
      </trkpt>
      <trkpt lat="44.77561" lon="0.54454">
        <ele>68</ele>
        <time>2016-05-08T07:18:06Z</time>
      </trkpt>
      <trkpt lat="44.77553" lon="0.54451">
        <ele>68</ele>
        <time>2016-05-08T07:18:13Z</time>
      </trkpt>
      <trkpt lat="44.77546" lon="0.54449">
        <ele>67</ele>
        <time>2016-05-08T07:18:19Z</time>
      </trkpt>
      <trkpt lat="44.77537" lon="0.54446">
        <ele>66</ele>
        <time>2016-05-08T07:18:26Z</time>
      </trkpt>
      <trkpt lat="44.7753" lon="0.54441">
        <ele>63</ele>
        <time>2016-05-08T07:18:34Z</time>
      </trkpt>
      <trkpt lat="44.77523" lon="0.54435">
        <ele>67</ele>
        <time>2016-05-08T07:18:41Z</time>
      </trkpt>
      <trkpt lat="44.77515" lon="0.54429">
        <ele>65</ele>
        <time>2016-05-08T07:18:49Z</time>
      </trkpt>
      <trkpt lat="44.77509" lon="0.54422">
        <ele>61</ele>
        <time>2016-05-08T07:18:56Z</time>
      </trkpt>
      <trkpt lat="44.77502" lon="0.54416">
        <ele>58</ele>
        <time>2016-05-08T07:19:04Z</time>
      </trkpt>
      <trkpt lat="44.77494" lon="0.54411">
        <ele>59</ele>
        <time>2016-05-08T07:19:11Z</time>
      </trkpt>
      <trkpt lat="44.77489" lon="0.54402">
        <ele>58</ele>
        <time>2016-05-08T07:19:17Z</time>
      </trkpt>
      <trkpt lat="44.77481" lon="0.54396">
        <ele>60</ele>
        <time>2016-05-08T07:19:24Z</time>
      </trkpt>
      <trkpt lat="44.77475" lon="0.54389">
        <ele>60</ele>
        <time>2016-05-08T07:19:31Z</time>
      </trkpt>
      <trkpt lat="44.7747" lon="0.5438">
        <ele>60</ele>
        <time>2016-05-08T07:19:37Z</time>
      </trkpt>
      <trkpt lat="44.77463" lon="0.54373">
        <ele>61</ele>
        <time>2016-05-08T07:19:43Z</time>
      </trkpt>
      <trkpt lat="44.77457" lon="0.54364">
        <ele>61</ele>
        <time>2016-05-08T07:19:49Z</time>
      </trkpt>
      <trkpt lat="44.77451" lon="0.54357">
        <ele>60</ele>
        <time>2016-05-08T07:19:56Z</time>
      </trkpt>
      <trkpt lat="44.77445" lon="0.54348">
        <ele>59</ele>
        <time>2016-05-08T07:20:03Z</time>
      </trkpt>
      <trkpt lat="44.77438" lon="0.5434">
        <ele>58</ele>
        <time>2016-05-08T07:20:11Z</time>
      </trkpt>
      <trkpt lat="44.77432" lon="0.54332">
        <ele>59</ele>
        <time>2016-05-08T07:20:17Z</time>
      </trkpt>
      <trkpt lat="44.77426" lon="0.54322">
        <ele>59</ele>
        <time>2016-05-08T07:20:24Z</time>
      </trkpt>
      <trkpt lat="44.7742" lon="0.54314">
        <ele>60</ele>
        <time>2016-05-08T07:20:31Z</time>
      </trkpt>
      <trkpt lat="44.77414" lon="0.54307">
        <ele>60</ele>
        <time>2016-05-08T07:20:37Z</time>
      </trkpt>
      <trkpt lat="44.77409" lon="0.54297">
        <ele>59</ele>
        <time>2016-05-08T07:20:45Z</time>
      </trkpt>
      <trkpt lat="44.77404" lon="0.54287">
        <ele>58</ele>
        <time>2016-05-08T07:20:52Z</time>
      </trkpt>
      <trkpt lat="44.77398" lon="0.54279">
        <ele>58</ele>
        <time>2016-05-08T07:20:59Z</time>
      </trkpt>
      <trkpt lat="44.77393" lon="0.5427">
        <ele>59</ele>
        <time>2016-05-08T07:21:06Z</time>
      </trkpt>
      <trkpt lat="44.77391" lon="0.54259">
        <ele>59</ele>
        <time>2016-05-08T07:21:12Z</time>
      </trkpt>
      <trkpt lat="44.77392" lon="0.54246">
        <ele>61</ele>
        <time>2016-05-08T07:21:20Z</time>
      </trkpt>
      <trkpt lat="44.77399" lon="0.5424">
        <ele>61</ele>
        <time>2016-05-08T07:21:27Z</time>
      </trkpt>
      <trkpt lat="44.77405" lon="0.54233">
        <ele>60</ele>
        <time>2016-05-08T07:21:34Z</time>
      </trkpt>
      <trkpt lat="44.77411" lon="0.54225">
        <ele>60</ele>
        <time>2016-05-08T07:21:41Z</time>
      </trkpt>
      <trkpt lat="44.77419" lon="0.54218">
        <ele>58</ele>
        <time>2016-05-08T07:21:49Z</time>
      </trkpt>
      <trkpt lat="44.77426" lon="0.54211">
        <ele>59</ele>
        <time>2016-05-08T07:21:56Z</time>
      </trkpt>
      <trkpt lat="44.77433" lon="0.54205">
        <ele>62</ele>
        <time>2016-05-08T07:22:02Z</time>
      </trkpt>
      <trkpt lat="44.77439" lon="0.54201">
        <ele>63</ele>
        <time>2016-05-08T07:22:07Z</time>
      </trkpt>
      <trkpt lat="44.77448" lon="0.54198">
        <ele>63</ele>
        <time>2016-05-08T07:22:13Z</time>
      </trkpt>
      <trkpt lat="44.77455" lon="0.54193">
        <ele>62</ele>
        <time>2016-05-08T07:22:21Z</time>
      </trkpt>
      <trkpt lat="44.77462" lon="0.54185">
        <ele>56</ele>
        <time>2016-05-08T07:22:28Z</time>
      </trkpt>
      <trkpt lat="44.77466" lon="0.54176">
        <ele>56</ele>
        <time>2016-05-08T07:22:33Z</time>
      </trkpt>
      <trkpt lat="44.77473" lon="0.54167">
        <ele>55</ele>
        <time>2016-05-08T07:22:40Z</time>
      </trkpt>
      <trkpt lat="44.77477" lon="0.54158">
        <ele>54</ele>
        <time>2016-05-08T07:22:46Z</time>
      </trkpt>
      <trkpt lat="44.77482" lon="0.54148">
        <ele>55</ele>
        <time>2016-05-08T07:22:53Z</time>
      </trkpt>
      <trkpt lat="44.77486" lon="0.54137">
        <ele>56</ele>
        <time>2016-05-08T07:23:02Z</time>
      </trkpt>
      <trkpt lat="44.77492" lon="0.54128">
        <ele>58</ele>
        <time>2016-05-08T07:23:15Z</time>
      </trkpt>
      <trkpt lat="44.77494" lon="0.54117">
        <ele>52</ele>
        <time>2016-05-08T07:23:26Z</time>
      </trkpt>
      <trkpt lat="44.77496" lon="0.54106">
        <ele>51</ele>
        <time>2016-05-08T07:23:33Z</time>
      </trkpt>
      <trkpt lat="44.77496" lon="0.54094">
        <ele>52</ele>
        <time>2016-05-08T07:23:42Z</time>
      </trkpt>
      <trkpt lat="44.77499" lon="0.54083">
        <ele>54</ele>
        <time>2016-05-08T07:23:52Z</time>
      </trkpt>
      <trkpt lat="44.775" lon="0.5407">
        <ele>55</ele>
        <time>2016-05-08T07:23:57Z</time>
      </trkpt>
      <trkpt lat="44.775" lon="0.54059">
        <ele>54</ele>
        <time>2016-05-08T07:24:03Z</time>
      </trkpt>
      <trkpt lat="44.77499" lon="0.54047">
        <ele>54</ele>
        <time>2016-05-08T07:24:08Z</time>
      </trkpt>
      <trkpt lat="44.77497" lon="0.54035">
        <ele>56</ele>
        <time>2016-05-08T07:24:14Z</time>
      </trkpt>
      <trkpt lat="44.77493" lon="0.54024">
        <ele>58</ele>
        <time>2016-05-08T07:24:20Z</time>
      </trkpt>
      <trkpt lat="44.77495" lon="0.54013">
        <ele>60</ele>
        <time>2016-05-08T07:24:26Z</time>
      </trkpt>
      <trkpt lat="44.77497" lon="0.54002">
        <ele>60</ele>
        <time>2016-05-08T07:24:33Z</time>
      </trkpt>
      <trkpt lat="44.77502" lon="0.53993">
        <ele>58</ele>
        <time>2016-05-08T07:24:40Z</time>
      </trkpt>
      <trkpt lat="44.77507" lon="0.53983">
        <ele>58</ele>
        <time>2016-05-08T07:24:48Z</time>
      </trkpt>
      <trkpt lat="44.77511" lon="0.53973">
        <ele>57</ele>
        <time>2016-05-08T07:24:55Z</time>
      </trkpt>
      <trkpt lat="44.77516" lon="0.53963">
        <ele>56</ele>
        <time>2016-05-08T07:25:02Z</time>
      </trkpt>
      <trkpt lat="44.7752" lon="0.53952">
        <ele>57</ele>
        <time>2016-05-08T07:25:10Z</time>
      </trkpt>
      <trkpt lat="44.77523" lon="0.53941">
        <ele>57</ele>
        <time>2016-05-08T07:25:18Z</time>
      </trkpt>
      <trkpt lat="44.77528" lon="0.53931">
        <ele>58</ele>
        <time>2016-05-08T07:25:27Z</time>
      </trkpt>
      <trkpt lat="44.77533" lon="0.5392">
        <ele>57</ele>
        <time>2016-05-08T07:25:35Z</time>
      </trkpt>
      <trkpt lat="44.77539" lon="0.53911">
        <ele>57</ele>
        <time>2016-05-08T07:25:43Z</time>
      </trkpt>
      <trkpt lat="44.77544" lon="0.53902">
        <ele>56</ele>
        <time>2016-05-08T07:25:50Z</time>
      </trkpt>
      <trkpt lat="44.77549" lon="0.53892">
        <ele>56</ele>
        <time>2016-05-08T07:25:57Z</time>
      </trkpt>
      <trkpt lat="44.77547" lon="0.53881">
        <ele>57</ele>
        <time>2016-05-08T07:26:06Z</time>
      </trkpt>
      <trkpt lat="44.77541" lon="0.53873">
        <ele>58</ele>
        <time>2016-05-08T07:26:13Z</time>
      </trkpt>
      <trkpt lat="44.77534" lon="0.53865">
        <ele>57</ele>
        <time>2016-05-08T07:26:20Z</time>
      </trkpt>
      <trkpt lat="44.77526" lon="0.53859">
        <ele>55</ele>
        <time>2016-05-08T07:26:27Z</time>
      </trkpt>
      <trkpt lat="44.77519" lon="0.53854">
        <ele>52</ele>
        <time>2016-05-08T07:26:35Z</time>
      </trkpt>
      <trkpt lat="44.77511" lon="0.53851">
        <ele>51</ele>
        <time>2016-05-08T07:26:42Z</time>
      </trkpt>
      <trkpt lat="44.77503" lon="0.53847">
        <ele>50</ele>
        <time>2016-05-08T07:26:48Z</time>
      </trkpt>
      <trkpt lat="44.77496" lon="0.5384">
        <ele>47</ele>
        <time>2016-05-08T07:26:56Z</time>
      </trkpt>
      <trkpt lat="44.77489" lon="0.53835">
        <ele>48</ele>
        <time>2016-05-08T07:27:02Z</time>
      </trkpt>
      <trkpt lat="44.77481" lon="0.53833">
        <ele>51</ele>
        <time>2016-05-08T07:27:06Z</time>
      </trkpt>
      <trkpt lat="44.77473" lon="0.53828">
        <ele>54</ele>
        <time>2016-05-08T07:27:11Z</time>
      </trkpt>
      <trkpt lat="44.77469" lon="0.53819">
        <ele>53</ele>
        <time>2016-05-08T07:27:20Z</time>
      </trkpt>
      <trkpt lat="44.77472" lon="0.53809">
        <ele>53</ele>
        <time>2016-05-08T07:27:26Z</time>
      </trkpt>
      <trkpt lat="44.77478" lon="0.538">
        <ele>51</ele>
        <time>2016-05-08T07:27:33Z</time>
      </trkpt>
      <trkpt lat="44.77484" lon="0.53791">
        <ele>52</ele>
        <time>2016-05-08T07:27:40Z</time>
      </trkpt>
      <trkpt lat="44.77488" lon="0.53782">
        <ele>56</ele>
        <time>2016-05-08T07:27:47Z</time>
      </trkpt>
      <trkpt lat="44.77494" lon="0.53773">
        <ele>58</ele>
        <time>2016-05-08T07:27:54Z</time>
      </trkpt>
      <trkpt lat="44.77498" lon="0.53766">
        <ele>60</ele>
        <time>2016-05-08T07:28:00Z</time>
      </trkpt>
      <trkpt lat="44.77505" lon="0.53758">
        <ele>60</ele>
        <time>2016-05-08T07:28:08Z</time>
      </trkpt>
      <trkpt lat="44.77512" lon="0.53752">
        <ele>51</ele>
        <time>2016-05-08T07:28:16Z</time>
      </trkpt>
      <trkpt lat="44.77518" lon="0.53744">
        <ele>46</ele>
        <time>2016-05-08T07:28:22Z</time>
      </trkpt>
      <trkpt lat="44.77524" lon="0.53737">
        <ele>42</ele>
        <time>2016-05-08T07:28:28Z</time>
      </trkpt>
      <trkpt lat="44.77528" lon="0.53726">
        <ele>39</ele>
        <time>2016-05-08T07:28:38Z</time>
      </trkpt>
      <trkpt lat="44.77533" lon="0.53716">
        <ele>47</ele>
        <time>2016-05-08T07:28:49Z</time>
      </trkpt>
      <trkpt lat="44.77536" lon="0.53712">
        <ele>49</ele>
        <time>2016-05-08T07:28:53Z</time>
      </trkpt>
      <trkpt lat="44.77536" lon="0.53712">
        <ele>49</ele>
        <time>2016-05-08T07:28:54Z</time>
      </trkpt>
      <trkpt lat="44.77555" lon="0.53646">
        <ele>49</ele>
        <time>2016-05-08T07:29:46Z</time>
      </trkpt>
      <trkpt lat="44.77555" lon="0.53646">
        <ele>49</ele>
        <time>2016-05-08T07:29:47Z</time>
      </trkpt>
      <trkpt lat="44.77592" lon="0.53653">
        <ele>33</ele>
        <time>2016-05-08T07:29:51Z</time>
      </trkpt>
      <trkpt lat="44.77601" lon="0.53642">
        <ele>65</ele>
        <time>2016-05-08T07:29:56Z</time>
      </trkpt>
      <trkpt lat="44.77609" lon="0.53636">
        <ele>70</ele>
        <time>2016-05-08T07:30:02Z</time>
      </trkpt>
      <trkpt lat="44.77614" lon="0.53627">
        <ele>70</ele>
        <time>2016-05-08T07:30:08Z</time>
      </trkpt>
      <trkpt lat="44.77619" lon="0.53616">
        <ele>67</ele>
        <time>2016-05-08T07:30:20Z</time>
      </trkpt>
      <trkpt lat="44.77618" lon="0.53604">
        <ele>64</ele>
        <time>2016-05-08T07:30:28Z</time>
      </trkpt>
      <trkpt lat="44.77619" lon="0.53594">
        <ele>62</ele>
        <time>2016-05-08T07:30:35Z</time>
      </trkpt>
      <trkpt lat="44.77623" lon="0.53583">
        <ele>61</ele>
        <time>2016-05-08T07:30:42Z</time>
      </trkpt>
      <trkpt lat="44.77628" lon="0.53574">
        <ele>59</ele>
        <time>2016-05-08T07:30:48Z</time>
      </trkpt>
      <trkpt lat="44.7763" lon="0.53562">
        <ele>59</ele>
        <time>2016-05-08T07:30:55Z</time>
      </trkpt>
      <trkpt lat="44.77634" lon="0.53553">
        <ele>59</ele>
        <time>2016-05-08T07:31:03Z</time>
      </trkpt>
      <trkpt lat="44.77639" lon="0.53543">
        <ele>58</ele>
        <time>2016-05-08T07:31:11Z</time>
      </trkpt>
      <trkpt lat="44.77642" lon="0.53533">
        <ele>57</ele>
        <time>2016-05-08T07:31:18Z</time>
      </trkpt>
      <trkpt lat="44.77645" lon="0.53521">
        <ele>57</ele>
        <time>2016-05-08T07:31:25Z</time>
      </trkpt>
      <trkpt lat="44.77649" lon="0.53511">
        <ele>57</ele>
        <time>2016-05-08T07:31:32Z</time>
      </trkpt>
      <trkpt lat="44.77654" lon="0.53502">
        <ele>57</ele>
        <time>2016-05-08T07:31:38Z</time>
      </trkpt>
      <trkpt lat="44.77659" lon="0.53492">
        <ele>58</ele>
        <time>2016-05-08T07:31:44Z</time>
      </trkpt>
      <trkpt lat="44.77662" lon="0.53481">
        <ele>59</ele>
        <time>2016-05-08T07:31:52Z</time>
      </trkpt>
      <trkpt lat="44.77668" lon="0.53473">
        <ele>60</ele>
        <time>2016-05-08T07:31:59Z</time>
      </trkpt>
      <trkpt lat="44.77674" lon="0.53467">
        <ele>61</ele>
        <time>2016-05-08T07:32:05Z</time>
      </trkpt>
      <trkpt lat="44.77681" lon="0.53459">
        <ele>62</ele>
        <time>2016-05-08T07:32:12Z</time>
      </trkpt>
      <trkpt lat="44.77687" lon="0.53451">
        <ele>63</ele>
        <time>2016-05-08T07:32:17Z</time>
      </trkpt>
      <trkpt lat="44.77692" lon="0.53443">
        <ele>63</ele>
        <time>2016-05-08T07:32:22Z</time>
      </trkpt>
      <trkpt lat="44.77697" lon="0.53436">
        <ele>64</ele>
        <time>2016-05-08T07:32:27Z</time>
      </trkpt>
      <trkpt lat="44.77702" lon="0.53427">
        <ele>64</ele>
        <time>2016-05-08T07:32:32Z</time>
      </trkpt>
      <trkpt lat="44.77706" lon="0.53417">
        <ele>65</ele>
        <time>2016-05-08T07:32:38Z</time>
      </trkpt>
      <trkpt lat="44.77711" lon="0.53408">
        <ele>66</ele>
        <time>2016-05-08T07:32:44Z</time>
      </trkpt>
      <trkpt lat="44.77717" lon="0.534">
        <ele>67</ele>
        <time>2016-05-08T07:32:50Z</time>
      </trkpt>
      <trkpt lat="44.77721" lon="0.53391">
        <ele>68</ele>
        <time>2016-05-08T07:32:56Z</time>
      </trkpt>
      <trkpt lat="44.77724" lon="0.53379">
        <ele>69</ele>
        <time>2016-05-08T07:33:03Z</time>
      </trkpt>
      <trkpt lat="44.77728" lon="0.53368">
        <ele>70</ele>
        <time>2016-05-08T07:33:10Z</time>
      </trkpt>
      <trkpt lat="44.77733" lon="0.53358">
        <ele>71</ele>
        <time>2016-05-08T07:33:17Z</time>
      </trkpt>
      <trkpt lat="44.77737" lon="0.53349">
        <ele>71</ele>
        <time>2016-05-08T07:33:23Z</time>
      </trkpt>
      <trkpt lat="44.77741" lon="0.53338">
        <ele>71</ele>
        <time>2016-05-08T07:33:31Z</time>
      </trkpt>
      <trkpt lat="44.77747" lon="0.5333">
        <ele>71</ele>
        <time>2016-05-08T07:33:39Z</time>
      </trkpt>
      <trkpt lat="44.77753" lon="0.5332">
        <ele>72</ele>
        <time>2016-05-08T07:33:46Z</time>
      </trkpt>
      <trkpt lat="44.77757" lon="0.5331">
        <ele>71</ele>
        <time>2016-05-08T07:33:53Z</time>
      </trkpt>
      <trkpt lat="44.77762" lon="0.53303">
        <ele>71</ele>
        <time>2016-05-08T07:33:59Z</time>
      </trkpt>
      <trkpt lat="44.77767" lon="0.53293">
        <ele>71</ele>
        <time>2016-05-08T07:34:06Z</time>
      </trkpt>
      <trkpt lat="44.77769" lon="0.53282">
        <ele>73</ele>
        <time>2016-05-08T07:34:15Z</time>
      </trkpt>
      <trkpt lat="44.77775" lon="0.53272">
        <ele>74</ele>
        <time>2016-05-08T07:34:22Z</time>
      </trkpt>
      <trkpt lat="44.77781" lon="0.53265">
        <ele>74</ele>
        <time>2016-05-08T07:34:29Z</time>
      </trkpt>
      <trkpt lat="44.77786" lon="0.53255">
        <ele>75</ele>
        <time>2016-05-08T07:34:36Z</time>
      </trkpt>
      <trkpt lat="44.77794" lon="0.53249">
        <ele>75</ele>
        <time>2016-05-08T07:34:43Z</time>
      </trkpt>
      <trkpt lat="44.778" lon="0.53242">
        <ele>74</ele>
        <time>2016-05-08T07:34:50Z</time>
      </trkpt>
      <trkpt lat="44.77807" lon="0.53235">
        <ele>73</ele>
        <time>2016-05-08T07:34:56Z</time>
      </trkpt>
      <trkpt lat="44.77813" lon="0.53227">
        <ele>72</ele>
        <time>2016-05-08T07:35:03Z</time>
      </trkpt>
      <trkpt lat="44.77819" lon="0.53218">
        <ele>71</ele>
        <time>2016-05-08T07:35:10Z</time>
      </trkpt>
      <trkpt lat="44.77825" lon="0.5321">
        <ele>71</ele>
        <time>2016-05-08T07:35:17Z</time>
      </trkpt>
      <trkpt lat="44.77831" lon="0.53201">
        <ele>69</ele>
        <time>2016-05-08T07:35:26Z</time>
      </trkpt>
      <trkpt lat="44.77838" lon="0.53193">
        <ele>68</ele>
        <time>2016-05-08T07:35:33Z</time>
      </trkpt>
      <trkpt lat="44.77845" lon="0.53185">
        <ele>67</ele>
        <time>2016-05-08T07:35:41Z</time>
      </trkpt>
      <trkpt lat="44.7785" lon="0.53178">
        <ele>66</ele>
        <time>2016-05-08T07:35:48Z</time>
      </trkpt>
      <trkpt lat="44.77857" lon="0.53171">
        <ele>64</ele>
        <time>2016-05-08T07:35:55Z</time>
      </trkpt>
      <trkpt lat="44.77863" lon="0.53164">
        <ele>63</ele>
        <time>2016-05-08T07:36:02Z</time>
      </trkpt>
      <trkpt lat="44.77868" lon="0.53154">
        <ele>63</ele>
        <time>2016-05-08T07:36:09Z</time>
      </trkpt>
      <trkpt lat="44.77874" lon="0.53145">
        <ele>65</ele>
        <time>2016-05-08T07:36:17Z</time>
      </trkpt>
      <trkpt lat="44.77878" lon="0.53135">
        <ele>67</ele>
        <time>2016-05-08T07:36:26Z</time>
      </trkpt>
      <trkpt lat="44.77884" lon="0.53127">
        <ele>68</ele>
        <time>2016-05-08T07:36:33Z</time>
      </trkpt>
      <trkpt lat="44.7789" lon="0.5312">
        <ele>68</ele>
        <time>2016-05-08T07:36:40Z</time>
      </trkpt>
      <trkpt lat="44.77896" lon="0.53112">
        <ele>68</ele>
        <time>2016-05-08T07:36:49Z</time>
      </trkpt>
      <trkpt lat="44.77903" lon="0.53104">
        <ele>67</ele>
        <time>2016-05-08T07:36:56Z</time>
      </trkpt>
      <trkpt lat="44.77909" lon="0.53095">
        <ele>66</ele>
        <time>2016-05-08T07:37:04Z</time>
      </trkpt>
      <trkpt lat="44.77916" lon="0.53087">
        <ele>67</ele>
        <time>2016-05-08T07:37:12Z</time>
      </trkpt>
      <trkpt lat="44.77923" lon="0.53082">
        <ele>70</ele>
        <time>2016-05-08T07:37:18Z</time>
      </trkpt>
      <trkpt lat="44.77931" lon="0.53077">
        <ele>71</ele>
        <time>2016-05-08T07:37:26Z</time>
      </trkpt>
      <trkpt lat="44.77939" lon="0.53081">
        <ele>70</ele>
        <time>2016-05-08T07:37:33Z</time>
      </trkpt>
      <trkpt lat="44.77946" lon="0.53089">
        <ele>71</ele>
        <time>2016-05-08T07:37:42Z</time>
      </trkpt>
      <trkpt lat="44.77952" lon="0.53097">
        <ele>70</ele>
        <time>2016-05-08T07:37:49Z</time>
      </trkpt>
      <trkpt lat="44.77955" lon="0.53107">
        <ele>69</ele>
        <time>2016-05-08T07:37:56Z</time>
      </trkpt>
      <trkpt lat="44.77957" lon="0.5312">
        <ele>70</ele>
        <time>2016-05-08T07:38:04Z</time>
      </trkpt>
      <trkpt lat="44.77958" lon="0.53131">
        <ele>70</ele>
        <time>2016-05-08T07:38:12Z</time>
      </trkpt>
      <trkpt lat="44.77965" lon="0.53139">
        <ele>67</ele>
        <time>2016-05-08T07:38:26Z</time>
      </trkpt>
      <trkpt lat="44.77974" lon="0.53141">
        <ele>66</ele>
        <time>2016-05-08T07:38:34Z</time>
      </trkpt>
      <trkpt lat="44.77982" lon="0.53141">
        <ele>67</ele>
        <time>2016-05-08T07:38:41Z</time>
      </trkpt>
      <trkpt lat="44.7799" lon="0.53141">
        <ele>67</ele>
        <time>2016-05-08T07:38:46Z</time>
      </trkpt>
      <trkpt lat="44.77998" lon="0.53141">
        <ele>67</ele>
        <time>2016-05-08T07:38:52Z</time>
      </trkpt>
      <trkpt lat="44.78006" lon="0.53141">
        <ele>67</ele>
        <time>2016-05-08T07:38:59Z</time>
      </trkpt>
      <trkpt lat="44.78014" lon="0.53141">
        <ele>66</ele>
        <time>2016-05-08T07:39:06Z</time>
      </trkpt>
      <trkpt lat="44.78022" lon="0.53141">
        <ele>65</ele>
        <time>2016-05-08T07:39:13Z</time>
      </trkpt>
      <trkpt lat="44.7803" lon="0.53142">
        <ele>63</ele>
        <time>2016-05-08T07:39:21Z</time>
      </trkpt>
      <trkpt lat="44.78035" lon="0.53153">
        <ele>64</ele>
        <time>2016-05-08T07:39:29Z</time>
      </trkpt>
      <trkpt lat="44.78037" lon="0.53164">
        <ele>65</ele>
        <time>2016-05-08T07:39:37Z</time>
      </trkpt>
      <trkpt lat="44.7804" lon="0.53176">
        <ele>66</ele>
        <time>2016-05-08T07:39:44Z</time>
      </trkpt>
      <trkpt lat="44.78042" lon="0.53188">
        <ele>69</ele>
        <time>2016-05-08T07:39:51Z</time>
      </trkpt>
      <trkpt lat="44.78043" lon="0.53199">
        <ele>70</ele>
        <time>2016-05-08T07:39:57Z</time>
      </trkpt>
      <trkpt lat="44.78043" lon="0.5321">
        <ele>70</ele>
        <time>2016-05-08T07:40:04Z</time>
      </trkpt>
      <trkpt lat="44.78044" lon="0.53222">
        <ele>69</ele>
        <time>2016-05-08T07:40:11Z</time>
      </trkpt>
      <trkpt lat="44.7805" lon="0.53228">
        <ele>67</ele>
        <time>2016-05-08T07:40:24Z</time>
      </trkpt>
      <trkpt lat="44.78057" lon="0.53228">
        <ele>67</ele>
        <time>2016-05-08T07:40:31Z</time>
      </trkpt>
      <trkpt lat="44.78065" lon="0.53225">
        <ele>67</ele>
        <time>2016-05-08T07:40:36Z</time>
      </trkpt>
      <trkpt lat="44.78073" lon="0.53224">
        <ele>67</ele>
        <time>2016-05-08T07:40:42Z</time>
      </trkpt>
      <trkpt lat="44.78082" lon="0.53222">
        <ele>68</ele>
        <time>2016-05-08T07:40:50Z</time>
      </trkpt>
      <trkpt lat="44.78089" lon="0.53221">
        <ele>69</ele>
        <time>2016-05-08T07:40:56Z</time>
      </trkpt>
      <trkpt lat="44.78098" lon="0.5322">
        <ele>69</ele>
        <time>2016-05-08T07:41:02Z</time>
      </trkpt>
      <trkpt lat="44.78106" lon="0.53218">
        <ele>70</ele>
        <time>2016-05-08T07:41:11Z</time>
      </trkpt>
      <trkpt lat="44.78115" lon="0.53216">
        <ele>71</ele>
        <time>2016-05-08T07:41:20Z</time>
      </trkpt>
      <trkpt lat="44.78122" lon="0.5321">
        <ele>67</ele>
        <time>2016-05-08T07:41:31Z</time>
      </trkpt>
      <trkpt lat="44.78129" lon="0.53205">
        <ele>64</ele>
        <time>2016-05-08T07:41:38Z</time>
      </trkpt>
      <trkpt lat="44.78136" lon="0.53199">
        <ele>66</ele>
        <time>2016-05-08T07:41:45Z</time>
      </trkpt>
      <trkpt lat="44.78142" lon="0.5319">
        <ele>71</ele>
        <time>2016-05-08T07:41:54Z</time>
      </trkpt>
      <trkpt lat="44.78144" lon="0.53178">
        <ele>71</ele>
        <time>2016-05-08T07:42:03Z</time>
      </trkpt>
      <trkpt lat="44.78141" lon="0.53167">
        <ele>67</ele>
        <time>2016-05-08T07:42:10Z</time>
      </trkpt>
      <trkpt lat="44.78138" lon="0.53156">
        <ele>62</ele>
        <time>2016-05-08T07:42:18Z</time>
      </trkpt>
      <trkpt lat="44.78136" lon="0.53146">
        <ele>61</ele>
        <time>2016-05-08T07:42:24Z</time>
      </trkpt>
      <trkpt lat="44.78141" lon="0.53136">
        <ele>61</ele>
        <time>2016-05-08T07:42:34Z</time>
      </trkpt>
      <trkpt lat="44.78148" lon="0.53131">
        <ele>61</ele>
        <time>2016-05-08T07:42:42Z</time>
      </trkpt>
      <trkpt lat="44.78157" lon="0.53126">
        <ele>62</ele>
        <time>2016-05-08T07:42:49Z</time>
      </trkpt>
      <trkpt lat="44.78164" lon="0.53124">
        <ele>63</ele>
        <time>2016-05-08T07:42:54Z</time>
      </trkpt>
      <trkpt lat="44.78172" lon="0.5312">
        <ele>64</ele>
        <time>2016-05-08T07:43:00Z</time>
      </trkpt>
      <trkpt lat="44.78181" lon="0.53118">
        <ele>64</ele>
        <time>2016-05-08T07:43:06Z</time>
      </trkpt>
      <trkpt lat="44.78188" lon="0.53115">
        <ele>58</ele>
        <time>2016-05-08T07:43:16Z</time>
      </trkpt>
      <trkpt lat="44.78197" lon="0.53111">
        <ele>61</ele>
        <time>2016-05-08T07:43:21Z</time>
      </trkpt>
      <trkpt lat="44.78204" lon="0.53104">
        <ele>62</ele>
        <time>2016-05-08T07:43:29Z</time>
      </trkpt>
      <trkpt lat="44.78208" lon="0.53094">
        <ele>63</ele>
        <time>2016-05-08T07:43:35Z</time>
      </trkpt>
      <trkpt lat="44.78206" lon="0.53083">
        <ele>65</ele>
        <time>2016-05-08T07:43:43Z</time>
      </trkpt>
      <trkpt lat="44.78205" lon="0.53071">
        <ele>67</ele>
        <time>2016-05-08T07:43:48Z</time>
      </trkpt>
      <trkpt lat="44.78201" lon="0.53062">
        <ele>66</ele>
        <time>2016-05-08T07:43:53Z</time>
      </trkpt>
      <trkpt lat="44.78198" lon="0.53051">
        <ele>68</ele>
        <time>2016-05-08T07:43:58Z</time>
      </trkpt>
      <trkpt lat="44.78193" lon="0.53042">
        <ele>69</ele>
        <time>2016-05-08T07:44:04Z</time>
      </trkpt>
      <trkpt lat="44.78192" lon="0.53029">
        <ele>71</ele>
        <time>2016-05-08T07:44:12Z</time>
      </trkpt>
      <trkpt lat="44.78188" lon="0.5302">
        <ele>71</ele>
        <time>2016-05-08T07:44:19Z</time>
      </trkpt>
      <trkpt lat="44.78184" lon="0.53009">
        <ele>73</ele>
        <time>2016-05-08T07:44:27Z</time>
      </trkpt>
      <trkpt lat="44.78181" lon="0.52997">
        <ele>68</ele>
        <time>2016-05-08T07:44:38Z</time>
      </trkpt>
      <trkpt lat="44.7818" lon="0.52985">
        <ele>69</ele>
        <time>2016-05-08T07:44:47Z</time>
      </trkpt>
      <trkpt lat="44.78177" lon="0.52974">
        <ele>70</ele>
        <time>2016-05-08T07:44:56Z</time>
      </trkpt>
      <trkpt lat="44.78174" lon="0.52964">
        <ele>69</ele>
        <time>2016-05-08T07:45:03Z</time>
      </trkpt>
      <trkpt lat="44.78171" lon="0.52954">
        <ele>67</ele>
        <time>2016-05-08T07:45:10Z</time>
      </trkpt>
      <trkpt lat="44.78167" lon="0.52944">
        <ele>66</ele>
        <time>2016-05-08T07:45:16Z</time>
      </trkpt>
      <trkpt lat="44.78165" lon="0.52934">
        <ele>68</ele>
        <time>2016-05-08T07:45:22Z</time>
      </trkpt>
      <trkpt lat="44.78162" lon="0.52923">
        <ele>72</ele>
        <time>2016-05-08T07:45:28Z</time>
      </trkpt>
      <trkpt lat="44.78165" lon="0.52913">
        <ele>75</ele>
        <time>2016-05-08T07:45:35Z</time>
      </trkpt>
      <trkpt lat="44.7817" lon="0.52903">
        <ele>70</ele>
        <time>2016-05-08T07:45:45Z</time>
      </trkpt>
      <trkpt lat="44.78178" lon="0.52899">
        <ele>65</ele>
        <time>2016-05-08T07:45:56Z</time>
      </trkpt>
      <trkpt lat="44.78184" lon="0.52896">
        <ele>64</ele>
        <time>2016-05-08T07:46:03Z</time>
      </trkpt>
      <trkpt lat="44.78192" lon="0.52894">
        <ele>64</ele>
        <time>2016-05-08T07:46:09Z</time>
      </trkpt>
      <trkpt lat="44.782" lon="0.52891">
        <ele>63</ele>
        <time>2016-05-08T07:46:15Z</time>
      </trkpt>
      <trkpt lat="44.78207" lon="0.52887">
        <ele>60</ele>
        <time>2016-05-08T07:46:23Z</time>
      </trkpt>
      <trkpt lat="44.78214" lon="0.52885">
        <ele>60</ele>
        <time>2016-05-08T07:46:30Z</time>
      </trkpt>
      <trkpt lat="44.78223" lon="0.52882">
        <ele>61</ele>
        <time>2016-05-08T07:46:37Z</time>
      </trkpt>
      <trkpt lat="44.7823" lon="0.52879">
        <ele>63</ele>
        <time>2016-05-08T07:46:43Z</time>
      </trkpt>
      <trkpt lat="44.78239" lon="0.52876">
        <ele>59</ele>
        <time>2016-05-08T07:46:52Z</time>
      </trkpt>
      <trkpt lat="44.78246" lon="0.5287">
        <ele>56</ele>
        <time>2016-05-08T07:47:01Z</time>
      </trkpt>
      <trkpt lat="44.78254" lon="0.52871">
        <ele>59</ele>
        <time>2016-05-08T07:47:08Z</time>
      </trkpt>
      <trkpt lat="44.78263" lon="0.52871">
        <ele>58</ele>
        <time>2016-05-08T07:47:16Z</time>
      </trkpt>
      <trkpt lat="44.78272" lon="0.52871">
        <ele>58</ele>
        <time>2016-05-08T07:47:22Z</time>
      </trkpt>
      <trkpt lat="44.7828" lon="0.52871">
        <ele>56</ele>
        <time>2016-05-08T07:47:30Z</time>
      </trkpt>
      <trkpt lat="44.78287" lon="0.5287">
        <ele>56</ele>
        <time>2016-05-08T07:47:35Z</time>
      </trkpt>
      <trkpt lat="44.78295" lon="0.52872">
        <ele>56</ele>
        <time>2016-05-08T07:47:42Z</time>
      </trkpt>
      <trkpt lat="44.78303" lon="0.52871">
        <ele>57</ele>
        <time>2016-05-08T07:47:48Z</time>
      </trkpt>
      <trkpt lat="44.78312" lon="0.5287">
        <ele>54</ele>
        <time>2016-05-08T07:47:57Z</time>
      </trkpt>
      <trkpt lat="44.7832" lon="0.52872">
        <ele>54</ele>
        <time>2016-05-08T07:48:03Z</time>
      </trkpt>
      <trkpt lat="44.78328" lon="0.52872">
        <ele>54</ele>
        <time>2016-05-08T07:48:10Z</time>
      </trkpt>
      <trkpt lat="44.78337" lon="0.52873">
        <ele>55</ele>
        <time>2016-05-08T07:48:17Z</time>
      </trkpt>
      <trkpt lat="44.78345" lon="0.52872">
        <ele>55</ele>
        <time>2016-05-08T07:48:21Z</time>
      </trkpt>
      <trkpt lat="44.78353" lon="0.52869">
        <ele>56</ele>
        <time>2016-05-08T07:48:27Z</time>
      </trkpt>
      <trkpt lat="44.7836" lon="0.52866">
        <ele>56</ele>
        <time>2016-05-08T07:48:33Z</time>
      </trkpt>
      <trkpt lat="44.78367" lon="0.52865">
        <ele>56</ele>
        <time>2016-05-08T07:48:38Z</time>
      </trkpt>
      <trkpt lat="44.78375" lon="0.52863">
        <ele>55</ele>
        <time>2016-05-08T07:48:44Z</time>
      </trkpt>
      <trkpt lat="44.78383" lon="0.52861">
        <ele>55</ele>
        <time>2016-05-08T07:48:51Z</time>
      </trkpt>
      <trkpt lat="44.78392" lon="0.52858">
        <ele>54</ele>
        <time>2016-05-08T07:48:59Z</time>
      </trkpt>
      <trkpt lat="44.784" lon="0.52855">
        <ele>53</ele>
        <time>2016-05-08T07:49:06Z</time>
      </trkpt>
      <trkpt lat="44.78408" lon="0.52852">
        <ele>52</ele>
        <time>2016-05-08T07:49:12Z</time>
      </trkpt>
      <trkpt lat="44.78416" lon="0.52852">
        <ele>51</ele>
        <time>2016-05-08T07:49:18Z</time>
      </trkpt>
      <trkpt lat="44.78423" lon="0.52849">
        <ele>51</ele>
        <time>2016-05-08T07:49:25Z</time>
      </trkpt>
      <trkpt lat="44.78431" lon="0.52848">
        <ele>51</ele>
        <time>2016-05-08T07:49:30Z</time>
      </trkpt>
      <trkpt lat="44.78439" lon="0.52845">
        <ele>51</ele>
        <time>2016-05-08T07:49:36Z</time>
      </trkpt>
      <trkpt lat="44.78446" lon="0.52843">
        <ele>51</ele>
        <time>2016-05-08T07:49:43Z</time>
      </trkpt>
      <trkpt lat="44.78454" lon="0.5284">
        <ele>51</ele>
        <time>2016-05-08T07:49:49Z</time>
      </trkpt>
      <trkpt lat="44.78462" lon="0.52839">
        <ele>51</ele>
        <time>2016-05-08T07:49:55Z</time>
      </trkpt>
      <trkpt lat="44.78471" lon="0.52839">
        <ele>51</ele>
        <time>2016-05-08T07:50:03Z</time>
      </trkpt>
      <trkpt lat="44.78479" lon="0.52837">
        <ele>50</ele>
        <time>2016-05-08T07:50:11Z</time>
      </trkpt>
      <trkpt lat="44.78486" lon="0.52836">
        <ele>50</ele>
        <time>2016-05-08T07:50:16Z</time>
      </trkpt>
      <trkpt lat="44.78494" lon="0.52834">
        <ele>49</ele>
        <time>2016-05-08T07:50:22Z</time>
      </trkpt>
      <trkpt lat="44.78503" lon="0.52833">
        <ele>49</ele>
        <time>2016-05-08T07:50:29Z</time>
      </trkpt>
      <trkpt lat="44.78512" lon="0.52831">
        <ele>50</ele>
        <time>2016-05-08T07:50:35Z</time>
      </trkpt>
      <trkpt lat="44.78519" lon="0.52828">
        <ele>51</ele>
        <time>2016-05-08T07:50:39Z</time>
      </trkpt>
      <trkpt lat="44.78526" lon="0.52823">
        <ele>51</ele>
        <time>2016-05-08T07:50:43Z</time>
      </trkpt>
      <trkpt lat="44.78534" lon="0.52823">
        <ele>52</ele>
        <time>2016-05-08T07:50:49Z</time>
      </trkpt>
      <trkpt lat="44.78543" lon="0.52826">
        <ele>51</ele>
        <time>2016-05-08T07:50:59Z</time>
      </trkpt>
      <trkpt lat="44.78551" lon="0.52825">
        <ele>48</ele>
        <time>2016-05-08T07:51:18Z</time>
      </trkpt>
      <trkpt lat="44.7856" lon="0.52828">
        <ele>48</ele>
        <time>2016-05-08T07:51:23Z</time>
      </trkpt>
      <trkpt lat="44.78566" lon="0.52837">
        <ele>47</ele>
        <time>2016-05-08T07:51:29Z</time>
      </trkpt>
      <trkpt lat="44.78571" lon="0.52846">
        <ele>47</ele>
        <time>2016-05-08T07:51:35Z</time>
      </trkpt>
      <trkpt lat="44.78577" lon="0.52854">
        <ele>47</ele>
        <time>2016-05-08T07:51:41Z</time>
      </trkpt>
      <trkpt lat="44.78581" lon="0.52864">
        <ele>47</ele>
        <time>2016-05-08T07:51:47Z</time>
      </trkpt>
      <trkpt lat="44.78585" lon="0.52874">
        <ele>48</ele>
        <time>2016-05-08T07:51:54Z</time>
      </trkpt>
      <trkpt lat="44.78591" lon="0.52884">
        <ele>49</ele>
        <time>2016-05-08T07:52:01Z</time>
      </trkpt>
      <trkpt lat="44.78595" lon="0.52893">
        <ele>50</ele>
        <time>2016-05-08T07:52:07Z</time>
      </trkpt>
      <trkpt lat="44.78599" lon="0.52904">
        <ele>51</ele>
        <time>2016-05-08T07:52:14Z</time>
      </trkpt>
      <trkpt lat="44.78605" lon="0.52913">
        <ele>51</ele>
        <time>2016-05-08T07:52:20Z</time>
      </trkpt>
      <trkpt lat="44.78608" lon="0.52924">
        <ele>51</ele>
        <time>2016-05-08T07:52:26Z</time>
      </trkpt>
      <trkpt lat="44.78611" lon="0.52934">
        <ele>51</ele>
        <time>2016-05-08T07:52:31Z</time>
      </trkpt>
      <trkpt lat="44.78615" lon="0.52943">
        <ele>50</ele>
        <time>2016-05-08T07:52:37Z</time>
      </trkpt>
      <trkpt lat="44.78618" lon="0.52952">
        <ele>49</ele>
        <time>2016-05-08T07:52:42Z</time>
      </trkpt>
      <trkpt lat="44.78623" lon="0.52961">
        <ele>49</ele>
        <time>2016-05-08T07:52:48Z</time>
      </trkpt>
      <trkpt lat="44.78629" lon="0.52971">
        <ele>48</ele>
        <time>2016-05-08T07:52:56Z</time>
      </trkpt>
      <trkpt lat="44.78632" lon="0.52982">
        <ele>48</ele>
        <time>2016-05-08T07:53:05Z</time>
      </trkpt>
      <trkpt lat="44.78637" lon="0.52993">
        <ele>47</ele>
        <time>2016-05-08T07:53:14Z</time>
      </trkpt>
      <trkpt lat="44.78642" lon="0.53002">
        <ele>47</ele>
        <time>2016-05-08T07:53:20Z</time>
      </trkpt>
      <trkpt lat="44.78646" lon="0.53013">
        <ele>46</ele>
        <time>2016-05-08T07:53:27Z</time>
      </trkpt>
      <trkpt lat="44.78654" lon="0.53015">
        <ele>48</ele>
        <time>2016-05-08T07:53:40Z</time>
      </trkpt>
      <trkpt lat="44.7866" lon="0.53007">
        <ele>47</ele>
        <time>2016-05-08T07:53:54Z</time>
      </trkpt>
      <trkpt lat="44.78668" lon="0.53001">
        <ele>47</ele>
        <time>2016-05-08T07:54:01Z</time>
      </trkpt>
      <trkpt lat="44.78676" lon="0.52997">
        <ele>47</ele>
        <time>2016-05-08T07:54:07Z</time>
      </trkpt>
      <trkpt lat="44.78683" lon="0.5299">
        <ele>47</ele>
        <time>2016-05-08T07:54:14Z</time>
      </trkpt>
      <trkpt lat="44.78691" lon="0.52984">
        <ele>47</ele>
        <time>2016-05-08T07:54:21Z</time>
      </trkpt>
      <trkpt lat="44.78697" lon="0.52978">
        <ele>46</ele>
        <time>2016-05-08T07:54:26Z</time>
      </trkpt>
      <trkpt lat="44.78703" lon="0.5297">
        <ele>46</ele>
        <time>2016-05-08T07:54:32Z</time>
      </trkpt>
      <trkpt lat="44.78711" lon="0.52964">
        <ele>45</ele>
        <time>2016-05-08T07:54:39Z</time>
      </trkpt>
      <trkpt lat="44.78718" lon="0.52958">
        <ele>45</ele>
        <time>2016-05-08T07:54:45Z</time>
      </trkpt>
      <trkpt lat="44.78725" lon="0.52954">
        <ele>45</ele>
        <time>2016-05-08T07:54:49Z</time>
      </trkpt>
      <trkpt lat="44.78733" lon="0.52951">
        <ele>45</ele>
        <time>2016-05-08T07:54:55Z</time>
      </trkpt>
      <trkpt lat="44.7874" lon="0.52945">
        <ele>45</ele>
        <time>2016-05-08T07:55:03Z</time>
      </trkpt>
      <trkpt lat="44.78746" lon="0.52937">
        <ele>45</ele>
        <time>2016-05-08T07:55:10Z</time>
      </trkpt>
      <trkpt lat="44.78752" lon="0.5293">
        <ele>44</ele>
        <time>2016-05-08T07:55:16Z</time>
      </trkpt>
      <trkpt lat="44.7876" lon="0.52925">
        <ele>43</ele>
        <time>2016-05-08T07:55:24Z</time>
      </trkpt>
      <trkpt lat="44.78766" lon="0.52918">
        <ele>43</ele>
        <time>2016-05-08T07:55:30Z</time>
      </trkpt>
      <trkpt lat="44.78773" lon="0.52912">
        <ele>43</ele>
        <time>2016-05-08T07:55:37Z</time>
      </trkpt>
      <trkpt lat="44.7878" lon="0.52907">
        <ele>43</ele>
        <time>2016-05-08T07:55:43Z</time>
      </trkpt>
      <trkpt lat="44.78787" lon="0.52902">
        <ele>43</ele>
        <time>2016-05-08T07:55:48Z</time>
      </trkpt>
      <trkpt lat="44.78793" lon="0.52893">
        <ele>43</ele>
        <time>2016-05-08T07:55:54Z</time>
      </trkpt>
      <trkpt lat="44.788" lon="0.52888">
        <ele>43</ele>
        <time>2016-05-08T07:56:00Z</time>
      </trkpt>
      <trkpt lat="44.78806" lon="0.52884">
        <ele>43</ele>
        <time>2016-05-08T07:56:05Z</time>
      </trkpt>
      <trkpt lat="44.78814" lon="0.5288">
        <ele>44</ele>
        <time>2016-05-08T07:56:09Z</time>
      </trkpt>
      <trkpt lat="44.78821" lon="0.52874">
        <ele>44</ele>
        <time>2016-05-08T07:56:15Z</time>
      </trkpt>
      <trkpt lat="44.78829" lon="0.5287">
        <ele>44</ele>
        <time>2016-05-08T07:56:21Z</time>
      </trkpt>
      <trkpt lat="44.78837" lon="0.52865">
        <ele>44</ele>
        <time>2016-05-08T07:56:28Z</time>
      </trkpt>
      <trkpt lat="44.78842" lon="0.52859">
        <ele>45</ele>
        <time>2016-05-08T07:56:34Z</time>
      </trkpt>
      <trkpt lat="44.78849" lon="0.52854">
        <ele>46</ele>
        <time>2016-05-08T07:56:38Z</time>
      </trkpt>
      <trkpt lat="44.78853" lon="0.52845">
        <ele>46</ele>
        <time>2016-05-08T07:56:42Z</time>
      </trkpt>
      <trkpt lat="44.7886" lon="0.52839">
        <ele>45</ele>
        <time>2016-05-08T07:56:47Z</time>
      </trkpt>
      <trkpt lat="44.78867" lon="0.52833">
        <ele>45</ele>
        <time>2016-05-08T07:56:52Z</time>
      </trkpt>
      <trkpt lat="44.78875" lon="0.52827">
        <ele>44</ele>
        <time>2016-05-08T07:56:59Z</time>
      </trkpt>
      <trkpt lat="44.78882" lon="0.5282">
        <ele>42</ele>
        <time>2016-05-08T07:57:08Z</time>
      </trkpt>
      <trkpt lat="44.7889" lon="0.52816">
        <ele>41</ele>
        <time>2016-05-08T07:57:12Z</time>
      </trkpt>
      <trkpt lat="44.78897" lon="0.52808">
        <ele>39</ele>
        <time>2016-05-08T07:57:18Z</time>
      </trkpt>
      <trkpt lat="44.78904" lon="0.52801">
        <ele>36</ele>
        <time>2016-05-08T07:57:26Z</time>
      </trkpt>
      <trkpt lat="44.78912" lon="0.52801">
        <ele>33</ele>
        <time>2016-05-08T07:57:40Z</time>
      </trkpt>
      <trkpt lat="44.7892" lon="0.52803">
        <ele>30</ele>
        <time>2016-05-08T07:57:47Z</time>
      </trkpt>
      <trkpt lat="44.78925" lon="0.52812">
        <ele>26</ele>
        <time>2016-05-08T07:57:54Z</time>
      </trkpt>
      <trkpt lat="44.78932" lon="0.52816">
        <ele>23</ele>
        <time>2016-05-08T07:58:00Z</time>
      </trkpt>
      <trkpt lat="44.78937" lon="0.52827">
        <ele>20</ele>
        <time>2016-05-08T07:58:07Z</time>
      </trkpt>
      <trkpt lat="44.7894" lon="0.52839">
        <ele>17</ele>
        <time>2016-05-08T07:58:13Z</time>
      </trkpt>
      <trkpt lat="44.7894" lon="0.52853">
        <ele>17</ele>
        <time>2016-05-08T07:58:17Z</time>
      </trkpt>
      <trkpt lat="44.78942" lon="0.52864">
        <ele>16</ele>
        <time>2016-05-08T07:58:21Z</time>
      </trkpt>
      <trkpt lat="44.78945" lon="0.52874">
        <ele>14</ele>
        <time>2016-05-08T07:58:27Z</time>
      </trkpt>
      <trkpt lat="44.78943" lon="0.52885">
        <ele>13</ele>
        <time>2016-05-08T07:58:38Z</time>
      </trkpt>
      <trkpt lat="44.78944" lon="0.52897">
        <ele>13</ele>
        <time>2016-05-08T07:58:43Z</time>
      </trkpt>
      <trkpt lat="44.78945" lon="0.5291">
        <ele>14</ele>
        <time>2016-05-08T07:58:49Z</time>
      </trkpt>
      <trkpt lat="44.78951" lon="0.52918">
        <ele>14</ele>
        <time>2016-05-08T07:58:55Z</time>
      </trkpt>
      <trkpt lat="44.78956" lon="0.52929">
        <ele>13</ele>
        <time>2016-05-08T07:59:03Z</time>
      </trkpt>
      <trkpt lat="44.7896" lon="0.52938">
        <ele>12</ele>
        <time>2016-05-08T07:59:09Z</time>
      </trkpt>
      <trkpt lat="44.78962" lon="0.52952">
        <ele>12</ele>
        <time>2016-05-08T07:59:14Z</time>
      </trkpt>
      <trkpt lat="44.78968" lon="0.52961">
        <ele>11</ele>
        <time>2016-05-08T07:59:21Z</time>
      </trkpt>
      <trkpt lat="44.78973" lon="0.52971">
        <ele>9</ele>
        <time>2016-05-08T07:59:28Z</time>
      </trkpt>
      <trkpt lat="44.78977" lon="0.52981">
        <ele>10</ele>
        <time>2016-05-08T07:59:33Z</time>
      </trkpt>
      <trkpt lat="44.78982" lon="0.52989">
        <ele>10</ele>
        <time>2016-05-08T07:59:38Z</time>
      </trkpt>
      <trkpt lat="44.78985" lon="0.53">
        <ele>10</ele>
        <time>2016-05-08T07:59:43Z</time>
      </trkpt>
      <trkpt lat="44.78989" lon="0.5301">
        <ele>10</ele>
        <time>2016-05-08T07:59:49Z</time>
      </trkpt>
      <trkpt lat="44.78994" lon="0.53021">
        <ele>11</ele>
        <time>2016-05-08T07:59:55Z</time>
      </trkpt>
      <trkpt lat="44.78991" lon="0.53032">
        <ele>10</ele>
        <time>2016-05-08T08:00:06Z</time>
      </trkpt>
      <trkpt lat="44.78983" lon="0.53038">
        <ele>8</ele>
        <time>2016-05-08T08:00:16Z</time>
      </trkpt>
      <trkpt lat="44.78978" lon="0.53046">
        <ele>6</ele>
        <time>2016-05-08T08:00:26Z</time>
      </trkpt>
      <trkpt lat="44.7897" lon="0.53054">
        <ele>5</ele>
        <time>2016-05-08T08:00:33Z</time>
      </trkpt>
      <trkpt lat="44.78963" lon="0.53056">
        <ele>5</ele>
        <time>2016-05-08T08:00:41Z</time>
      </trkpt>
      <trkpt lat="44.78956" lon="0.53064">
        <ele>5</ele>
        <time>2016-05-08T08:00:48Z</time>
      </trkpt>
      <trkpt lat="44.78948" lon="0.5307">
        <ele>4</ele>
        <time>2016-05-08T08:00:57Z</time>
      </trkpt>
      <trkpt lat="44.78941" lon="0.53074">
        <ele>5</ele>
        <time>2016-05-08T08:01:06Z</time>
      </trkpt>
      <trkpt lat="44.78935" lon="0.5308">
        <ele>5</ele>
        <time>2016-05-08T08:01:12Z</time>
      </trkpt>
      <trkpt lat="44.78928" lon="0.53087">
        <ele>6</ele>
        <time>2016-05-08T08:01:19Z</time>
      </trkpt>
      <trkpt lat="44.78921" lon="0.53094">
        <ele>8</ele>
        <time>2016-05-08T08:01:27Z</time>
      </trkpt>
      <trkpt lat="44.78914" lon="0.53097">
        <ele>9</ele>
        <time>2016-05-08T08:01:33Z</time>
      </trkpt>
      <trkpt lat="44.78908" lon="0.53103">
        <ele>10</ele>
        <time>2016-05-08T08:01:39Z</time>
      </trkpt>
      <trkpt lat="44.78901" lon="0.53108">
        <ele>11</ele>
        <time>2016-05-08T08:01:43Z</time>
      </trkpt>
      <trkpt lat="44.78894" lon="0.53116">
        <ele>13</ele>
        <time>2016-05-08T08:01:48Z</time>
      </trkpt>
      <trkpt lat="44.78888" lon="0.53124">
        <ele>15</ele>
        <time>2016-05-08T08:01:53Z</time>
      </trkpt>
      <trkpt lat="44.78891" lon="0.53136">
        <ele>20</ele>
        <time>2016-05-08T08:01:59Z</time>
      </trkpt>
      <trkpt lat="44.78899" lon="0.5314">
        <ele>23</ele>
        <time>2016-05-08T08:02:05Z</time>
      </trkpt>
      <trkpt lat="44.78906" lon="0.53146">
        <ele>26</ele>
        <time>2016-05-08T08:02:10Z</time>
      </trkpt>
      <trkpt lat="44.78911" lon="0.53153">
        <ele>30</ele>
        <time>2016-05-08T08:02:16Z</time>
      </trkpt>
      <trkpt lat="44.78918" lon="0.5316">
        <ele>32</ele>
        <time>2016-05-08T08:02:22Z</time>
      </trkpt>
      <trkpt lat="44.78922" lon="0.5317">
        <ele>33</ele>
        <time>2016-05-08T08:02:29Z</time>
      </trkpt>
      <trkpt lat="44.78928" lon="0.53179">
        <ele>33</ele>
        <time>2016-05-08T08:02:35Z</time>
      </trkpt>
      <trkpt lat="44.78934" lon="0.53188">
        <ele>34</ele>
        <time>2016-05-08T08:02:41Z</time>
      </trkpt>
      <trkpt lat="44.7894" lon="0.53197">
        <ele>37</ele>
        <time>2016-05-08T08:02:47Z</time>
      </trkpt>
      <trkpt lat="44.78946" lon="0.53204">
        <ele>39</ele>
        <time>2016-05-08T08:02:53Z</time>
      </trkpt>
      <trkpt lat="44.78952" lon="0.53212">
        <ele>38</ele>
        <time>2016-05-08T08:03:00Z</time>
      </trkpt>
      <trkpt lat="44.78959" lon="0.53221">
        <ele>38</ele>
        <time>2016-05-08T08:03:08Z</time>
      </trkpt>
      <trkpt lat="44.78965" lon="0.53229">
        <ele>36</ele>
        <time>2016-05-08T08:03:17Z</time>
      </trkpt>
      <trkpt lat="44.78971" lon="0.53237">
        <ele>34</ele>
        <time>2016-05-08T08:03:25Z</time>
      </trkpt>
      <trkpt lat="44.78975" lon="0.53247">
        <ele>32</ele>
        <time>2016-05-08T08:03:32Z</time>
      </trkpt>
      <trkpt lat="44.78981" lon="0.53257">
        <ele>30</ele>
        <time>2016-05-08T08:03:39Z</time>
      </trkpt>
      <trkpt lat="44.78984" lon="0.53267">
        <ele>28</ele>
        <time>2016-05-08T08:03:46Z</time>
      </trkpt>
      <trkpt lat="44.78988" lon="0.53277">
        <ele>27</ele>
        <time>2016-05-08T08:03:53Z</time>
      </trkpt>
      <trkpt lat="44.78994" lon="0.53287">
        <ele>28</ele>
        <time>2016-05-08T08:04:00Z</time>
      </trkpt>
      <trkpt lat="44.79" lon="0.53296">
        <ele>27</ele>
        <time>2016-05-08T08:04:07Z</time>
      </trkpt>
      <trkpt lat="44.79005" lon="0.53305">
        <ele>29</ele>
        <time>2016-05-08T08:04:13Z</time>
      </trkpt>
      <trkpt lat="44.79014" lon="0.53305">
        <ele>34</ele>
        <time>2016-05-08T08:04:20Z</time>
      </trkpt>
      <trkpt lat="44.7902" lon="0.53303">
        <ele>36</ele>
        <time>2016-05-08T08:04:24Z</time>
      </trkpt>
      <trkpt lat="44.79029" lon="0.533">
        <ele>39</ele>
        <time>2016-05-08T08:04:28Z</time>
      </trkpt>
      <trkpt lat="44.79036" lon="0.53296">
        <ele>40</ele>
        <time>2016-05-08T08:04:33Z</time>
      </trkpt>
      <trkpt lat="44.79044" lon="0.53291">
        <ele>42</ele>
        <time>2016-05-08T08:04:39Z</time>
      </trkpt>
      <trkpt lat="44.79052" lon="0.53286">
        <ele>42</ele>
        <time>2016-05-08T08:04:45Z</time>
      </trkpt>
      <trkpt lat="44.7906" lon="0.53286">
        <ele>41</ele>
        <time>2016-05-08T08:04:50Z</time>
      </trkpt>
      <trkpt lat="44.79067" lon="0.53281">
        <ele>38</ele>
        <time>2016-05-08T08:04:56Z</time>
      </trkpt>
      <trkpt lat="44.79075" lon="0.53276">
        <ele>35</ele>
        <time>2016-05-08T08:05:03Z</time>
      </trkpt>
      <trkpt lat="44.79083" lon="0.53271">
        <ele>34</ele>
        <time>2016-05-08T08:05:09Z</time>
      </trkpt>
      <trkpt lat="44.7909" lon="0.53267">
        <ele>33</ele>
        <time>2016-05-08T08:05:15Z</time>
      </trkpt>
      <trkpt lat="44.79098" lon="0.53261">
        <ele>32</ele>
        <time>2016-05-08T08:05:22Z</time>
      </trkpt>
      <trkpt lat="44.79104" lon="0.53254">
        <ele>31</ele>
        <time>2016-05-08T08:05:30Z</time>
      </trkpt>
      <trkpt lat="44.79112" lon="0.53249">
        <ele>29</ele>
        <time>2016-05-08T08:05:37Z</time>
      </trkpt>
      <trkpt lat="44.79119" lon="0.53248">
        <ele>30</ele>
        <time>2016-05-08T08:05:43Z</time>
      </trkpt>
      <trkpt lat="44.79126" lon="0.53241">
        <ele>28</ele>
        <time>2016-05-08T08:05:51Z</time>
      </trkpt>
      <trkpt lat="44.79131" lon="0.53239">
        <ele>25</ele>
        <time>2016-05-08T08:06:19Z</time>
      </trkpt>
      <trkpt lat="44.7914" lon="0.53233">
        <ele>26</ele>
        <time>2016-05-08T08:06:24Z</time>
      </trkpt>
      <trkpt lat="44.79133" lon="0.53227">
        <ele>27</ele>
        <time>2016-05-08T08:06:35Z</time>
      </trkpt>
      <trkpt lat="44.79124" lon="0.53226">
        <ele>26</ele>
        <time>2016-05-08T08:07:00Z</time>
      </trkpt>
      <trkpt lat="44.7913" lon="0.53232">
        <ele>24</ele>
        <time>2016-05-08T08:07:26Z</time>
      </trkpt>
      <trkpt lat="44.79139" lon="0.53234">
        <ele>25</ele>
        <time>2016-05-08T08:07:30Z</time>
      </trkpt>
      <trkpt lat="44.79148" lon="0.53234">
        <ele>26</ele>
        <time>2016-05-08T08:07:39Z</time>
      </trkpt>
      <trkpt lat="44.79156" lon="0.53231">
        <ele>23</ele>
        <time>2016-05-08T08:07:48Z</time>
      </trkpt>
      <trkpt lat="44.79164" lon="0.53229">
        <ele>25</ele>
        <time>2016-05-08T08:07:55Z</time>
      </trkpt>
      <trkpt lat="44.79173" lon="0.53228">
        <ele>26</ele>
        <time>2016-05-08T08:08:03Z</time>
      </trkpt>
      <trkpt lat="44.7918" lon="0.53222">
        <ele>26</ele>
        <time>2016-05-08T08:08:10Z</time>
      </trkpt>
      <trkpt lat="44.79188" lon="0.53217">
        <ele>29</ele>
        <time>2016-05-08T08:08:15Z</time>
      </trkpt>
      <trkpt lat="44.79195" lon="0.53212">
        <ele>34</ele>
        <time>2016-05-08T08:08:20Z</time>
      </trkpt>
      <trkpt lat="44.79202" lon="0.53206">
        <ele>36</ele>
        <time>2016-05-08T08:08:26Z</time>
      </trkpt>
      <trkpt lat="44.79207" lon="0.53199">
        <ele>36</ele>
        <time>2016-05-08T08:08:31Z</time>
      </trkpt>
      <trkpt lat="44.79215" lon="0.53192">
        <ele>36</ele>
        <time>2016-05-08T08:08:36Z</time>
      </trkpt>
      <trkpt lat="44.79223" lon="0.53186">
        <ele>36</ele>
        <time>2016-05-08T08:08:41Z</time>
      </trkpt>
      <trkpt lat="44.79227" lon="0.53177">
        <ele>34</ele>
        <time>2016-05-08T08:08:48Z</time>
      </trkpt>
      <trkpt lat="44.79233" lon="0.53169">
        <ele>30</ele>
        <time>2016-05-08T08:08:57Z</time>
      </trkpt>
      <trkpt lat="44.7924" lon="0.53163">
        <ele>29</ele>
        <time>2016-05-08T08:09:04Z</time>
      </trkpt>
      <trkpt lat="44.79248" lon="0.53159">
        <ele>31</ele>
        <time>2016-05-08T08:09:09Z</time>
      </trkpt>
      <trkpt lat="44.79254" lon="0.53152">
        <ele>33</ele>
        <time>2016-05-08T08:09:15Z</time>
      </trkpt>
      <trkpt lat="44.79259" lon="0.53142">
        <ele>34</ele>
        <time>2016-05-08T08:09:21Z</time>
      </trkpt>
      <trkpt lat="44.79264" lon="0.53133">
        <ele>36</ele>
        <time>2016-05-08T08:09:26Z</time>
      </trkpt>
      <trkpt lat="44.79268" lon="0.53124">
        <ele>37</ele>
        <time>2016-05-08T08:09:32Z</time>
      </trkpt>
      <trkpt lat="44.79274" lon="0.53116">
        <ele>40</ele>
        <time>2016-05-08T08:09:39Z</time>
      </trkpt>
      <trkpt lat="44.79282" lon="0.53118">
        <ele>38</ele>
        <time>2016-05-08T08:09:46Z</time>
      </trkpt>
      <trkpt lat="44.7929" lon="0.53122">
        <ele>37</ele>
        <time>2016-05-08T08:09:53Z</time>
      </trkpt>
      <trkpt lat="44.79297" lon="0.53127">
        <ele>37</ele>
        <time>2016-05-08T08:09:59Z</time>
      </trkpt>
      <trkpt lat="44.79304" lon="0.53129">
        <ele>36</ele>
        <time>2016-05-08T08:10:06Z</time>
      </trkpt>
      <trkpt lat="44.79312" lon="0.53128">
        <ele>36</ele>
        <time>2016-05-08T08:10:13Z</time>
      </trkpt>
      <trkpt lat="44.7932" lon="0.53126">
        <ele>39</ele>
        <time>2016-05-08T08:10:18Z</time>
      </trkpt>
      <trkpt lat="44.79328" lon="0.53126">
        <ele>40</ele>
        <time>2016-05-08T08:10:23Z</time>
      </trkpt>
      <trkpt lat="44.79337" lon="0.53124">
        <ele>41</ele>
        <time>2016-05-08T08:10:27Z</time>
      </trkpt>
      <trkpt lat="44.79345" lon="0.53123">
        <ele>42</ele>
        <time>2016-05-08T08:10:34Z</time>
      </trkpt>
      <trkpt lat="44.79353" lon="0.53122">
        <ele>44</ele>
        <time>2016-05-08T08:10:42Z</time>
      </trkpt>
      <trkpt lat="44.79362" lon="0.53121">
        <ele>47</ele>
        <time>2016-05-08T08:10:52Z</time>
      </trkpt>
      <trkpt lat="44.7937" lon="0.53119">
        <ele>52</ele>
        <time>2016-05-08T08:10:58Z</time>
      </trkpt>
      <trkpt lat="44.79378" lon="0.53114">
        <ele>54</ele>
        <time>2016-05-08T08:11:05Z</time>
      </trkpt>
      <trkpt lat="44.79385" lon="0.53107">
        <ele>54</ele>
        <time>2016-05-08T08:11:12Z</time>
      </trkpt>
      <trkpt lat="44.79393" lon="0.53101">
        <ele>57</ele>
        <time>2016-05-08T08:11:18Z</time>
      </trkpt>
      <trkpt lat="44.794" lon="0.53094">
        <ele>56</ele>
        <time>2016-05-08T08:11:24Z</time>
      </trkpt>
      <trkpt lat="44.79406" lon="0.53086">
        <ele>55</ele>
        <time>2016-05-08T08:11:31Z</time>
      </trkpt>
      <trkpt lat="44.79412" lon="0.53077">
        <ele>53</ele>
        <time>2016-05-08T08:11:40Z</time>
      </trkpt>
      <trkpt lat="44.79417" lon="0.53067">
        <ele>50</ele>
        <time>2016-05-08T08:11:48Z</time>
      </trkpt>
      <trkpt lat="44.79423" lon="0.53059">
        <ele>53</ele>
        <time>2016-05-08T08:11:56Z</time>
      </trkpt>
      <trkpt lat="44.79432" lon="0.53057">
        <ele>53</ele>
        <time>2016-05-08T08:12:06Z</time>
      </trkpt>
      <trkpt lat="44.79439" lon="0.53058">
        <ele>52</ele>
        <time>2016-05-08T08:12:12Z</time>
      </trkpt>
      <trkpt lat="44.79449" lon="0.53062">
        <ele>54</ele>
        <time>2016-05-08T08:12:17Z</time>
      </trkpt>
      <trkpt lat="44.79456" lon="0.53066">
        <ele>50</ele>
        <time>2016-05-08T08:12:24Z</time>
      </trkpt>
      <trkpt lat="44.79464" lon="0.53068">
        <ele>47</ele>
        <time>2016-05-08T08:12:31Z</time>
      </trkpt>
      <trkpt lat="44.79472" lon="0.53073">
        <ele>46</ele>
        <time>2016-05-08T08:12:38Z</time>
      </trkpt>
      <trkpt lat="44.7948" lon="0.53077">
        <ele>47</ele>
        <time>2016-05-08T08:12:45Z</time>
      </trkpt>
      <trkpt lat="44.79487" lon="0.53085">
        <ele>46</ele>
        <time>2016-05-08T08:12:55Z</time>
      </trkpt>
      <trkpt lat="44.79492" lon="0.5309">
        <ele>46</ele>
        <time>2016-05-08T08:13:00Z</time>
      </trkpt>
      <trkpt lat="44.79501" lon="0.53094">
        <ele>48</ele>
        <time>2016-05-08T08:13:05Z</time>
      </trkpt>
      <trkpt lat="44.79508" lon="0.53098">
        <ele>48</ele>
        <time>2016-05-08T08:13:10Z</time>
      </trkpt>
      <trkpt lat="44.79516" lon="0.53103">
        <ele>47</ele>
        <time>2016-05-08T08:13:15Z</time>
      </trkpt>
      <trkpt lat="44.79522" lon="0.53109">
        <ele>48</ele>
        <time>2016-05-08T08:13:22Z</time>
      </trkpt>
      <trkpt lat="44.7953" lon="0.5311">
        <ele>49</ele>
        <time>2016-05-08T08:13:29Z</time>
      </trkpt>
      <trkpt lat="44.79536" lon="0.53117">
        <ele>48</ele>
        <time>2016-05-08T08:13:37Z</time>
      </trkpt>
      <trkpt lat="44.79543" lon="0.53124">
        <ele>45</ele>
        <time>2016-05-08T08:13:44Z</time>
      </trkpt>
      <trkpt lat="44.79549" lon="0.53132">
        <ele>42</ele>
        <time>2016-05-08T08:13:52Z</time>
      </trkpt>
      <trkpt lat="44.79556" lon="0.53139">
        <ele>41</ele>
        <time>2016-05-08T08:13:58Z</time>
      </trkpt>
      <trkpt lat="44.79561" lon="0.53148">
        <ele>40</ele>
        <time>2016-05-08T08:14:04Z</time>
      </trkpt>
      <trkpt lat="44.79566" lon="0.53155">
        <ele>37</ele>
        <time>2016-05-08T08:14:10Z</time>
      </trkpt>
      <trkpt lat="44.79573" lon="0.53163">
        <ele>37</ele>
        <time>2016-05-08T08:14:17Z</time>
      </trkpt>
      <trkpt lat="44.79577" lon="0.53173">
        <ele>36</ele>
        <time>2016-05-08T08:14:24Z</time>
      </trkpt>
      <trkpt lat="44.79585" lon="0.53179">
        <ele>36</ele>
        <time>2016-05-08T08:14:31Z</time>
      </trkpt>
      <trkpt lat="44.79592" lon="0.53183">
        <ele>36</ele>
        <time>2016-05-08T08:14:37Z</time>
      </trkpt>
      <trkpt lat="44.79599" lon="0.53189">
        <ele>37</ele>
        <time>2016-05-08T08:14:43Z</time>
      </trkpt>
      <trkpt lat="44.79606" lon="0.53197">
        <ele>35</ele>
        <time>2016-05-08T08:14:52Z</time>
      </trkpt>
      <trkpt lat="44.79613" lon="0.53194">
        <ele>36</ele>
        <time>2016-05-08T08:14:58Z</time>
      </trkpt>
      <trkpt lat="44.7962" lon="0.53188">
        <ele>37</ele>
        <time>2016-05-08T08:15:03Z</time>
      </trkpt>
      <trkpt lat="44.79627" lon="0.53184">
        <ele>39</ele>
        <time>2016-05-08T08:15:07Z</time>
      </trkpt>
      <trkpt lat="44.79635" lon="0.53178">
        <ele>37</ele>
        <time>2016-05-08T08:15:13Z</time>
      </trkpt>
      <trkpt lat="44.79642" lon="0.53172">
        <ele>34</ele>
        <time>2016-05-08T08:15:20Z</time>
      </trkpt>
      <trkpt lat="44.79651" lon="0.53171">
        <ele>32</ele>
        <time>2016-05-08T08:15:27Z</time>
      </trkpt>
      <trkpt lat="44.79659" lon="0.53175">
        <ele>30</ele>
        <time>2016-05-08T08:15:34Z</time>
      </trkpt>
      <trkpt lat="44.79665" lon="0.53181">
        <ele>31</ele>
        <time>2016-05-08T08:15:39Z</time>
      </trkpt>
      <trkpt lat="44.79672" lon="0.53185">
        <ele>31</ele>
        <time>2016-05-08T08:15:45Z</time>
      </trkpt>
      <trkpt lat="44.79678" lon="0.53194">
        <ele>32</ele>
        <time>2016-05-08T08:15:53Z</time>
      </trkpt>
      <trkpt lat="44.79686" lon="0.53198">
        <ele>31</ele>
        <time>2016-05-08T08:15:58Z</time>
      </trkpt>
      <trkpt lat="44.79693" lon="0.53204">
        <ele>31</ele>
        <time>2016-05-08T08:16:05Z</time>
      </trkpt>
      <trkpt lat="44.797" lon="0.53211">
        <ele>33</ele>
        <time>2016-05-08T08:16:10Z</time>
      </trkpt>
      <trkpt lat="44.79706" lon="0.53215">
        <ele>33</ele>
        <time>2016-05-08T08:16:15Z</time>
      </trkpt>
      <trkpt lat="44.79714" lon="0.5322">
        <ele>34</ele>
        <time>2016-05-08T08:16:20Z</time>
      </trkpt>
      <trkpt lat="44.79722" lon="0.53225">
        <ele>35</ele>
        <time>2016-05-08T08:16:28Z</time>
      </trkpt>
      <trkpt lat="44.79729" lon="0.5323">
        <ele>36</ele>
        <time>2016-05-08T08:16:36Z</time>
      </trkpt>
      <trkpt lat="44.79738" lon="0.53235">
        <ele>34</ele>
        <time>2016-05-08T08:16:44Z</time>
      </trkpt>
      <trkpt lat="44.79746" lon="0.5324">
        <ele>34</ele>
        <time>2016-05-08T08:16:51Z</time>
      </trkpt>
      <trkpt lat="44.79753" lon="0.53244">
        <ele>35</ele>
        <time>2016-05-08T08:16:56Z</time>
      </trkpt>
      <trkpt lat="44.79759" lon="0.53251">
        <ele>35</ele>
        <time>2016-05-08T08:17:02Z</time>
      </trkpt>
      <trkpt lat="44.79767" lon="0.53256">
        <ele>35</ele>
        <time>2016-05-08T08:17:09Z</time>
      </trkpt>
      <trkpt lat="44.79773" lon="0.53264">
        <ele>34</ele>
        <time>2016-05-08T08:17:17Z</time>
      </trkpt>
      <trkpt lat="44.79776" lon="0.53276">
        <ele>35</ele>
        <time>2016-05-08T08:17:26Z</time>
      </trkpt>
      <trkpt lat="44.79782" lon="0.53285">
        <ele>35</ele>
        <time>2016-05-08T08:17:33Z</time>
      </trkpt>
      <trkpt lat="44.79783" lon="0.53297">
        <ele>28</ele>
        <time>2016-05-08T08:17:43Z</time>
      </trkpt>
      <trkpt lat="44.79782" lon="0.53309">
        <ele>19</ele>
        <time>2016-05-08T08:17:48Z</time>
      </trkpt>
      <trkpt lat="44.79782" lon="0.53322">
        <ele>19</ele>
        <time>2016-05-08T08:17:55Z</time>
      </trkpt>
      <trkpt lat="44.79781" lon="0.53334">
        <ele>22</ele>
        <time>2016-05-08T08:18:01Z</time>
      </trkpt>
      <trkpt lat="44.79779" lon="0.53345">
        <ele>24</ele>
        <time>2016-05-08T08:18:08Z</time>
      </trkpt>
      <trkpt lat="44.7978" lon="0.53358">
        <ele>26</ele>
        <time>2016-05-08T08:18:15Z</time>
      </trkpt>
      <trkpt lat="44.79785" lon="0.53367">
        <ele>27</ele>
        <time>2016-05-08T08:18:21Z</time>
      </trkpt>
      <trkpt lat="44.79791" lon="0.53375">
        <ele>26</ele>
        <time>2016-05-08T08:18:36Z</time>
      </trkpt>
      <trkpt lat="44.79796" lon="0.53375">
        <ele>22</ele>
        <time>2016-05-08T08:18:43Z</time>
      </trkpt>
      <trkpt lat="44.79808" lon="0.53373">
        <ele>20</ele>
        <time>2016-05-08T08:18:48Z</time>
      </trkpt>
      <trkpt lat="44.79814" lon="0.53364">
        <ele>17</ele>
        <time>2016-05-08T08:19:01Z</time>
      </trkpt>
      <trkpt lat="44.79823" lon="0.53356">
        <ele>23</ele>
        <time>2016-05-08T08:19:06Z</time>
      </trkpt>
      <trkpt lat="44.7983" lon="0.5335">
        <ele>28</ele>
        <time>2016-05-08T08:19:11Z</time>
      </trkpt>
      <trkpt lat="44.79837" lon="0.53346">
        <ele>31</ele>
        <time>2016-05-08T08:19:17Z</time>
      </trkpt>
      <trkpt lat="44.79845" lon="0.53343">
        <ele>33</ele>
        <time>2016-05-08T08:19:22Z</time>
      </trkpt>
      <trkpt lat="44.7985" lon="0.53336">
        <ele>36</ele>
        <time>2016-05-08T08:19:41Z</time>
      </trkpt>
      <trkpt lat="44.79859" lon="0.53336">
        <ele>35</ele>
        <time>2016-05-08T08:19:54Z</time>
      </trkpt>
      <trkpt lat="44.79867" lon="0.53334">
        <ele>36</ele>
        <time>2016-05-08T08:20:02Z</time>
      </trkpt>
      <trkpt lat="44.79876" lon="0.53334">
        <ele>29</ele>
        <time>2016-05-08T08:20:15Z</time>
      </trkpt>
      <trkpt lat="44.79884" lon="0.53334">
        <ele>31</ele>
        <time>2016-05-08T08:20:23Z</time>
      </trkpt>
      <trkpt lat="44.79892" lon="0.53339">
        <ele>32</ele>
        <time>2016-05-08T08:20:30Z</time>
      </trkpt>
      <trkpt lat="44.79895" lon="0.5335">
        <ele>28</ele>
        <time>2016-05-08T08:20:39Z</time>
      </trkpt>
      <trkpt lat="44.79901" lon="0.53357">
        <ele>27</ele>
        <time>2016-05-08T08:20:50Z</time>
      </trkpt>
      <trkpt lat="44.7991" lon="0.53357">
        <ele>30</ele>
        <time>2016-05-08T08:20:56Z</time>
      </trkpt>
      <trkpt lat="44.79918" lon="0.53356">
        <ele>31</ele>
        <time>2016-05-08T08:21:02Z</time>
      </trkpt>
      <trkpt lat="44.79926" lon="0.53353">
        <ele>32</ele>
        <time>2016-05-08T08:21:09Z</time>
      </trkpt>
      <trkpt lat="44.79934" lon="0.53352">
        <ele>35</ele>
        <time>2016-05-08T08:21:13Z</time>
      </trkpt>
      <trkpt lat="44.79942" lon="0.53351">
        <ele>38</ele>
        <time>2016-05-08T08:21:20Z</time>
      </trkpt>
      <trkpt lat="44.7995" lon="0.53349">
        <ele>38</ele>
        <time>2016-05-08T08:21:29Z</time>
      </trkpt>
      <trkpt lat="44.79958" lon="0.53347">
        <ele>41</ele>
        <time>2016-05-08T08:21:37Z</time>
      </trkpt>
      <trkpt lat="44.79966" lon="0.5335">
        <ele>41</ele>
        <time>2016-05-08T08:21:48Z</time>
      </trkpt>
      <trkpt lat="44.7997" lon="0.53362">
        <ele>40</ele>
        <time>2016-05-08T08:21:56Z</time>
      </trkpt>
      <trkpt lat="44.7997" lon="0.53374">
        <ele>40</ele>
        <time>2016-05-08T08:22:06Z</time>
      </trkpt>
      <trkpt lat="44.79973" lon="0.53385">
        <ele>40</ele>
        <time>2016-05-08T08:22:13Z</time>
      </trkpt>
      <trkpt lat="44.79977" lon="0.53395">
        <ele>39</ele>
        <time>2016-05-08T08:22:20Z</time>
      </trkpt>
      <trkpt lat="44.79979" lon="0.53406">
        <ele>40</ele>
        <time>2016-05-08T08:22:27Z</time>
      </trkpt>
      <trkpt lat="44.79982" lon="0.53418">
        <ele>39</ele>
        <time>2016-05-08T08:22:34Z</time>
      </trkpt>
      <trkpt lat="44.79984" lon="0.5343">
        <ele>37</ele>
        <time>2016-05-08T08:22:40Z</time>
      </trkpt>
      <trkpt lat="44.79988" lon="0.53439">
        <ele>37</ele>
        <time>2016-05-08T08:23:02Z</time>
      </trkpt>
      <trkpt lat="44.79997" lon="0.53441">
        <ele>44</ele>
        <time>2016-05-08T08:23:06Z</time>
      </trkpt>
      <trkpt lat="44.80005" lon="0.53435">
        <ele>46</ele>
        <time>2016-05-08T08:23:15Z</time>
      </trkpt>
      <trkpt lat="44.80013" lon="0.53431">
        <ele>47</ele>
        <time>2016-05-08T08:23:23Z</time>
      </trkpt>
      <trkpt lat="44.80022" lon="0.53428">
        <ele>47</ele>
        <time>2016-05-08T08:23:33Z</time>
      </trkpt>
      <trkpt lat="44.8003" lon="0.53425">
        <ele>48</ele>
        <time>2016-05-08T08:23:41Z</time>
      </trkpt>
      <trkpt lat="44.80039" lon="0.53422">
        <ele>50</ele>
        <time>2016-05-08T08:23:49Z</time>
      </trkpt>
      <trkpt lat="44.80047" lon="0.53419">
        <ele>51</ele>
        <time>2016-05-08T08:23:56Z</time>
      </trkpt>
      <trkpt lat="44.80055" lon="0.53416">
        <ele>50</ele>
        <time>2016-05-08T08:24:04Z</time>
      </trkpt>
      <trkpt lat="44.80063" lon="0.53413">
        <ele>50</ele>
        <time>2016-05-08T08:24:11Z</time>
      </trkpt>
      <trkpt lat="44.80071" lon="0.5341">
        <ele>50</ele>
        <time>2016-05-08T08:24:20Z</time>
      </trkpt>
      <trkpt lat="44.80079" lon="0.53408">
        <ele>50</ele>
        <time>2016-05-08T08:24:27Z</time>
      </trkpt>
      <trkpt lat="44.80088" lon="0.53405">
        <ele>52</ele>
        <time>2016-05-08T08:24:36Z</time>
      </trkpt>
      <trkpt lat="44.80095" lon="0.53402">
        <ele>53</ele>
        <time>2016-05-08T08:24:43Z</time>
      </trkpt>
      <trkpt lat="44.80104" lon="0.534">
        <ele>55</ele>
        <time>2016-05-08T08:24:48Z</time>
      </trkpt>
      <trkpt lat="44.80112" lon="0.53397">
        <ele>56</ele>
        <time>2016-05-08T08:24:56Z</time>
      </trkpt>
      <trkpt lat="44.80121" lon="0.53397">
        <ele>56</ele>
        <time>2016-05-08T08:25:03Z</time>
      </trkpt>
      <trkpt lat="44.8013" lon="0.53396">
        <ele>56</ele>
        <time>2016-05-08T08:25:12Z</time>
      </trkpt>
      <trkpt lat="44.80139" lon="0.53395">
        <ele>57</ele>
        <time>2016-05-08T08:25:24Z</time>
      </trkpt>
      <trkpt lat="44.80143" lon="0.5339">
        <ele>52</ele>
        <time>2016-05-08T08:29:10Z</time>
      </trkpt>
      <trkpt lat="44.80148" lon="0.53401">
        <ele>50</ele>
        <time>2016-05-08T08:29:15Z</time>
      </trkpt>
      <trkpt lat="44.80157" lon="0.53398">
        <ele>62</ele>
        <time>2016-05-08T08:30:58Z</time>
      </trkpt>
      <trkpt lat="44.80166" lon="0.53397">
        <ele>63</ele>
        <time>2016-05-08T08:31:18Z</time>
      </trkpt>
      <trkpt lat="44.80174" lon="0.53394">
        <ele>64</ele>
        <time>2016-05-08T08:31:28Z</time>
      </trkpt>
      <trkpt lat="44.8018" lon="0.53389">
        <ele>60</ele>
        <time>2016-05-08T08:31:35Z</time>
      </trkpt>
      <trkpt lat="44.80189" lon="0.53387">
        <ele>59</ele>
        <time>2016-05-08T08:31:43Z</time>
      </trkpt>
      <trkpt lat="44.80197" lon="0.53389">
        <ele>55</ele>
        <time>2016-05-08T08:31:51Z</time>
      </trkpt>
      <trkpt lat="44.80205" lon="0.53389">
        <ele>52</ele>
        <time>2016-05-08T08:31:59Z</time>
      </trkpt>
      <trkpt lat="44.80213" lon="0.53392">
        <ele>52</ele>
        <time>2016-05-08T08:32:06Z</time>
      </trkpt>
      <trkpt lat="44.80222" lon="0.53393">
        <ele>52</ele>
        <time>2016-05-08T08:32:12Z</time>
      </trkpt>
      <trkpt lat="44.8023" lon="0.53394">
        <ele>52</ele>
        <time>2016-05-08T08:32:18Z</time>
      </trkpt>
      <trkpt lat="44.80238" lon="0.53394">
        <ele>53</ele>
        <time>2016-05-08T08:32:23Z</time>
      </trkpt>
      <trkpt lat="44.80245" lon="0.53392">
        <ele>52</ele>
        <time>2016-05-08T08:32:29Z</time>
      </trkpt>
      <trkpt lat="44.80252" lon="0.53386">
        <ele>53</ele>
        <time>2016-05-08T08:32:33Z</time>
      </trkpt>
      <trkpt lat="44.80257" lon="0.53378">
        <ele>53</ele>
        <time>2016-05-08T08:32:39Z</time>
      </trkpt>
      <trkpt lat="44.80263" lon="0.53369">
        <ele>53</ele>
        <time>2016-05-08T08:32:46Z</time>
      </trkpt>
      <trkpt lat="44.80269" lon="0.53362">
        <ele>53</ele>
        <time>2016-05-08T08:32:52Z</time>
      </trkpt>
      <trkpt lat="44.80275" lon="0.53354">
        <ele>52</ele>
        <time>2016-05-08T08:32:59Z</time>
      </trkpt>
      <trkpt lat="44.80281" lon="0.53346">
        <ele>50</ele>
        <time>2016-05-08T08:33:07Z</time>
      </trkpt>
      <trkpt lat="44.80287" lon="0.53338">
        <ele>49</ele>
        <time>2016-05-08T08:33:14Z</time>
      </trkpt>
      <trkpt lat="44.80293" lon="0.53329">
        <ele>48</ele>
        <time>2016-05-08T08:33:20Z</time>
      </trkpt>
      <trkpt lat="44.80299" lon="0.53322">
        <ele>47</ele>
        <time>2016-05-08T08:33:26Z</time>
      </trkpt>
      <trkpt lat="44.80304" lon="0.53315">
        <ele>47</ele>
        <time>2016-05-08T08:33:32Z</time>
      </trkpt>
      <trkpt lat="44.80311" lon="0.53307">
        <ele>48</ele>
        <time>2016-05-08T08:33:37Z</time>
      </trkpt>
      <trkpt lat="44.80317" lon="0.533">
        <ele>46</ele>
        <time>2016-05-08T08:33:43Z</time>
      </trkpt>
      <trkpt lat="44.80324" lon="0.53293">
        <ele>46</ele>
        <time>2016-05-08T08:33:50Z</time>
      </trkpt>
      <trkpt lat="44.8033" lon="0.53285">
        <ele>43</ele>
        <time>2016-05-08T08:33:57Z</time>
      </trkpt>
      <trkpt lat="44.80336" lon="0.53277">
        <ele>40</ele>
        <time>2016-05-08T08:34:04Z</time>
      </trkpt>
      <trkpt lat="44.80336" lon="0.53266">
        <ele>39</ele>
        <time>2016-05-08T08:34:17Z</time>
      </trkpt>
      <trkpt lat="44.80332" lon="0.53257">
        <ele>40</ele>
        <time>2016-05-08T08:34:23Z</time>
      </trkpt>
      <trkpt lat="44.80327" lon="0.53247">
        <ele>40</ele>
        <time>2016-05-08T08:34:29Z</time>
      </trkpt>
      <trkpt lat="44.80322" lon="0.53238">
        <ele>39</ele>
        <time>2016-05-08T08:34:37Z</time>
      </trkpt>
      <trkpt lat="44.80315" lon="0.53231">
        <ele>38</ele>
        <time>2016-05-08T08:34:44Z</time>
      </trkpt>
      <trkpt lat="44.8031" lon="0.53221">
        <ele>38</ele>
        <time>2016-05-08T08:34:48Z</time>
      </trkpt>
      <trkpt lat="44.80304" lon="0.53214">
        <ele>35</ele>
        <time>2016-05-08T08:34:53Z</time>
      </trkpt>
      <trkpt lat="44.803" lon="0.53203">
        <ele>35</ele>
        <time>2016-05-08T08:35:00Z</time>
      </trkpt>
      <trkpt lat="44.80294" lon="0.53193">
        <ele>31</ele>
        <time>2016-05-08T08:35:09Z</time>
      </trkpt>
      <trkpt lat="44.8029" lon="0.53183">
        <ele>30</ele>
        <time>2016-05-08T08:35:15Z</time>
      </trkpt>
      <trkpt lat="44.80284" lon="0.53176">
        <ele>27</ele>
        <time>2016-05-08T08:35:23Z</time>
      </trkpt>
      <trkpt lat="44.80279" lon="0.53166">
        <ele>28</ele>
        <time>2016-05-08T08:35:30Z</time>
      </trkpt>
      <trkpt lat="44.80277" lon="0.53154">
        <ele>30</ele>
        <time>2016-05-08T08:35:36Z</time>
      </trkpt>
      <trkpt lat="44.80275" lon="0.53143">
        <ele>32</ele>
        <time>2016-05-08T08:35:42Z</time>
      </trkpt>
      <trkpt lat="44.80273" lon="0.53131">
        <ele>32</ele>
        <time>2016-05-08T08:35:49Z</time>
      </trkpt>
      <trkpt lat="44.80273" lon="0.5312">
        <ele>32</ele>
        <time>2016-05-08T08:35:55Z</time>
      </trkpt>
      <trkpt lat="44.80274" lon="0.53108">
        <ele>29</ele>
        <time>2016-05-08T08:36:02Z</time>
      </trkpt>
      <trkpt lat="44.80274" lon="0.53096">
        <ele>28</ele>
        <time>2016-05-08T08:36:11Z</time>
      </trkpt>
      <trkpt lat="44.80275" lon="0.53086">
        <ele>29</ele>
        <time>2016-05-08T08:36:16Z</time>
      </trkpt>
      <trkpt lat="44.80274" lon="0.53073">
        <ele>32</ele>
        <time>2016-05-08T08:36:22Z</time>
      </trkpt>
      <trkpt lat="44.80272" lon="0.53063">
        <ele>33</ele>
        <time>2016-05-08T08:36:29Z</time>
      </trkpt>
      <trkpt lat="44.80272" lon="0.53051">
        <ele>33</ele>
        <time>2016-05-08T08:36:36Z</time>
      </trkpt>
      <trkpt lat="44.8027" lon="0.53038">
        <ele>31</ele>
        <time>2016-05-08T08:36:44Z</time>
      </trkpt>
      <trkpt lat="44.80269" lon="0.53026">
        <ele>31</ele>
        <time>2016-05-08T08:36:49Z</time>
      </trkpt>
      <trkpt lat="44.80273" lon="0.53017">
        <ele>33</ele>
        <time>2016-05-08T08:36:55Z</time>
      </trkpt>
      <trkpt lat="44.80275" lon="0.53004">
        <ele>33</ele>
        <time>2016-05-08T08:37:00Z</time>
      </trkpt>
      <trkpt lat="44.80281" lon="0.52996">
        <ele>34</ele>
        <time>2016-05-08T08:37:05Z</time>
      </trkpt>
      <trkpt lat="44.80288" lon="0.52989">
        <ele>35</ele>
        <time>2016-05-08T08:37:11Z</time>
      </trkpt>
      <trkpt lat="44.80295" lon="0.5298">
        <ele>34</ele>
        <time>2016-05-08T08:37:17Z</time>
      </trkpt>
      <trkpt lat="44.80303" lon="0.52976">
        <ele>33</ele>
        <time>2016-05-08T08:37:24Z</time>
      </trkpt>
      <trkpt lat="44.8031" lon="0.52969">
        <ele>32</ele>
        <time>2016-05-08T08:37:31Z</time>
      </trkpt>
      <trkpt lat="44.80317" lon="0.52964">
        <ele>32</ele>
        <time>2016-05-08T08:37:36Z</time>
      </trkpt>
      <trkpt lat="44.80324" lon="0.52958">
        <ele>32</ele>
        <time>2016-05-08T08:37:42Z</time>
      </trkpt>
      <trkpt lat="44.8033" lon="0.52949">
        <ele>31</ele>
        <time>2016-05-08T08:37:49Z</time>
      </trkpt>
      <trkpt lat="44.80337" lon="0.52943">
        <ele>29</ele>
        <time>2016-05-08T08:37:56Z</time>
      </trkpt>
      <trkpt lat="44.80343" lon="0.52935">
        <ele>28</ele>
        <time>2016-05-08T08:38:02Z</time>
      </trkpt>
      <trkpt lat="44.80351" lon="0.52929">
        <ele>27</ele>
        <time>2016-05-08T08:38:09Z</time>
      </trkpt>
      <trkpt lat="44.80358" lon="0.52923">
        <ele>25</ele>
        <time>2016-05-08T08:38:16Z</time>
      </trkpt>
      <trkpt lat="44.80366" lon="0.52917">
        <ele>26</ele>
        <time>2016-05-08T08:38:22Z</time>
      </trkpt>
      <trkpt lat="44.80373" lon="0.52911">
        <ele>28</ele>
        <time>2016-05-08T08:38:27Z</time>
      </trkpt>
      <trkpt lat="44.80379" lon="0.52905">
        <ele>28</ele>
        <time>2016-05-08T08:38:33Z</time>
      </trkpt>
      <trkpt lat="44.80386" lon="0.52899">
        <ele>28</ele>
        <time>2016-05-08T08:38:39Z</time>
      </trkpt>
      <trkpt lat="44.80392" lon="0.52893">
        <ele>28</ele>
        <time>2016-05-08T08:38:45Z</time>
      </trkpt>
      <trkpt lat="44.80399" lon="0.52886">
        <ele>24</ele>
        <time>2016-05-08T08:38:52Z</time>
      </trkpt>
      <trkpt lat="44.80406" lon="0.5288">
        <ele>21</ele>
        <time>2016-05-08T08:39:00Z</time>
      </trkpt>
      <trkpt lat="44.80412" lon="0.52873">
        <ele>22</ele>
        <time>2016-05-08T08:39:06Z</time>
      </trkpt>
      <trkpt lat="44.80419" lon="0.52865">
        <ele>23</ele>
        <time>2016-05-08T08:39:12Z</time>
      </trkpt>
      <trkpt lat="44.80425" lon="0.52859">
        <ele>24</ele>
        <time>2016-05-08T08:39:17Z</time>
      </trkpt>
      <trkpt lat="44.80432" lon="0.52853">
        <ele>24</ele>
        <time>2016-05-08T08:39:23Z</time>
      </trkpt>
      <trkpt lat="44.80439" lon="0.52846">
        <ele>25</ele>
        <time>2016-05-08T08:39:29Z</time>
      </trkpt>
      <trkpt lat="44.80446" lon="0.52842">
        <ele>26</ele>
        <time>2016-05-08T08:39:34Z</time>
      </trkpt>
      <trkpt lat="44.80452" lon="0.52833">
        <ele>25</ele>
        <time>2016-05-08T08:39:41Z</time>
      </trkpt>
      <trkpt lat="44.80458" lon="0.52827">
        <ele>24</ele>
        <time>2016-05-08T08:39:47Z</time>
      </trkpt>
      <trkpt lat="44.80464" lon="0.52818">
        <ele>23</ele>
        <time>2016-05-08T08:39:53Z</time>
      </trkpt>
      <trkpt lat="44.80471" lon="0.5281">
        <ele>22</ele>
        <time>2016-05-08T08:39:59Z</time>
      </trkpt>
      <trkpt lat="44.80479" lon="0.52807">
        <ele>17</ele>
        <time>2016-05-08T08:40:08Z</time>
      </trkpt>
      <trkpt lat="44.80487" lon="0.52807">
        <ele>14</ele>
        <time>2016-05-08T08:40:15Z</time>
      </trkpt>
      <trkpt lat="44.80494" lon="0.52804">
        <ele>15</ele>
        <time>2016-05-08T08:40:19Z</time>
      </trkpt>
      <trkpt lat="44.80502" lon="0.52801">
        <ele>16</ele>
        <time>2016-05-08T08:40:24Z</time>
      </trkpt>
      <trkpt lat="44.8051" lon="0.528">
        <ele>16</ele>
        <time>2016-05-08T08:40:30Z</time>
      </trkpt>
      <trkpt lat="44.80518" lon="0.52797">
        <ele>16</ele>
        <time>2016-05-08T08:40:36Z</time>
      </trkpt>
      <trkpt lat="44.80525" lon="0.52791">
        <ele>16</ele>
        <time>2016-05-08T08:40:42Z</time>
      </trkpt>
      <trkpt lat="44.80532" lon="0.52786">
        <ele>15</ele>
        <time>2016-05-08T08:40:49Z</time>
      </trkpt>
      <trkpt lat="44.8054" lon="0.52782">
        <ele>14</ele>
        <time>2016-05-08T08:40:55Z</time>
      </trkpt>
      <trkpt lat="44.80546" lon="0.5277">
        <ele>16</ele>
        <time>2016-05-08T08:41:00Z</time>
      </trkpt>
      <trkpt lat="44.8055" lon="0.52759">
        <ele>18</ele>
        <time>2016-05-08T08:41:05Z</time>
      </trkpt>
      <trkpt lat="44.80557" lon="0.52752">
        <ele>19</ele>
        <time>2016-05-08T08:41:10Z</time>
      </trkpt>
      <trkpt lat="44.80566" lon="0.52749">
        <ele>16</ele>
        <time>2016-05-08T08:41:17Z</time>
      </trkpt>
      <trkpt lat="44.80573" lon="0.52743">
        <ele>17</ele>
        <time>2016-05-08T08:41:23Z</time>
      </trkpt>
      <trkpt lat="44.8058" lon="0.52736">
        <ele>17</ele>
        <time>2016-05-08T08:41:29Z</time>
      </trkpt>
      <trkpt lat="44.80588" lon="0.5273">
        <ele>17</ele>
        <time>2016-05-08T08:41:36Z</time>
      </trkpt>
      <trkpt lat="44.80595" lon="0.52725">
        <ele>15</ele>
        <time>2016-05-08T08:41:42Z</time>
      </trkpt>
      <trkpt lat="44.80603" lon="0.52719">
        <ele>12</ele>
        <time>2016-05-08T08:41:50Z</time>
      </trkpt>
      <trkpt lat="44.80611" lon="0.52714">
        <ele>13</ele>
        <time>2016-05-08T08:41:56Z</time>
      </trkpt>
      <trkpt lat="44.80618" lon="0.52711">
        <ele>15</ele>
        <time>2016-05-08T08:42:01Z</time>
      </trkpt>
      <trkpt lat="44.80625" lon="0.52706">
        <ele>16</ele>
        <time>2016-05-08T08:42:06Z</time>
      </trkpt>
      <trkpt lat="44.80631" lon="0.52699">
        <ele>16</ele>
        <time>2016-05-08T08:42:11Z</time>
      </trkpt>
      <trkpt lat="44.80639" lon="0.52696">
        <ele>16</ele>
        <time>2016-05-08T08:42:16Z</time>
      </trkpt>
      <trkpt lat="44.80646" lon="0.52692">
        <ele>16</ele>
        <time>2016-05-08T08:42:21Z</time>
      </trkpt>
      <trkpt lat="44.80653" lon="0.52686">
        <ele>17</ele>
        <time>2016-05-08T08:42:26Z</time>
      </trkpt>
      <trkpt lat="44.8066" lon="0.5268">
        <ele>19</ele>
        <time>2016-05-08T08:42:32Z</time>
      </trkpt>
      <trkpt lat="44.80668" lon="0.52677">
        <ele>16</ele>
        <time>2016-05-08T08:42:39Z</time>
      </trkpt>
      <trkpt lat="44.80676" lon="0.52671">
        <ele>16</ele>
        <time>2016-05-08T08:42:45Z</time>
      </trkpt>
      <trkpt lat="44.80684" lon="0.52665">
        <ele>17</ele>
        <time>2016-05-08T08:42:51Z</time>
      </trkpt>
      <trkpt lat="44.80692" lon="0.52662">
        <ele>11</ele>
        <time>2016-05-08T08:42:59Z</time>
      </trkpt>
      <trkpt lat="44.80698" lon="0.52657">
        <ele>11</ele>
        <time>2016-05-08T08:43:04Z</time>
      </trkpt>
      <trkpt lat="44.80705" lon="0.52651">
        <ele>11</ele>
        <time>2016-05-08T08:43:10Z</time>
      </trkpt>
      <trkpt lat="44.80713" lon="0.52645">
        <ele>10</ele>
        <time>2016-05-08T08:43:16Z</time>
      </trkpt>
      <trkpt lat="44.80721" lon="0.5264">
        <ele>11</ele>
        <time>2016-05-08T08:43:23Z</time>
      </trkpt>
      <trkpt lat="44.80727" lon="0.52632">
        <ele>13</ele>
        <time>2016-05-08T08:43:29Z</time>
      </trkpt>
      <trkpt lat="44.80732" lon="0.52642">
        <ele>9</ele>
        <time>2016-05-08T08:43:39Z</time>
      </trkpt>
      <trkpt lat="44.80734" lon="0.52655">
        <ele>6</ele>
        <time>2016-05-08T08:43:47Z</time>
      </trkpt>
      <trkpt lat="44.80735" lon="0.52667">
        <ele>4</ele>
        <time>2016-05-08T08:43:55Z</time>
      </trkpt>
      <trkpt lat="44.80737" lon="0.52678">
        <ele>3</ele>
        <time>2016-05-08T08:44:04Z</time>
      </trkpt>
      <trkpt lat="44.80741" lon="0.5269">
        <ele>3</ele>
        <time>2016-05-08T08:44:11Z</time>
      </trkpt>
      <trkpt lat="44.80744" lon="0.527">
        <ele>2</ele>
        <time>2016-05-08T08:44:19Z</time>
      </trkpt>
      <trkpt lat="44.80746" lon="0.52711">
        <ele>58.2</ele>
        <time>2016-05-08T08:44:27Z</time>
      </trkpt>
      <trkpt lat="44.80745" lon="0.52722">
        <ele>-5</ele>
        <time>2016-05-08T08:44:34Z</time>
      </trkpt>
      <trkpt lat="44.80748" lon="0.52732">
        <ele>-6</ele>
        <time>2016-05-08T08:44:40Z</time>
      </trkpt>
      <trkpt lat="44.80752" lon="0.52743">
        <ele>-6</ele>
        <time>2016-05-08T08:44:46Z</time>
      </trkpt>
      <trkpt lat="44.80756" lon="0.52754">
        <ele>-6</ele>
        <time>2016-05-08T08:44:52Z</time>
      </trkpt>
      <trkpt lat="44.80757" lon="0.52766">
        <ele>-7</ele>
        <time>2016-05-08T08:44:57Z</time>
      </trkpt>
      <trkpt lat="44.80762" lon="0.52777">
        <ele>-6</ele>
        <time>2016-05-08T08:45:03Z</time>
      </trkpt>
      <trkpt lat="44.80766" lon="0.52786">
        <ele>-6</ele>
        <time>2016-05-08T08:45:09Z</time>
      </trkpt>
      <trkpt lat="44.80771" lon="0.52797">
        <ele>-4</ele>
        <time>2016-05-08T08:45:15Z</time>
      </trkpt>
      <trkpt lat="44.80774" lon="0.52808">
        <ele>-3</ele>
        <time>2016-05-08T08:45:22Z</time>
      </trkpt>
      <trkpt lat="44.80775" lon="0.5282">
        <ele>-3</ele>
        <time>2016-05-08T08:45:30Z</time>
      </trkpt>
      <trkpt lat="44.80778" lon="0.5283">
        <ele>-2</ele>
        <time>2016-05-08T08:45:39Z</time>
      </trkpt>
      <trkpt lat="44.80786" lon="0.52829">
        <ele>3</ele>
        <time>2016-05-08T08:45:43Z</time>
      </trkpt>
      <trkpt lat="44.80794" lon="0.52825">
        <ele>7</ele>
        <time>2016-05-08T08:45:48Z</time>
      </trkpt>
      <trkpt lat="44.80801" lon="0.52824">
        <ele>10</ele>
        <time>2016-05-08T08:45:52Z</time>
      </trkpt>
      <trkpt lat="44.80809" lon="0.5282">
        <ele>13</ele>
        <time>2016-05-08T08:45:57Z</time>
      </trkpt>
      <trkpt lat="44.80817" lon="0.52818">
        <ele>13</ele>
        <time>2016-05-08T08:46:03Z</time>
      </trkpt>
      <trkpt lat="44.80824" lon="0.52816">
        <ele>13</ele>
        <time>2016-05-08T08:46:08Z</time>
      </trkpt>
      <trkpt lat="44.80832" lon="0.52812">
        <ele>14</ele>
        <time>2016-05-08T08:46:14Z</time>
      </trkpt>
      <trkpt lat="44.80841" lon="0.52813">
        <ele>8</ele>
        <time>2016-05-08T08:46:22Z</time>
      </trkpt>
      <trkpt lat="44.80849" lon="0.52811">
        <ele>5</ele>
        <time>2016-05-08T08:46:29Z</time>
      </trkpt>
      <trkpt lat="44.80857" lon="0.52809">
        <ele>3</ele>
        <time>2016-05-08T08:46:37Z</time>
      </trkpt>
      <trkpt lat="44.80865" lon="0.52808">
        <ele>2</ele>
        <time>2016-05-08T08:46:43Z</time>
      </trkpt>
      <trkpt lat="44.80873" lon="0.52804">
        <ele>2</ele>
        <time>2016-05-08T08:46:49Z</time>
      </trkpt>
      <trkpt lat="44.80881" lon="0.52801">
        <ele>2</ele>
        <time>2016-05-08T08:46:55Z</time>
      </trkpt>
      <trkpt lat="44.80888" lon="0.52796">
        <ele>3</ele>
        <time>2016-05-08T08:47:01Z</time>
      </trkpt>
      <trkpt lat="44.80897" lon="0.52792">
        <ele>3</ele>
        <time>2016-05-08T08:47:08Z</time>
      </trkpt>
      <trkpt lat="44.80903" lon="0.52787">
        <ele>5</ele>
        <time>2016-05-08T08:47:13Z</time>
      </trkpt>
      <trkpt lat="44.80911" lon="0.52782">
        <ele>7</ele>
        <time>2016-05-08T08:47:20Z</time>
      </trkpt>
      <trkpt lat="44.80919" lon="0.52783">
        <ele>5</ele>
        <time>2016-05-08T08:47:30Z</time>
      </trkpt>
      <trkpt lat="44.80926" lon="0.52791">
        <ele>2</ele>
        <time>2016-05-08T08:47:37Z</time>
      </trkpt>
      <trkpt lat="44.8093" lon="0.528">
        <ele>1</ele>
        <time>2016-05-08T08:47:44Z</time>
      </trkpt>
      <trkpt lat="44.80934" lon="0.52809">
        <ele>2</ele>
        <time>2016-05-08T08:47:50Z</time>
      </trkpt>
      <trkpt lat="44.8094" lon="0.52819">
        <ele>2</ele>
        <time>2016-05-08T08:47:56Z</time>
      </trkpt>
      <trkpt lat="44.80945" lon="0.52828">
        <ele>2</ele>
        <time>2016-05-08T08:48:02Z</time>
      </trkpt>
      <trkpt lat="44.80949" lon="0.52838">
        <ele>2</ele>
        <time>2016-05-08T08:48:09Z</time>
      </trkpt>
      <trkpt lat="44.80956" lon="0.52846">
        <ele>2</ele>
        <time>2016-05-08T08:48:15Z</time>
      </trkpt>
      <trkpt lat="44.80961" lon="0.52854">
        <ele>2</ele>
        <time>2016-05-08T08:48:21Z</time>
      </trkpt>
      <trkpt lat="44.80967" lon="0.52864">
        <ele>1</ele>
        <time>2016-05-08T08:48:28Z</time>
      </trkpt>
      <trkpt lat="44.80973" lon="0.5287">
        <ele>2</ele>
        <time>2016-05-08T08:48:33Z</time>
      </trkpt>
      <trkpt lat="44.80979" lon="0.52879">
        <ele>3</ele>
        <time>2016-05-08T08:48:39Z</time>
      </trkpt>
      <trkpt lat="44.80984" lon="0.52887">
        <ele>3</ele>
        <time>2016-05-08T08:48:45Z</time>
      </trkpt>
      <trkpt lat="44.80989" lon="0.52898">
        <ele>2</ele>
        <time>2016-05-08T08:48:52Z</time>
      </trkpt>
      <trkpt lat="44.80993" lon="0.52908">
        <ele>56.9</ele>
        <time>2016-05-08T08:49:00Z</time>
      </trkpt>
      <trkpt lat="44.81" lon="0.52911">
        <ele>56.8</ele>
        <time>2016-05-08T08:49:05Z</time>
      </trkpt>
      <trkpt lat="44.81007" lon="0.52915">
        <ele>2</ele>
        <time>2016-05-08T08:49:10Z</time>
      </trkpt>
      <trkpt lat="44.81016" lon="0.52919">
        <ele>2</ele>
        <time>2016-05-08T08:49:15Z</time>
      </trkpt>
      <trkpt lat="44.81023" lon="0.52925">
        <ele>2</ele>
        <time>2016-05-08T08:49:22Z</time>
      </trkpt>
      <trkpt lat="44.8103" lon="0.52932">
        <ele>57.5</ele>
        <time>2016-05-08T08:49:30Z</time>
      </trkpt>
      <trkpt lat="44.81037" lon="0.52938">
        <ele>57.4</ele>
        <time>2016-05-08T08:49:40Z</time>
      </trkpt>
      <trkpt lat="44.81044" lon="0.52944">
        <ele>1</ele>
        <time>2016-05-08T08:49:47Z</time>
      </trkpt>
      <trkpt lat="44.8105" lon="0.52947">
        <ele>1</ele>
        <time>2016-05-08T08:49:52Z</time>
      </trkpt>
      <trkpt lat="44.81061" lon="0.5295">
        <ele>2</ele>
        <time>2016-05-08T08:49:57Z</time>
      </trkpt>
      <trkpt lat="44.81068" lon="0.52954">
        <ele>3</ele>
        <time>2016-05-08T08:50:02Z</time>
      </trkpt>
      <trkpt lat="44.81076" lon="0.52957">
        <ele>3</ele>
        <time>2016-05-08T08:50:07Z</time>
      </trkpt>
      <trkpt lat="44.81084" lon="0.52961">
        <ele>2</ele>
        <time>2016-05-08T08:50:12Z</time>
      </trkpt>
      <trkpt lat="44.81092" lon="0.52963">
        <ele>2</ele>
        <time>2016-05-08T08:50:17Z</time>
      </trkpt>
      <trkpt lat="44.81099" lon="0.52966">
        <ele>3</ele>
        <time>2016-05-08T08:50:22Z</time>
      </trkpt>
      <trkpt lat="44.81107" lon="0.52971">
        <ele>4</ele>
        <time>2016-05-08T08:50:28Z</time>
      </trkpt>
      <trkpt lat="44.81115" lon="0.52975">
        <ele>6</ele>
        <time>2016-05-08T08:50:34Z</time>
      </trkpt>
      <trkpt lat="44.81122" lon="0.52978">
        <ele>4</ele>
        <time>2016-05-08T08:50:40Z</time>
      </trkpt>
      <trkpt lat="44.81129" lon="0.52981">
        <ele>5</ele>
        <time>2016-05-08T08:50:44Z</time>
      </trkpt>
      <trkpt lat="44.81137" lon="0.52984">
        <ele>6</ele>
        <time>2016-05-08T08:50:50Z</time>
      </trkpt>
      <trkpt lat="44.81146" lon="0.52987">
        <ele>7</ele>
        <time>2016-05-08T08:50:58Z</time>
      </trkpt>
      <trkpt lat="44.81153" lon="0.52991">
        <ele>7</ele>
        <time>2016-05-08T08:51:03Z</time>
      </trkpt>
      <trkpt lat="44.8116" lon="0.52997">
        <ele>9</ele>
        <time>2016-05-08T08:51:09Z</time>
      </trkpt>
      <trkpt lat="44.81168" lon="0.53002">
        <ele>8</ele>
        <time>2016-05-08T08:51:15Z</time>
      </trkpt>
      <trkpt lat="44.81175" lon="0.53006">
        <ele>8</ele>
        <time>2016-05-08T08:51:20Z</time>
      </trkpt>
      <trkpt lat="44.81183" lon="0.5301">
        <ele>10</ele>
        <time>2016-05-08T08:51:26Z</time>
      </trkpt>
      <trkpt lat="44.81191" lon="0.53015">
        <ele>10</ele>
        <time>2016-05-08T08:51:33Z</time>
      </trkpt>
      <trkpt lat="44.81198" lon="0.53021">
        <ele>7</ele>
        <time>2016-05-08T08:51:41Z</time>
      </trkpt>
      <trkpt lat="44.81206" lon="0.53024">
        <ele>8</ele>
        <time>2016-05-08T08:51:47Z</time>
      </trkpt>
      <trkpt lat="44.81214" lon="0.53029">
        <ele>9</ele>
        <time>2016-05-08T08:51:55Z</time>
      </trkpt>
      <trkpt lat="44.81221" lon="0.53034">
        <ele>8</ele>
        <time>2016-05-08T08:52:02Z</time>
      </trkpt>
      <trkpt lat="44.81229" lon="0.53038">
        <ele>7</ele>
        <time>2016-05-08T08:52:08Z</time>
      </trkpt>
      <trkpt lat="44.81237" lon="0.53041">
        <ele>5</ele>
        <time>2016-05-08T08:52:13Z</time>
      </trkpt>
      <trkpt lat="44.81241" lon="0.53052">
        <ele>5</ele>
        <time>2016-05-08T08:52:24Z</time>
      </trkpt>
      <trkpt lat="44.81233" lon="0.5306">
        <ele>4</ele>
        <time>2016-05-08T08:52:32Z</time>
      </trkpt>
      <trkpt lat="44.81226" lon="0.53065">
        <ele>3</ele>
        <time>2016-05-08T08:52:39Z</time>
      </trkpt>
      <trkpt lat="44.81217" lon="0.53068">
        <ele>57.8</ele>
        <time>2016-05-08T08:52:47Z</time>
      </trkpt>
      <trkpt lat="44.81211" lon="0.53073">
        <ele>-1</ele>
        <time>2016-05-08T08:52:54Z</time>
      </trkpt>
      <trkpt lat="44.81203" lon="0.53079">
        <ele>58.1</ele>
        <time>2016-05-08T08:52:59Z</time>
      </trkpt>
      <trkpt lat="44.81195" lon="0.53085">
        <ele>1</ele>
        <time>2016-05-08T08:53:07Z</time>
      </trkpt>
      <trkpt lat="44.81187" lon="0.5309">
        <ele>4</ele>
        <time>2016-05-08T08:53:12Z</time>
      </trkpt>
      <trkpt lat="44.8118" lon="0.53096">
        <ele>6</ele>
        <time>2016-05-08T08:53:20Z</time>
      </trkpt>
      <trkpt lat="44.81176" lon="0.53106">
        <ele>5</ele>
        <time>2016-05-08T08:53:26Z</time>
      </trkpt>
      <trkpt lat="44.81175" lon="0.53117">
        <ele>4</ele>
        <time>2016-05-08T08:53:31Z</time>
      </trkpt>
      <trkpt lat="44.81177" lon="0.53128">
        <ele>4</ele>
        <time>2016-05-08T08:53:37Z</time>
      </trkpt>
      <trkpt lat="44.8118" lon="0.53137">
        <ele>4</ele>
        <time>2016-05-08T08:53:43Z</time>
      </trkpt>
      <trkpt lat="44.81184" lon="0.53148">
        <ele>6</ele>
        <time>2016-05-08T08:53:50Z</time>
      </trkpt>
      <trkpt lat="44.81188" lon="0.53159">
        <ele>7</ele>
        <time>2016-05-08T08:53:57Z</time>
      </trkpt>
      <trkpt lat="44.81192" lon="0.5317">
        <ele>9</ele>
        <time>2016-05-08T08:54:03Z</time>
      </trkpt>
      <trkpt lat="44.81195" lon="0.5318">
        <ele>9</ele>
        <time>2016-05-08T08:54:09Z</time>
      </trkpt>
      <trkpt lat="44.81196" lon="0.53191">
        <ele>11</ele>
        <time>2016-05-08T08:54:14Z</time>
      </trkpt>
      <trkpt lat="44.81198" lon="0.53202">
        <ele>12</ele>
        <time>2016-05-08T08:54:20Z</time>
      </trkpt>
      <trkpt lat="44.81199" lon="0.53213">
        <ele>11</ele>
        <time>2016-05-08T08:54:26Z</time>
      </trkpt>
      <trkpt lat="44.81202" lon="0.53225">
        <ele>10</ele>
        <time>2016-05-08T08:54:33Z</time>
      </trkpt>
      <trkpt lat="44.81205" lon="0.53236">
        <ele>12</ele>
        <time>2016-05-08T08:54:40Z</time>
      </trkpt>
      <trkpt lat="44.81209" lon="0.53246">
        <ele>15</ele>
        <time>2016-05-08T08:54:48Z</time>
      </trkpt>
      <trkpt lat="44.81212" lon="0.53258">
        <ele>17</ele>
        <time>2016-05-08T08:54:58Z</time>
      </trkpt>
      <trkpt lat="44.81213" lon="0.53268">
        <ele>14</ele>
        <time>2016-05-08T08:55:05Z</time>
      </trkpt>
      <trkpt lat="44.81215" lon="0.5328">
        <ele>10</ele>
        <time>2016-05-08T08:55:11Z</time>
      </trkpt>
      <trkpt lat="44.81217" lon="0.53291">
        <ele>5</ele>
        <time>2016-05-08T08:55:18Z</time>
      </trkpt>
      <trkpt lat="44.81222" lon="0.53299">
        <ele>7</ele>
        <time>2016-05-08T08:55:23Z</time>
      </trkpt>
      <trkpt lat="44.81226" lon="0.53309">
        <ele>6</ele>
        <time>2016-05-08T08:55:30Z</time>
      </trkpt>
      <trkpt lat="44.81231" lon="0.53319">
        <ele>7</ele>
        <time>2016-05-08T08:55:36Z</time>
      </trkpt>
      <trkpt lat="44.81233" lon="0.53331">
        <ele>9</ele>
        <time>2016-05-08T08:55:43Z</time>
      </trkpt>
      <trkpt lat="44.81236" lon="0.53341">
        <ele>10</ele>
        <time>2016-05-08T08:55:50Z</time>
      </trkpt>
      <trkpt lat="44.8124" lon="0.53352">
        <ele>10</ele>
        <time>2016-05-08T08:55:57Z</time>
      </trkpt>
      <trkpt lat="44.81242" lon="0.53364">
        <ele>10</ele>
        <time>2016-05-08T08:56:05Z</time>
      </trkpt>
      <trkpt lat="44.81241" lon="0.53376">
        <ele>10</ele>
        <time>2016-05-08T08:56:15Z</time>
      </trkpt>
      <trkpt lat="44.81241" lon="0.53389">
        <ele>7</ele>
        <time>2016-05-08T08:56:28Z</time>
      </trkpt>
      <trkpt lat="44.81248" lon="0.53396">
        <ele>9</ele>
        <time>2016-05-08T08:56:37Z</time>
      </trkpt>
      <trkpt lat="44.81254" lon="0.53405">
        <ele>8</ele>
        <time>2016-05-08T08:56:44Z</time>
      </trkpt>
      <trkpt lat="44.81261" lon="0.5341">
        <ele>6</ele>
        <time>2016-05-08T08:56:50Z</time>
      </trkpt>
      <trkpt lat="44.81269" lon="0.53414">
        <ele>5</ele>
        <time>2016-05-08T08:56:55Z</time>
      </trkpt>
      <trkpt lat="44.81275" lon="0.5342">
        <ele>6</ele>
        <time>2016-05-08T08:57:00Z</time>
      </trkpt>
      <trkpt lat="44.81283" lon="0.53426">
        <ele>5</ele>
        <time>2016-05-08T08:57:07Z</time>
      </trkpt>
      <trkpt lat="44.8129" lon="0.53432">
        <ele>3</ele>
        <time>2016-05-08T08:57:14Z</time>
      </trkpt>
      <trkpt lat="44.81297" lon="0.53438">
        <ele>2</ele>
        <time>2016-05-08T08:57:21Z</time>
      </trkpt>
      <trkpt lat="44.81305" lon="0.53444">
        <ele>63.9</ele>
        <time>2016-05-08T08:57:29Z</time>
      </trkpt>
      <trkpt lat="44.81312" lon="0.5345">
        <ele>64.4</ele>
        <time>2016-05-08T08:57:36Z</time>
      </trkpt>
      <trkpt lat="44.8132" lon="0.53456">
        <ele>64.9</ele>
        <time>2016-05-08T08:57:43Z</time>
      </trkpt>
      <trkpt lat="44.81327" lon="0.53462">
        <ele>65.4</ele>
        <time>2016-05-08T08:57:50Z</time>
      </trkpt>
      <trkpt lat="44.81334" lon="0.53467">
        <ele>-2</ele>
        <time>2016-05-08T08:57:57Z</time>
      </trkpt>
      <trkpt lat="44.81343" lon="0.53472">
        <ele>-1</ele>
        <time>2016-05-08T08:58:03Z</time>
      </trkpt>
      <trkpt lat="44.8135" lon="0.53478">
        <ele>66</ele>
        <time>2016-05-08T08:58:11Z</time>
      </trkpt>
      <trkpt lat="44.81355" lon="0.53487">
        <ele>-1</ele>
        <time>2016-05-08T08:58:19Z</time>
      </trkpt>
      <trkpt lat="44.81362" lon="0.53494">
        <ele>-1</ele>
        <time>2016-05-08T08:58:26Z</time>
      </trkpt>
      <trkpt lat="44.8137" lon="0.535">
        <ele>66</ele>
        <time>2016-05-08T08:58:33Z</time>
      </trkpt>
      <trkpt lat="44.81375" lon="0.53508">
        <ele>66</ele>
        <time>2016-05-08T08:58:40Z</time>
      </trkpt>
      <trkpt lat="44.8138" lon="0.53517">
        <ele>2</ele>
        <time>2016-05-08T08:58:47Z</time>
      </trkpt>
      <trkpt lat="44.81381" lon="0.5353">
        <ele>4</ele>
        <time>2016-05-08T08:58:56Z</time>
      </trkpt>
      <trkpt lat="44.8138" lon="0.53541">
        <ele>7</ele>
        <time>2016-05-08T08:59:03Z</time>
      </trkpt>
      <trkpt lat="44.81381" lon="0.53552">
        <ele>10</ele>
        <time>2016-05-08T08:59:07Z</time>
      </trkpt>
      <trkpt lat="44.81383" lon="0.53563">
        <ele>9</ele>
        <time>2016-05-08T08:59:13Z</time>
      </trkpt>
      <trkpt lat="44.81388" lon="0.53574">
        <ele>9</ele>
        <time>2016-05-08T08:59:20Z</time>
      </trkpt>
      <trkpt lat="44.81393" lon="0.53582">
        <ele>8</ele>
        <time>2016-05-08T08:59:29Z</time>
      </trkpt>
      <trkpt lat="44.81399" lon="0.53591">
        <ele>4</ele>
        <time>2016-05-08T08:59:39Z</time>
      </trkpt>
      <trkpt lat="44.81406" lon="0.53599">
        <ele>1</ele>
        <time>2016-05-08T08:59:46Z</time>
      </trkpt>
      <trkpt lat="44.81413" lon="0.53607">
        <ele>-2</ele>
        <time>2016-05-08T08:59:54Z</time>
      </trkpt>
      <trkpt lat="44.81418" lon="0.53618">
        <ele>-3</ele>
        <time>2016-05-08T09:00:02Z</time>
      </trkpt>
      <trkpt lat="44.81423" lon="0.53625">
        <ele>-5</ele>
        <time>2016-05-08T09:00:09Z</time>
      </trkpt>
      <trkpt lat="44.81432" lon="0.5363">
        <ele>-1</ele>
        <time>2016-05-08T09:00:19Z</time>
      </trkpt>
      <trkpt lat="44.81438" lon="0.53637">
        <ele>-1</ele>
        <time>2016-05-08T09:00:27Z</time>
      </trkpt>
      <trkpt lat="44.81444" lon="0.53644">
        <ele>-2</ele>
        <time>2016-05-08T09:00:32Z</time>
      </trkpt>
      <trkpt lat="44.81454" lon="0.53649">
        <ele>2</ele>
        <time>2016-05-08T09:00:36Z</time>
      </trkpt>
      <trkpt lat="44.81461" lon="0.53656">
        <ele>6</ele>
        <time>2016-05-08T09:00:40Z</time>
      </trkpt>
      <trkpt lat="44.81469" lon="0.53662">
        <ele>9</ele>
        <time>2016-05-08T09:00:45Z</time>
      </trkpt>
      <trkpt lat="44.81477" lon="0.53666">
        <ele>10</ele>
        <time>2016-05-08T09:00:50Z</time>
      </trkpt>
      <trkpt lat="44.81483" lon="0.53672">
        <ele>11</ele>
        <time>2016-05-08T09:00:55Z</time>
      </trkpt>
      <trkpt lat="44.81491" lon="0.53677">
        <ele>13</ele>
        <time>2016-05-08T09:01:00Z</time>
      </trkpt>
      <trkpt lat="44.81496" lon="0.53682">
        <ele>13</ele>
        <time>2016-05-08T09:01:04Z</time>
      </trkpt>
      <trkpt lat="44.81503" lon="0.53691">
        <ele>14</ele>
        <time>2016-05-08T09:01:10Z</time>
      </trkpt>
      <trkpt lat="44.81507" lon="0.53701">
        <ele>13</ele>
        <time>2016-05-08T09:01:18Z</time>
      </trkpt>
      <trkpt lat="44.81507" lon="0.53713">
        <ele>12</ele>
        <time>2016-05-08T09:01:27Z</time>
      </trkpt>
      <trkpt lat="44.81504" lon="0.53724">
        <ele>11</ele>
        <time>2016-05-08T09:01:36Z</time>
      </trkpt>
      <trkpt lat="44.81499" lon="0.53733">
        <ele>13</ele>
        <time>2016-05-08T09:01:42Z</time>
      </trkpt>
      <trkpt lat="44.81498" lon="0.53745">
        <ele>10</ele>
        <time>2016-05-08T09:01:52Z</time>
      </trkpt>
      <trkpt lat="44.81495" lon="0.53757">
        <ele>6</ele>
        <time>2016-05-08T09:02:01Z</time>
      </trkpt>
      <trkpt lat="44.81495" lon="0.53767">
        <ele>4</ele>
        <time>2016-05-08T09:02:09Z</time>
      </trkpt>
      <trkpt lat="44.81491" lon="0.53778">
        <ele>6</ele>
        <time>2016-05-08T09:02:14Z</time>
      </trkpt>
      <trkpt lat="44.81487" lon="0.53789">
        <ele>7</ele>
        <time>2016-05-08T09:02:20Z</time>
      </trkpt>
      <trkpt lat="44.81482" lon="0.53798">
        <ele>9</ele>
        <time>2016-05-08T09:02:26Z</time>
      </trkpt>
      <trkpt lat="44.81477" lon="0.53808">
        <ele>10</ele>
        <time>2016-05-08T09:02:34Z</time>
      </trkpt>
      <trkpt lat="44.81473" lon="0.53819">
        <ele>5</ele>
        <time>2016-05-08T09:02:42Z</time>
      </trkpt>
      <trkpt lat="44.81469" lon="0.53829">
        <ele>69.7</ele>
        <time>2016-05-08T09:02:50Z</time>
      </trkpt>
      <trkpt lat="44.81466" lon="0.53839">
        <ele>70</ele>
        <time>2016-05-08T09:02:56Z</time>
      </trkpt>
      <trkpt lat="44.81463" lon="0.5385">
        <ele>-1</ele>
        <time>2016-05-08T09:03:04Z</time>
      </trkpt>
      <trkpt lat="44.81459" lon="0.53861">
        <ele>-3</ele>
        <time>2016-05-08T09:03:12Z</time>
      </trkpt>
      <trkpt lat="44.81455" lon="0.53872">
        <ele>-2</ele>
        <time>2016-05-08T09:03:19Z</time>
      </trkpt>
      <trkpt lat="44.81452" lon="0.53881">
        <ele>70.8</ele>
        <time>2016-05-08T09:03:24Z</time>
      </trkpt>
      <trkpt lat="44.81448" lon="0.53889">
        <ele>2</ele>
        <time>2016-05-08T09:03:29Z</time>
      </trkpt>
      <trkpt lat="44.81444" lon="0.539">
        <ele>4</ele>
        <time>2016-05-08T09:03:35Z</time>
      </trkpt>
      <trkpt lat="44.81439" lon="0.53908">
        <ele>6</ele>
        <time>2016-05-08T09:03:39Z</time>
      </trkpt>
      <trkpt lat="44.81435" lon="0.53919">
        <ele>8</ele>
        <time>2016-05-08T09:03:46Z</time>
      </trkpt>
      <trkpt lat="44.81431" lon="0.53928">
        <ele>6</ele>
        <time>2016-05-08T09:03:52Z</time>
      </trkpt>
      <trkpt lat="44.81428" lon="0.5394">
        <ele>8</ele>
        <time>2016-05-08T09:03:59Z</time>
      </trkpt>
      <trkpt lat="44.81432" lon="0.5395">
        <ele>13</ele>
        <time>2016-05-08T09:04:07Z</time>
      </trkpt>
      <trkpt lat="44.81438" lon="0.53959">
        <ele>14</ele>
        <time>2016-05-08T09:04:15Z</time>
      </trkpt>
      <trkpt lat="44.81444" lon="0.53968">
        <ele>16</ele>
        <time>2016-05-08T09:04:23Z</time>
      </trkpt>
      <trkpt lat="44.8145" lon="0.53974">
        <ele>15</ele>
        <time>2016-05-08T09:04:29Z</time>
      </trkpt>
      <trkpt lat="44.81457" lon="0.53981">
        <ele>15</ele>
        <time>2016-05-08T09:04:36Z</time>
      </trkpt>
      <trkpt lat="44.81464" lon="0.53987">
        <ele>16</ele>
        <time>2016-05-08T09:04:42Z</time>
      </trkpt>
      <trkpt lat="44.8147" lon="0.53994">
        <ele>17</ele>
        <time>2016-05-08T09:04:48Z</time>
      </trkpt>
      <trkpt lat="44.81477" lon="0.54001">
        <ele>18</ele>
        <time>2016-05-08T09:04:54Z</time>
      </trkpt>
      <trkpt lat="44.81482" lon="0.5401">
        <ele>18</ele>
        <time>2016-05-08T09:05:01Z</time>
      </trkpt>
      <trkpt lat="44.81489" lon="0.54018">
        <ele>19</ele>
        <time>2016-05-08T09:05:07Z</time>
      </trkpt>
      <trkpt lat="44.81495" lon="0.54027">
        <ele>21</ele>
        <time>2016-05-08T09:05:14Z</time>
      </trkpt>
      <trkpt lat="44.81502" lon="0.54034">
        <ele>20</ele>
        <time>2016-05-08T09:05:21Z</time>
      </trkpt>
      <trkpt lat="44.81509" lon="0.54042">
        <ele>19</ele>
        <time>2016-05-08T09:05:28Z</time>
      </trkpt>
      <trkpt lat="44.81515" lon="0.5405">
        <ele>18</ele>
        <time>2016-05-08T09:05:35Z</time>
      </trkpt>
      <trkpt lat="44.81521" lon="0.54058">
        <ele>19</ele>
        <time>2016-05-08T09:05:42Z</time>
      </trkpt>
      <trkpt lat="44.81528" lon="0.54066">
        <ele>18</ele>
        <time>2016-05-08T09:05:51Z</time>
      </trkpt>
      <trkpt lat="44.81534" lon="0.54073">
        <ele>17</ele>
        <time>2016-05-08T09:05:58Z</time>
      </trkpt>
      <trkpt lat="44.81541" lon="0.54079">
        <ele>15</ele>
        <time>2016-05-08T09:06:05Z</time>
      </trkpt>
      <trkpt lat="44.81549" lon="0.54085">
        <ele>14</ele>
        <time>2016-05-08T09:06:12Z</time>
      </trkpt>
      <trkpt lat="44.81556" lon="0.54091">
        <ele>15</ele>
        <time>2016-05-08T09:06:19Z</time>
      </trkpt>
      <trkpt lat="44.81562" lon="0.54099">
        <ele>16</ele>
        <time>2016-05-08T09:06:26Z</time>
      </trkpt>
      <trkpt lat="44.81569" lon="0.54105">
        <ele>15</ele>
        <time>2016-05-08T09:06:34Z</time>
      </trkpt>
      <trkpt lat="44.81576" lon="0.54112">
        <ele>14</ele>
        <time>2016-05-08T09:06:43Z</time>
      </trkpt>
      <trkpt lat="44.81582" lon="0.54121">
        <ele>15</ele>
        <time>2016-05-08T09:06:52Z</time>
      </trkpt>
      <trkpt lat="44.81589" lon="0.54128">
        <ele>15</ele>
        <time>2016-05-08T09:07:01Z</time>
      </trkpt>
      <trkpt lat="44.81595" lon="0.54135">
        <ele>13</ele>
        <time>2016-05-08T09:07:09Z</time>
      </trkpt>
      <trkpt lat="44.81602" lon="0.54142">
        <ele>13</ele>
        <time>2016-05-08T09:07:16Z</time>
      </trkpt>
      <trkpt lat="44.81609" lon="0.54149">
        <ele>12</ele>
        <time>2016-05-08T09:07:23Z</time>
      </trkpt>
      <trkpt lat="44.81616" lon="0.54157">
        <ele>12</ele>
        <time>2016-05-08T09:07:30Z</time>
      </trkpt>
      <trkpt lat="44.81622" lon="0.54165">
        <ele>12</ele>
        <time>2016-05-08T09:07:37Z</time>
      </trkpt>
      <trkpt lat="44.81627" lon="0.54173">
        <ele>10</ele>
        <time>2016-05-08T09:07:44Z</time>
      </trkpt>
      <trkpt lat="44.81633" lon="0.5418">
        <ele>11</ele>
        <time>2016-05-08T09:07:50Z</time>
      </trkpt>
      <trkpt lat="44.81631" lon="0.54192">
        <ele>12</ele>
        <time>2016-05-08T09:08:01Z</time>
      </trkpt>
      <trkpt lat="44.81622" lon="0.54195">
        <ele>11</ele>
        <time>2016-05-08T09:08:09Z</time>
      </trkpt>
      <trkpt lat="44.81614" lon="0.54196">
        <ele>11</ele>
        <time>2016-05-08T09:08:16Z</time>
      </trkpt>
      <trkpt lat="44.81607" lon="0.54201">
        <ele>15</ele>
        <time>2016-05-08T09:08:20Z</time>
      </trkpt>
      <trkpt lat="44.81599" lon="0.54206">
        <ele>18</ele>
        <time>2016-05-08T09:08:27Z</time>
      </trkpt>
      <trkpt lat="44.81591" lon="0.5421">
        <ele>20</ele>
        <time>2016-05-08T09:08:35Z</time>
      </trkpt>
      <trkpt lat="44.81582" lon="0.54213">
        <ele>21</ele>
        <time>2016-05-08T09:08:43Z</time>
      </trkpt>
      <trkpt lat="44.81574" lon="0.54216">
        <ele>23</ele>
        <time>2016-05-08T09:08:50Z</time>
      </trkpt>
      <trkpt lat="44.81567" lon="0.54222">
        <ele>24</ele>
        <time>2016-05-08T09:09:00Z</time>
      </trkpt>
      <trkpt lat="44.81559" lon="0.54222">
        <ele>23</ele>
        <time>2016-05-08T09:09:07Z</time>
      </trkpt>
      <trkpt lat="44.81551" lon="0.54224">
        <ele>22</ele>
        <time>2016-05-08T09:09:14Z</time>
      </trkpt>
      <trkpt lat="44.81543" lon="0.54228">
        <ele>22</ele>
        <time>2016-05-08T09:09:22Z</time>
      </trkpt>
      <trkpt lat="44.81536" lon="0.54232">
        <ele>22</ele>
        <time>2016-05-08T09:09:28Z</time>
      </trkpt>
      <trkpt lat="44.81527" lon="0.54234">
        <ele>22</ele>
        <time>2016-05-08T09:09:34Z</time>
      </trkpt>
      <trkpt lat="44.8152" lon="0.54239">
        <ele>21</ele>
        <time>2016-05-08T09:09:40Z</time>
      </trkpt>
      <trkpt lat="44.81511" lon="0.54241">
        <ele>20</ele>
        <time>2016-05-08T09:09:48Z</time>
      </trkpt>
      <trkpt lat="44.81503" lon="0.54245">
        <ele>17</ele>
        <time>2016-05-08T09:09:58Z</time>
      </trkpt>
      <trkpt lat="44.81497" lon="0.54253">
        <ele>19</ele>
        <time>2016-05-08T09:10:07Z</time>
      </trkpt>
      <trkpt lat="44.81489" lon="0.5426">
        <ele>20</ele>
        <time>2016-05-08T09:10:17Z</time>
      </trkpt>
      <trkpt lat="44.81481" lon="0.54262">
        <ele>19</ele>
        <time>2016-05-08T09:10:25Z</time>
      </trkpt>
      <trkpt lat="44.81472" lon="0.54264">
        <ele>18</ele>
        <time>2016-05-08T09:10:34Z</time>
      </trkpt>
      <trkpt lat="44.81465" lon="0.54264">
        <ele>18</ele>
        <time>2016-05-08T09:10:39Z</time>
      </trkpt>
      <trkpt lat="44.81456" lon="0.54265">
        <ele>16</ele>
        <time>2016-05-08T09:10:44Z</time>
      </trkpt>
      <trkpt lat="44.81448" lon="0.54266">
        <ele>20</ele>
        <time>2016-05-08T09:10:51Z</time>
      </trkpt>
      <trkpt lat="44.8144" lon="0.54271">
        <ele>22</ele>
        <time>2016-05-08T09:10:57Z</time>
      </trkpt>
      <trkpt lat="44.81432" lon="0.54274">
        <ele>24</ele>
        <time>2016-05-08T09:11:03Z</time>
      </trkpt>
      <trkpt lat="44.81425" lon="0.54281">
        <ele>27</ele>
        <time>2016-05-08T09:11:07Z</time>
      </trkpt>
      <trkpt lat="44.81417" lon="0.54286">
        <ele>27</ele>
        <time>2016-05-08T09:11:12Z</time>
      </trkpt>
      <trkpt lat="44.8141" lon="0.54291">
        <ele>28</ele>
        <time>2016-05-08T09:11:17Z</time>
      </trkpt>
      <trkpt lat="44.81402" lon="0.54295">
        <ele>28</ele>
        <time>2016-05-08T09:11:23Z</time>
      </trkpt>
      <trkpt lat="44.81395" lon="0.54298">
        <ele>28</ele>
        <time>2016-05-08T09:11:29Z</time>
      </trkpt>
      <trkpt lat="44.81387" lon="0.54304">
        <ele>28</ele>
        <time>2016-05-08T09:11:35Z</time>
      </trkpt>
      <trkpt lat="44.8138" lon="0.54309">
        <ele>28</ele>
        <time>2016-05-08T09:11:41Z</time>
      </trkpt>
      <trkpt lat="44.81373" lon="0.54313">
        <ele>28</ele>
        <time>2016-05-08T09:11:47Z</time>
      </trkpt>
      <trkpt lat="44.81366" lon="0.54318">
        <ele>27</ele>
        <time>2016-05-08T09:11:53Z</time>
      </trkpt>
      <trkpt lat="44.81358" lon="0.54323">
        <ele>24</ele>
        <time>2016-05-08T09:12:02Z</time>
      </trkpt>
      <trkpt lat="44.8135" lon="0.54328">
        <ele>25</ele>
        <time>2016-05-08T09:12:08Z</time>
      </trkpt>
      <trkpt lat="44.81343" lon="0.54334">
        <ele>23</ele>
        <time>2016-05-08T09:12:16Z</time>
      </trkpt>
      <trkpt lat="44.81336" lon="0.54339">
        <ele>25</ele>
        <time>2016-05-08T09:12:22Z</time>
      </trkpt>
      <trkpt lat="44.81329" lon="0.54343">
        <ele>27</ele>
        <time>2016-05-08T09:12:27Z</time>
      </trkpt>
      <trkpt lat="44.81322" lon="0.54347">
        <ele>30</ele>
        <time>2016-05-08T09:12:32Z</time>
      </trkpt>
      <trkpt lat="44.81314" lon="0.54353">
        <ele>31</ele>
        <time>2016-05-08T09:12:38Z</time>
      </trkpt>
      <trkpt lat="44.81308" lon="0.54359">
        <ele>32</ele>
        <time>2016-05-08T09:12:44Z</time>
      </trkpt>
      <trkpt lat="44.81301" lon="0.54365">
        <ele>33</ele>
        <time>2016-05-08T09:12:50Z</time>
      </trkpt>
      <trkpt lat="44.81293" lon="0.54371">
        <ele>33</ele>
        <time>2016-05-08T09:12:58Z</time>
      </trkpt>
      <trkpt lat="44.81286" lon="0.54378">
        <ele>31</ele>
        <time>2016-05-08T09:13:08Z</time>
      </trkpt>
      <trkpt lat="44.81278" lon="0.54382">
        <ele>29</ele>
        <time>2016-05-08T09:13:17Z</time>
      </trkpt>
      <trkpt lat="44.81269" lon="0.54378">
        <ele>33</ele>
        <time>2016-05-08T09:13:25Z</time>
      </trkpt>
      <trkpt lat="44.81262" lon="0.54373">
        <ele>36</ele>
        <time>2016-05-08T09:13:31Z</time>
      </trkpt>
      <trkpt lat="44.81254" lon="0.54368">
        <ele>37</ele>
        <time>2016-05-08T09:13:38Z</time>
      </trkpt>
      <trkpt lat="44.81246" lon="0.54361">
        <ele>39</ele>
        <time>2016-05-08T09:13:45Z</time>
      </trkpt>
      <trkpt lat="44.81239" lon="0.54356">
        <ele>38</ele>
        <time>2016-05-08T09:13:51Z</time>
      </trkpt>
      <trkpt lat="44.81232" lon="0.54351">
        <ele>40</ele>
        <time>2016-05-08T09:13:58Z</time>
      </trkpt>
      <trkpt lat="44.81225" lon="0.54345">
        <ele>44</ele>
        <time>2016-05-08T09:14:05Z</time>
      </trkpt>
      <trkpt lat="44.81219" lon="0.54338">
        <ele>48</ele>
        <time>2016-05-08T09:14:12Z</time>
      </trkpt>
      <trkpt lat="44.81212" lon="0.54331">
        <ele>49</ele>
        <time>2016-05-08T09:14:20Z</time>
      </trkpt>
      <trkpt lat="44.81204" lon="0.54329">
        <ele>49</ele>
        <time>2016-05-08T09:14:27Z</time>
      </trkpt>
      <trkpt lat="44.81195" lon="0.54332">
        <ele>46</ele>
        <time>2016-05-08T09:14:33Z</time>
      </trkpt>
      <trkpt lat="44.81187" lon="0.54334">
        <ele>47</ele>
        <time>2016-05-08T09:14:39Z</time>
      </trkpt>
      <trkpt lat="44.81179" lon="0.54332">
        <ele>47</ele>
        <time>2016-05-08T09:14:45Z</time>
      </trkpt>
      <trkpt lat="44.81171" lon="0.54328">
        <ele>46</ele>
        <time>2016-05-08T09:14:52Z</time>
      </trkpt>
      <trkpt lat="44.81163" lon="0.54323">
        <ele>47</ele>
        <time>2016-05-08T09:14:59Z</time>
      </trkpt>
      <trkpt lat="44.81157" lon="0.54315">
        <ele>40</ele>
        <time>2016-05-08T09:15:06Z</time>
      </trkpt>
      <trkpt lat="44.8115" lon="0.5431">
        <ele>38</ele>
        <time>2016-05-08T09:15:12Z</time>
      </trkpt>
      <trkpt lat="44.81143" lon="0.54303">
        <ele>36</ele>
        <time>2016-05-08T09:15:18Z</time>
      </trkpt>
      <trkpt lat="44.81135" lon="0.54299">
        <ele>37</ele>
        <time>2016-05-08T09:15:25Z</time>
      </trkpt>
      <trkpt lat="44.81128" lon="0.54294">
        <ele>38</ele>
        <time>2016-05-08T09:15:31Z</time>
      </trkpt>
      <trkpt lat="44.8112" lon="0.54288">
        <ele>37</ele>
        <time>2016-05-08T09:15:37Z</time>
      </trkpt>
      <trkpt lat="44.81113" lon="0.54283">
        <ele>37</ele>
        <time>2016-05-08T09:15:43Z</time>
      </trkpt>
      <trkpt lat="44.81106" lon="0.54275">
        <ele>37</ele>
        <time>2016-05-08T09:15:50Z</time>
      </trkpt>
      <trkpt lat="44.81099" lon="0.54271">
        <ele>38</ele>
        <time>2016-05-08T09:15:57Z</time>
      </trkpt>
      <trkpt lat="44.81091" lon="0.54266">
        <ele>41</ele>
        <time>2016-05-08T09:16:03Z</time>
      </trkpt>
      <trkpt lat="44.81083" lon="0.54261">
        <ele>43</ele>
        <time>2016-05-08T09:16:11Z</time>
      </trkpt>
      <trkpt lat="44.81077" lon="0.54258">
        <ele>43</ele>
        <time>2016-05-08T09:16:15Z</time>
      </trkpt>
      <trkpt lat="44.81069" lon="0.54253">
        <ele>43</ele>
        <time>2016-05-08T09:16:21Z</time>
      </trkpt>
      <trkpt lat="44.81062" lon="0.54247">
        <ele>45</ele>
        <time>2016-05-08T09:16:28Z</time>
      </trkpt>
      <trkpt lat="44.81055" lon="0.54242">
        <ele>47</ele>
        <time>2016-05-08T09:16:35Z</time>
      </trkpt>
      <trkpt lat="44.81047" lon="0.54236">
        <ele>46</ele>
        <time>2016-05-08T09:16:43Z</time>
      </trkpt>
      <trkpt lat="44.8104" lon="0.54231">
        <ele>47</ele>
        <time>2016-05-08T09:16:50Z</time>
      </trkpt>
      <trkpt lat="44.81033" lon="0.54227">
        <ele>48</ele>
        <time>2016-05-08T09:16:56Z</time>
      </trkpt>
      <trkpt lat="44.81028" lon="0.54219">
        <ele>48</ele>
        <time>2016-05-08T09:17:02Z</time>
      </trkpt>
      <trkpt lat="44.81021" lon="0.54213">
        <ele>47</ele>
        <time>2016-05-08T09:17:08Z</time>
      </trkpt>
      <trkpt lat="44.81015" lon="0.54206">
        <ele>48</ele>
        <time>2016-05-08T09:17:14Z</time>
      </trkpt>
      <trkpt lat="44.81007" lon="0.542">
        <ele>49</ele>
        <time>2016-05-08T09:17:21Z</time>
      </trkpt>
      <trkpt lat="44.81" lon="0.54194">
        <ele>47</ele>
        <time>2016-05-08T09:17:28Z</time>
      </trkpt>
      <trkpt lat="44.80992" lon="0.54189">
        <ele>46</ele>
        <time>2016-05-08T09:17:35Z</time>
      </trkpt>
      <trkpt lat="44.80984" lon="0.54183">
        <ele>45</ele>
        <time>2016-05-08T09:17:42Z</time>
      </trkpt>
      <trkpt lat="44.80977" lon="0.54177">
        <ele>44</ele>
        <time>2016-05-08T09:17:48Z</time>
      </trkpt>
      <trkpt lat="44.80969" lon="0.54175">
        <ele>39</ele>
        <time>2016-05-08T09:17:53Z</time>
      </trkpt>
      <trkpt lat="44.8096" lon="0.54176">
        <ele>36</ele>
        <time>2016-05-08T09:18:01Z</time>
      </trkpt>
      <trkpt lat="44.80952" lon="0.54177">
        <ele>30</ele>
        <time>2016-05-08T09:18:08Z</time>
      </trkpt>
      <trkpt lat="44.80944" lon="0.54179">
        <ele>29</ele>
        <time>2016-05-08T09:18:16Z</time>
      </trkpt>
      <trkpt lat="44.80935" lon="0.54178">
        <ele>27</ele>
        <time>2016-05-08T09:18:24Z</time>
      </trkpt>
      <trkpt lat="44.80926" lon="0.54176">
        <ele>26</ele>
        <time>2016-05-08T09:18:32Z</time>
      </trkpt>
      <trkpt lat="44.80919" lon="0.54182">
        <ele>26</ele>
        <time>2016-05-08T09:18:37Z</time>
      </trkpt>
      <trkpt lat="44.80913" lon="0.54189">
        <ele>31</ele>
        <time>2016-05-08T09:18:43Z</time>
      </trkpt>
      <trkpt lat="44.80905" lon="0.54195">
        <ele>34</ele>
        <time>2016-05-08T09:18:50Z</time>
      </trkpt>
      <trkpt lat="44.80898" lon="0.54203">
        <ele>35</ele>
        <time>2016-05-08T09:18:56Z</time>
      </trkpt>
      <trkpt lat="44.80892" lon="0.54212">
        <ele>36</ele>
        <time>2016-05-08T09:19:03Z</time>
      </trkpt>
      <trkpt lat="44.80886" lon="0.5422">
        <ele>40</ele>
        <time>2016-05-08T09:19:08Z</time>
      </trkpt>
      <trkpt lat="44.8088" lon="0.54228">
        <ele>46</ele>
        <time>2016-05-08T09:19:12Z</time>
      </trkpt>
      <trkpt lat="44.80873" lon="0.54235">
        <ele>48</ele>
        <time>2016-05-08T09:19:18Z</time>
      </trkpt>
      <trkpt lat="44.80868" lon="0.54244">
        <ele>42</ele>
        <time>2016-05-08T09:19:27Z</time>
      </trkpt>
      <trkpt lat="44.80863" lon="0.54252">
        <ele>42</ele>
        <time>2016-05-08T09:19:34Z</time>
      </trkpt>
      <trkpt lat="44.80854" lon="0.54256">
        <ele>39</ele>
        <time>2016-05-08T09:19:40Z</time>
      </trkpt>
      <trkpt lat="44.80849" lon="0.54263">
        <ele>38</ele>
        <time>2016-05-08T09:19:47Z</time>
      </trkpt>
      <trkpt lat="44.80842" lon="0.54271">
        <ele>39</ele>
        <time>2016-05-08T09:19:53Z</time>
      </trkpt>
      <trkpt lat="44.80836" lon="0.54276">
        <ele>39</ele>
        <time>2016-05-08T09:19:59Z</time>
      </trkpt>
      <trkpt lat="44.80829" lon="0.54285">
        <ele>39</ele>
        <time>2016-05-08T09:20:06Z</time>
      </trkpt>
      <trkpt lat="44.80822" lon="0.54292">
        <ele>41</ele>
        <time>2016-05-08T09:20:12Z</time>
      </trkpt>
      <trkpt lat="44.80814" lon="0.54296">
        <ele>42</ele>
        <time>2016-05-08T09:20:18Z</time>
      </trkpt>
      <trkpt lat="44.80805" lon="0.54298">
        <ele>43</ele>
        <time>2016-05-08T09:20:26Z</time>
      </trkpt>
      <trkpt lat="44.80797" lon="0.54298">
        <ele>46</ele>
        <time>2016-05-08T09:20:32Z</time>
      </trkpt>
      <trkpt lat="44.80789" lon="0.54298">
        <ele>48</ele>
        <time>2016-05-08T09:20:38Z</time>
      </trkpt>
      <trkpt lat="44.80781" lon="0.54296">
        <ele>49</ele>
        <time>2016-05-08T09:20:45Z</time>
      </trkpt>
      <trkpt lat="44.80772" lon="0.54294">
        <ele>48</ele>
        <time>2016-05-08T09:20:52Z</time>
      </trkpt>
      <trkpt lat="44.80763" lon="0.54293">
        <ele>50</ele>
        <time>2016-05-08T09:21:00Z</time>
      </trkpt>
      <trkpt lat="44.80756" lon="0.54292">
        <ele>53</ele>
        <time>2016-05-08T09:21:06Z</time>
      </trkpt>
      <trkpt lat="44.80748" lon="0.54288">
        <ele>54</ele>
        <time>2016-05-08T09:21:11Z</time>
      </trkpt>
      <trkpt lat="44.8074" lon="0.54286">
        <ele>56</ele>
        <time>2016-05-08T09:21:17Z</time>
      </trkpt>
      <trkpt lat="44.80731" lon="0.54283">
        <ele>57</ele>
        <time>2016-05-08T09:21:23Z</time>
      </trkpt>
      <trkpt lat="44.80723" lon="0.54279">
        <ele>56</ele>
        <time>2016-05-08T09:21:31Z</time>
      </trkpt>
      <trkpt lat="44.80715" lon="0.54276">
        <ele>55</ele>
        <time>2016-05-08T09:21:39Z</time>
      </trkpt>
      <trkpt lat="44.80706" lon="0.54276">
        <ele>56</ele>
        <time>2016-05-08T09:21:46Z</time>
      </trkpt>
      <trkpt lat="44.80699" lon="0.54275">
        <ele>56</ele>
        <time>2016-05-08T09:21:52Z</time>
      </trkpt>
      <trkpt lat="44.8069" lon="0.54273">
        <ele>56</ele>
        <time>2016-05-08T09:21:59Z</time>
      </trkpt>
      <trkpt lat="44.80682" lon="0.54269">
        <ele>57</ele>
        <time>2016-05-08T09:22:06Z</time>
      </trkpt>
      <trkpt lat="44.80674" lon="0.54266">
        <ele>56</ele>
        <time>2016-05-08T09:22:14Z</time>
      </trkpt>
      <trkpt lat="44.80667" lon="0.54273">
        <ele>52</ele>
        <time>2016-05-08T09:22:26Z</time>
      </trkpt>
      <trkpt lat="44.80661" lon="0.54282">
        <ele>50</ele>
        <time>2016-05-08T09:22:35Z</time>
      </trkpt>
      <trkpt lat="44.80655" lon="0.54291">
        <ele>48</ele>
        <time>2016-05-08T09:22:43Z</time>
      </trkpt>
      <trkpt lat="44.80648" lon="0.54298">
        <ele>45</ele>
        <time>2016-05-08T09:22:52Z</time>
      </trkpt>
      <trkpt lat="44.80644" lon="0.54308">
        <ele>46</ele>
        <time>2016-05-08T09:22:58Z</time>
      </trkpt>
      <trkpt lat="44.80638" lon="0.54318">
        <ele>46</ele>
        <time>2016-05-08T09:23:06Z</time>
      </trkpt>
      <trkpt lat="44.80631" lon="0.54324">
        <ele>46</ele>
        <time>2016-05-08T09:23:12Z</time>
      </trkpt>
      <trkpt lat="44.80625" lon="0.54333">
        <ele>46</ele>
        <time>2016-05-08T09:23:17Z</time>
      </trkpt>
      <trkpt lat="44.8062" lon="0.54343">
        <ele>48</ele>
        <time>2016-05-08T09:23:21Z</time>
      </trkpt>
      <trkpt lat="44.80614" lon="0.54352">
        <ele>52</ele>
        <time>2016-05-08T09:23:27Z</time>
      </trkpt>
      <trkpt lat="44.80609" lon="0.54361">
        <ele>49</ele>
        <time>2016-05-08T09:23:35Z</time>
      </trkpt>
      <trkpt lat="44.80603" lon="0.54371">
        <ele>49</ele>
        <time>2016-05-08T09:23:40Z</time>
      </trkpt>
      <trkpt lat="44.80597" lon="0.54379">
        <ele>47</ele>
        <time>2016-05-08T09:23:49Z</time>
      </trkpt>
      <trkpt lat="44.80591" lon="0.54387">
        <ele>44</ele>
        <time>2016-05-08T09:23:58Z</time>
      </trkpt>
      <trkpt lat="44.80593" lon="0.54399">
        <ele>43</ele>
        <time>2016-05-08T09:24:04Z</time>
      </trkpt>
      <trkpt lat="44.8059" lon="0.5441">
        <ele>44</ele>
        <time>2016-05-08T09:24:10Z</time>
      </trkpt>
      <trkpt lat="44.8059" lon="0.54422">
        <ele>45</ele>
        <time>2016-05-08T09:24:15Z</time>
      </trkpt>
      <trkpt lat="44.80589" lon="0.54434">
        <ele>47</ele>
        <time>2016-05-08T09:24:22Z</time>
      </trkpt>
      <trkpt lat="44.80586" lon="0.54445">
        <ele>44</ele>
        <time>2016-05-08T09:24:28Z</time>
      </trkpt>
      <trkpt lat="44.80585" lon="0.54455">
        <ele>41</ele>
        <time>2016-05-08T09:24:37Z</time>
      </trkpt>
      <trkpt lat="44.80584" lon="0.54467">
        <ele>40</ele>
        <time>2016-05-08T09:24:43Z</time>
      </trkpt>
      <trkpt lat="44.80584" lon="0.54479">
        <ele>40</ele>
        <time>2016-05-08T09:24:51Z</time>
      </trkpt>
      <trkpt lat="44.80581" lon="0.54489">
        <ele>41</ele>
        <time>2016-05-08T09:24:57Z</time>
      </trkpt>
      <trkpt lat="44.80585" lon="0.545">
        <ele>40</ele>
        <time>2016-05-08T09:25:02Z</time>
      </trkpt>
      <trkpt lat="44.80583" lon="0.54512">
        <ele>43</ele>
        <time>2016-05-08T09:25:06Z</time>
      </trkpt>
      <trkpt lat="44.8058" lon="0.54523">
        <ele>38</ele>
        <time>2016-05-08T09:25:17Z</time>
      </trkpt>
      <trkpt lat="44.80579" lon="0.54535">
        <ele>38</ele>
        <time>2016-05-08T09:25:24Z</time>
      </trkpt>
      <trkpt lat="44.80576" lon="0.54545">
        <ele>38</ele>
        <time>2016-05-08T09:25:32Z</time>
      </trkpt>
      <trkpt lat="44.80577" lon="0.54557">
        <ele>40</ele>
        <time>2016-05-08T09:25:37Z</time>
      </trkpt>
      <trkpt lat="44.80579" lon="0.54567">
        <ele>38</ele>
        <time>2016-05-08T09:25:42Z</time>
      </trkpt>
      <trkpt lat="44.80581" lon="0.54579">
        <ele>39</ele>
        <time>2016-05-08T09:25:46Z</time>
      </trkpt>
      <trkpt lat="44.80583" lon="0.54591">
        <ele>39</ele>
        <time>2016-05-08T09:25:52Z</time>
      </trkpt>
      <trkpt lat="44.80587" lon="0.54602">
        <ele>37</ele>
        <time>2016-05-08T09:25:59Z</time>
      </trkpt>
      <trkpt lat="44.80589" lon="0.54614">
        <ele>36</ele>
        <time>2016-05-08T09:26:06Z</time>
      </trkpt>
      <trkpt lat="44.80592" lon="0.54625">
        <ele>36</ele>
        <time>2016-05-08T09:26:12Z</time>
      </trkpt>
      <trkpt lat="44.80594" lon="0.54637">
        <ele>35</ele>
        <time>2016-05-08T09:26:19Z</time>
      </trkpt>
      <trkpt lat="44.80597" lon="0.54647">
        <ele>33</ele>
        <time>2016-05-08T09:26:26Z</time>
      </trkpt>
      <trkpt lat="44.80597" lon="0.54659">
        <ele>33</ele>
        <time>2016-05-08T09:26:33Z</time>
      </trkpt>
      <trkpt lat="44.80599" lon="0.54671">
        <ele>33</ele>
        <time>2016-05-08T09:26:39Z</time>
      </trkpt>
      <trkpt lat="44.80601" lon="0.54682">
        <ele>31</ele>
        <time>2016-05-08T09:26:45Z</time>
      </trkpt>
      <trkpt lat="44.80603" lon="0.54695">
        <ele>35</ele>
        <time>2016-05-08T09:26:50Z</time>
      </trkpt>
      <trkpt lat="44.80598" lon="0.54705">
        <ele>39</ele>
        <time>2016-05-08T09:26:59Z</time>
      </trkpt>
      <trkpt lat="44.80591" lon="0.54711">
        <ele>41</ele>
        <time>2016-05-08T09:27:08Z</time>
      </trkpt>
      <trkpt lat="44.80583" lon="0.54717">
        <ele>41</ele>
        <time>2016-05-08T09:27:15Z</time>
      </trkpt>
      <trkpt lat="44.80575" lon="0.54719">
        <ele>40</ele>
        <time>2016-05-08T09:27:21Z</time>
      </trkpt>
      <trkpt lat="44.80567" lon="0.54723">
        <ele>41</ele>
        <time>2016-05-08T09:27:28Z</time>
      </trkpt>
      <trkpt lat="44.80559" lon="0.54724">
        <ele>40</ele>
        <time>2016-05-08T09:27:34Z</time>
      </trkpt>
      <trkpt lat="44.80551" lon="0.54726">
        <ele>38</ele>
        <time>2016-05-08T09:27:43Z</time>
      </trkpt>
      <trkpt lat="44.80543" lon="0.54727">
        <ele>37</ele>
        <time>2016-05-08T09:27:49Z</time>
      </trkpt>
      <trkpt lat="44.80535" lon="0.54727">
        <ele>39</ele>
        <time>2016-05-08T09:27:55Z</time>
      </trkpt>
      <trkpt lat="44.80527" lon="0.54727">
        <ele>41</ele>
        <time>2016-05-08T09:28:00Z</time>
      </trkpt>
      <trkpt lat="44.80518" lon="0.54724">
        <ele>43</ele>
        <time>2016-05-08T09:28:08Z</time>
      </trkpt>
      <trkpt lat="44.8051" lon="0.5472">
        <ele>43</ele>
        <time>2016-05-08T09:28:15Z</time>
      </trkpt>
      <trkpt lat="44.80503" lon="0.54714">
        <ele>45</ele>
        <time>2016-05-08T09:28:24Z</time>
      </trkpt>
      <trkpt lat="44.80495" lon="0.54712">
        <ele>40</ele>
        <time>2016-05-08T09:28:33Z</time>
      </trkpt>
      <trkpt lat="44.80488" lon="0.5471">
        <ele>40</ele>
        <time>2016-05-08T09:28:38Z</time>
      </trkpt>
      <trkpt lat="44.80487" lon="0.54698">
        <ele>46</ele>
        <time>2016-05-08T09:28:56Z</time>
      </trkpt>
      <trkpt lat="44.80492" lon="0.54689">
        <ele>43</ele>
        <time>2016-05-08T09:29:06Z</time>
      </trkpt>
      <trkpt lat="44.80499" lon="0.54683">
        <ele>42</ele>
        <time>2016-05-08T09:29:12Z</time>
      </trkpt>
      <trkpt lat="44.80504" lon="0.54673">
        <ele>40</ele>
        <time>2016-05-08T09:29:18Z</time>
      </trkpt>
      <trkpt lat="44.80505" lon="0.54661">
        <ele>37</ele>
        <time>2016-05-08T09:29:26Z</time>
      </trkpt>
      <trkpt lat="44.80506" lon="0.54655">
        <ele>36</ele>
        <time>2016-05-08T09:30:23Z</time>
      </trkpt>
      <trkpt lat="44.80509" lon="0.54643">
        <ele>52</ele>
        <time>2016-05-08T09:30:27Z</time>
      </trkpt>
      <trkpt lat="44.80505" lon="0.54653">
        <ele>57</ele>
        <time>2016-05-08T09:36:11Z</time>
      </trkpt>
      <trkpt lat="44.80498" lon="0.54658">
        <ele>55</ele>
        <time>2016-05-08T09:36:22Z</time>
      </trkpt>
      <trkpt lat="44.80491" lon="0.54664">
        <ele>51</ele>
        <time>2016-05-08T09:36:31Z</time>
      </trkpt>
      <trkpt lat="44.80485" lon="0.54674">
        <ele>49</ele>
        <time>2016-05-08T09:36:41Z</time>
      </trkpt>
      <trkpt lat="44.80483" lon="0.54685">
        <ele>48</ele>
        <time>2016-05-08T09:36:50Z</time>
      </trkpt>
      <trkpt lat="44.8048" lon="0.54696">
        <ele>48</ele>
        <time>2016-05-08T09:38:49Z</time>
      </trkpt>
      <trkpt lat="44.80483" lon="0.54709">
        <ele>46</ele>
        <time>2016-05-08T09:38:54Z</time>
      </trkpt>
      <trkpt lat="44.80478" lon="0.54702">
        <ele>46</ele>
        <time>2016-05-08T09:43:33Z</time>
      </trkpt>
      <trkpt lat="44.80479" lon="0.54701">
        <ele>37</ele>
        <time>2016-05-08T09:47:06Z</time>
      </trkpt>
      <trkpt lat="44.80478" lon="0.54714">
        <ele>52</ele>
        <time>2016-05-08T09:47:10Z</time>
      </trkpt>
      <trkpt lat="44.80474" lon="0.54725">
        <ele>47</ele>
        <time>2016-05-08T09:48:35Z</time>
      </trkpt>
      <trkpt lat="44.80466" lon="0.54731">
        <ele>40</ele>
        <time>2016-05-08T09:48:48Z</time>
      </trkpt>
      <trkpt lat="44.80458" lon="0.54735">
        <ele>36</ele>
        <time>2016-05-08T09:48:56Z</time>
      </trkpt>
      <trkpt lat="44.80449" lon="0.54739">
        <ele>36</ele>
        <time>2016-05-08T09:49:00Z</time>
      </trkpt>
      <trkpt lat="44.80442" lon="0.54743">
        <ele>31</ele>
        <time>2016-05-08T09:49:09Z</time>
      </trkpt>
      <trkpt lat="44.80434" lon="0.54747">
        <ele>28</ele>
        <time>2016-05-08T09:49:16Z</time>
      </trkpt>
      <trkpt lat="44.80427" lon="0.54755">
        <ele>26</ele>
        <time>2016-05-08T09:49:23Z</time>
      </trkpt>
      <trkpt lat="44.80419" lon="0.54759">
        <ele>26</ele>
        <time>2016-05-08T09:49:29Z</time>
      </trkpt>
      <trkpt lat="44.80408" lon="0.54765">
        <ele>32</ele>
        <time>2016-05-08T09:49:34Z</time>
      </trkpt>
      <trkpt lat="44.80407" lon="0.54776">
        <ele>33</ele>
        <time>2016-05-08T09:49:41Z</time>
      </trkpt>
      <trkpt lat="44.80405" lon="0.54788">
        <ele>33</ele>
        <time>2016-05-08T09:49:48Z</time>
      </trkpt>
      <trkpt lat="44.80406" lon="0.548">
        <ele>33</ele>
        <time>2016-05-08T09:49:59Z</time>
      </trkpt>
      <trkpt lat="44.80408" lon="0.54811">
        <ele>29</ele>
        <time>2016-05-08T09:50:10Z</time>
      </trkpt>
      <trkpt lat="44.80408" lon="0.54822">
        <ele>30</ele>
        <time>2016-05-08T09:50:17Z</time>
      </trkpt>
      <trkpt lat="44.80406" lon="0.54834">
        <ele>32</ele>
        <time>2016-05-08T09:50:24Z</time>
      </trkpt>
      <trkpt lat="44.80404" lon="0.54845">
        <ele>33</ele>
        <time>2016-05-08T09:50:29Z</time>
      </trkpt>
      <trkpt lat="44.80405" lon="0.54856">
        <ele>34</ele>
        <time>2016-05-08T09:50:34Z</time>
      </trkpt>
      <trkpt lat="44.80405" lon="0.54869">
        <ele>34</ele>
        <time>2016-05-08T09:50:42Z</time>
      </trkpt>
      <trkpt lat="44.80406" lon="0.5488">
        <ele>34</ele>
        <time>2016-05-08T09:50:49Z</time>
      </trkpt>
      <trkpt lat="44.80407" lon="0.54893">
        <ele>32</ele>
        <time>2016-05-08T09:50:56Z</time>
      </trkpt>
      <trkpt lat="44.80407" lon="0.54905">
        <ele>30</ele>
        <time>2016-05-08T09:51:03Z</time>
      </trkpt>
      <trkpt lat="44.80408" lon="0.54918">
        <ele>30</ele>
        <time>2016-05-08T09:51:10Z</time>
      </trkpt>
      <trkpt lat="44.8041" lon="0.5493">
        <ele>29</ele>
        <time>2016-05-08T09:51:16Z</time>
      </trkpt>
      <trkpt lat="44.8041" lon="0.54942">
        <ele>25</ele>
        <time>2016-05-08T09:51:24Z</time>
      </trkpt>
      <trkpt lat="44.80409" lon="0.54954">
        <ele>23</ele>
        <time>2016-05-08T09:51:31Z</time>
      </trkpt>
      <trkpt lat="44.80404" lon="0.54964">
        <ele>17</ele>
        <time>2016-05-08T09:51:42Z</time>
      </trkpt>
      <trkpt lat="44.80397" lon="0.54969">
        <ele>14</ele>
        <time>2016-05-08T09:51:52Z</time>
      </trkpt>
      <trkpt lat="44.80389" lon="0.54974">
        <ele>15</ele>
        <time>2016-05-08T09:52:00Z</time>
      </trkpt>
      <trkpt lat="44.80384" lon="0.54984">
        <ele>11</ele>
        <time>2016-05-08T09:52:08Z</time>
      </trkpt>
      <trkpt lat="44.80378" lon="0.54988">
        <ele>10</ele>
        <time>2016-05-08T09:52:13Z</time>
      </trkpt>
      <trkpt lat="44.80371" lon="0.54996">
        <ele>8</ele>
        <time>2016-05-08T09:52:20Z</time>
      </trkpt>
      <trkpt lat="44.80367" lon="0.55006">
        <ele>8</ele>
        <time>2016-05-08T09:52:27Z</time>
      </trkpt>
      <trkpt lat="44.80364" lon="0.55018">
        <ele>7</ele>
        <time>2016-05-08T09:52:35Z</time>
      </trkpt>
      <trkpt lat="44.80359" lon="0.55027">
        <ele>7</ele>
        <time>2016-05-08T09:52:40Z</time>
      </trkpt>
      <trkpt lat="44.80351" lon="0.55036">
        <ele>9</ele>
        <time>2016-05-08T09:52:45Z</time>
      </trkpt>
      <trkpt lat="44.80348" lon="0.55047">
        <ele>9</ele>
        <time>2016-05-08T09:52:51Z</time>
      </trkpt>
      <trkpt lat="44.80344" lon="0.55057">
        <ele>9</ele>
        <time>2016-05-08T09:52:57Z</time>
      </trkpt>
      <trkpt lat="44.80341" lon="0.55067">
        <ele>8</ele>
        <time>2016-05-08T09:53:02Z</time>
      </trkpt>
      <trkpt lat="44.80336" lon="0.55076">
        <ele>12</ele>
        <time>2016-05-08T09:53:07Z</time>
      </trkpt>
      <trkpt lat="44.8033" lon="0.55083">
        <ele>15</ele>
        <time>2016-05-08T09:53:12Z</time>
      </trkpt>
      <trkpt lat="44.80326" lon="0.55093">
        <ele>16</ele>
        <time>2016-05-08T09:53:18Z</time>
      </trkpt>
      <trkpt lat="44.8032" lon="0.55102">
        <ele>20</ele>
        <time>2016-05-08T09:53:22Z</time>
      </trkpt>
      <trkpt lat="44.80314" lon="0.5511">
        <ele>22</ele>
        <time>2016-05-08T09:53:28Z</time>
      </trkpt>
      <trkpt lat="44.80309" lon="0.55119">
        <ele>24</ele>
        <time>2016-05-08T09:53:34Z</time>
      </trkpt>
      <trkpt lat="44.80304" lon="0.55128">
        <ele>25</ele>
        <time>2016-05-08T09:53:40Z</time>
      </trkpt>
      <trkpt lat="44.803" lon="0.55137">
        <ele>23</ele>
        <time>2016-05-08T09:53:48Z</time>
      </trkpt>
      <trkpt lat="44.80294" lon="0.55146">
        <ele>23</ele>
        <time>2016-05-08T09:53:54Z</time>
      </trkpt>
      <trkpt lat="44.8029" lon="0.55157">
        <ele>21</ele>
        <time>2016-05-08T09:54:01Z</time>
      </trkpt>
      <trkpt lat="44.80286" lon="0.55165">
        <ele>20</ele>
        <time>2016-05-08T09:54:06Z</time>
      </trkpt>
      <trkpt lat="44.80282" lon="0.55176">
        <ele>18</ele>
        <time>2016-05-08T09:54:12Z</time>
      </trkpt>
      <trkpt lat="44.80281" lon="0.55188">
        <ele>19</ele>
        <time>2016-05-08T09:54:19Z</time>
      </trkpt>
      <trkpt lat="44.80277" lon="0.55198">
        <ele>18</ele>
        <time>2016-05-08T09:54:26Z</time>
      </trkpt>
      <trkpt lat="44.8027" lon="0.55206">
        <ele>19</ele>
        <time>2016-05-08T09:54:32Z</time>
      </trkpt>
      <trkpt lat="44.80265" lon="0.55216">
        <ele>22</ele>
        <time>2016-05-08T09:54:38Z</time>
      </trkpt>
      <trkpt lat="44.8026" lon="0.55226">
        <ele>20</ele>
        <time>2016-05-08T09:54:45Z</time>
      </trkpt>
      <trkpt lat="44.80255" lon="0.55235">
        <ele>17</ele>
        <time>2016-05-08T09:54:51Z</time>
      </trkpt>
      <trkpt lat="44.80252" lon="0.55247">
        <ele>14</ele>
        <time>2016-05-08T09:54:57Z</time>
      </trkpt>
      <trkpt lat="44.80248" lon="0.55255">
        <ele>13</ele>
        <time>2016-05-08T09:55:01Z</time>
      </trkpt>
      <trkpt lat="44.80243" lon="0.55263">
        <ele>16</ele>
        <time>2016-05-08T09:55:05Z</time>
      </trkpt>
      <trkpt lat="44.80237" lon="0.55273">
        <ele>18</ele>
        <time>2016-05-08T09:55:13Z</time>
      </trkpt>
      <trkpt lat="44.80232" lon="0.55281">
        <ele>18</ele>
        <time>2016-05-08T09:55:21Z</time>
      </trkpt>
      <trkpt lat="44.80228" lon="0.55291">
        <ele>15</ele>
        <time>2016-05-08T09:55:28Z</time>
      </trkpt>
      <trkpt lat="44.80223" lon="0.55301">
        <ele>11</ele>
        <time>2016-05-08T09:55:34Z</time>
      </trkpt>
      <trkpt lat="44.80218" lon="0.55309">
        <ele>10</ele>
        <time>2016-05-08T09:55:39Z</time>
      </trkpt>
      <trkpt lat="44.80213" lon="0.55317">
        <ele>12</ele>
        <time>2016-05-08T09:55:44Z</time>
      </trkpt>
      <trkpt lat="44.80203" lon="0.55324">
        <ele>17</ele>
        <time>2016-05-08T09:55:49Z</time>
      </trkpt>
      <trkpt lat="44.80197" lon="0.55332">
        <ele>17</ele>
        <time>2016-05-08T09:55:55Z</time>
      </trkpt>
      <trkpt lat="44.80189" lon="0.55338">
        <ele>18</ele>
        <time>2016-05-08T09:56:01Z</time>
      </trkpt>
      <trkpt lat="44.80183" lon="0.55346">
        <ele>15</ele>
        <time>2016-05-08T09:56:10Z</time>
      </trkpt>
      <trkpt lat="44.80176" lon="0.55351">
        <ele>11</ele>
        <time>2016-05-08T09:56:16Z</time>
      </trkpt>
      <trkpt lat="44.80169" lon="0.55356">
        <ele>10</ele>
        <time>2016-05-08T09:56:22Z</time>
      </trkpt>
      <trkpt lat="44.80162" lon="0.5536">
        <ele>10</ele>
        <time>2016-05-08T09:56:27Z</time>
      </trkpt>
      <trkpt lat="44.80156" lon="0.55365">
        <ele>11</ele>
        <time>2016-05-08T09:56:32Z</time>
      </trkpt>
      <trkpt lat="44.80147" lon="0.55369">
        <ele>13</ele>
        <time>2016-05-08T09:56:39Z</time>
      </trkpt>
      <trkpt lat="44.8014" lon="0.55373">
        <ele>15</ele>
        <time>2016-05-08T09:56:47Z</time>
      </trkpt>
      <trkpt lat="44.80134" lon="0.5538">
        <ele>7</ele>
        <time>2016-05-08T09:56:57Z</time>
      </trkpt>
      <trkpt lat="44.80126" lon="0.55387">
        <ele>8</ele>
        <time>2016-05-08T09:57:02Z</time>
      </trkpt>
      <trkpt lat="44.80121" lon="0.55394">
        <ele>5</ele>
        <time>2016-05-08T09:57:07Z</time>
      </trkpt>
      <trkpt lat="44.8011" lon="0.55399">
        <ele>10</ele>
        <time>2016-05-08T09:57:11Z</time>
      </trkpt>
      <trkpt lat="44.80102" lon="0.55404">
        <ele>10</ele>
        <time>2016-05-08T09:57:17Z</time>
      </trkpt>
      <trkpt lat="44.80095" lon="0.5541">
        <ele>2</ele>
        <time>2016-05-08T09:57:26Z</time>
      </trkpt>
      <trkpt lat="44.80089" lon="0.55418">
        <ele>-2</ele>
        <time>2016-05-08T09:57:33Z</time>
      </trkpt>
      <trkpt lat="44.80081" lon="0.55424">
        <ele>-3</ele>
        <time>2016-05-08T09:57:40Z</time>
      </trkpt>
      <trkpt lat="44.80076" lon="0.55433">
        <ele>-7</ele>
        <time>2016-05-08T09:57:50Z</time>
      </trkpt>
      <trkpt lat="44.80072" lon="0.55441">
        <ele>-6</ele>
        <time>2016-05-08T09:57:54Z</time>
      </trkpt>
      <trkpt lat="44.80065" lon="0.55449">
        <ele>-6</ele>
        <time>2016-05-08T09:57:59Z</time>
      </trkpt>
      <trkpt lat="44.80059" lon="0.55456">
        <ele>-7</ele>
        <time>2016-05-08T09:58:05Z</time>
      </trkpt>
      <trkpt lat="44.80053" lon="0.55468">
        <ele>-5</ele>
        <time>2016-05-08T09:58:10Z</time>
      </trkpt>
      <trkpt lat="44.80045" lon="0.55471">
        <ele>-5</ele>
        <time>2016-05-08T09:58:15Z</time>
      </trkpt>
      <trkpt lat="44.80035" lon="0.55479">
        <ele>-3</ele>
        <time>2016-05-08T09:58:19Z</time>
      </trkpt>
      <trkpt lat="44.80027" lon="0.55487">
        <ele>-5</ele>
        <time>2016-05-08T09:58:24Z</time>
      </trkpt>
      <trkpt lat="44.8002" lon="0.55494">
        <ele>-6</ele>
        <time>2016-05-08T09:58:29Z</time>
      </trkpt>
      <trkpt lat="44.80013" lon="0.55501">
        <ele>-8</ele>
        <time>2016-05-08T09:58:36Z</time>
      </trkpt>
      <trkpt lat="44.80006" lon="0.55508">
        <ele>-9</ele>
        <time>2016-05-08T09:58:43Z</time>
      </trkpt>
      <trkpt lat="44.80003" lon="0.55519">
        <ele>-13</ele>
        <time>2016-05-08T09:58:56Z</time>
      </trkpt>
      <trkpt lat="44.79999" lon="0.55528">
        <ele>-17</ele>
        <time>2016-05-08T09:59:02Z</time>
      </trkpt>
      <trkpt lat="44.79992" lon="0.55537">
        <ele>-18</ele>
        <time>2016-05-08T09:59:10Z</time>
      </trkpt>
      <trkpt lat="44.79986" lon="0.55544">
        <ele>-15</ele>
        <time>2016-05-08T09:59:17Z</time>
      </trkpt>
      <trkpt lat="44.79979" lon="0.5555">
        <ele>-14</ele>
        <time>2016-05-08T09:59:24Z</time>
      </trkpt>
      <trkpt lat="44.79972" lon="0.55557">
        <ele>-11</ele>
        <time>2016-05-08T09:59:31Z</time>
      </trkpt>
      <trkpt lat="44.79965" lon="0.55563">
        <ele>-6</ele>
        <time>2016-05-08T09:59:36Z</time>
      </trkpt>
      <trkpt lat="44.79957" lon="0.55564">
        <ele>-2</ele>
        <time>2016-05-08T09:59:43Z</time>
      </trkpt>
      <trkpt lat="44.7995" lon="0.55568">
        <ele>55.4</ele>
        <time>2016-05-08T09:59:48Z</time>
      </trkpt>
      <trkpt lat="44.79942" lon="0.5557">
        <ele>56.2</ele>
        <time>2016-05-08T09:59:54Z</time>
      </trkpt>
      <trkpt lat="44.79934" lon="0.55573">
        <ele>3</ele>
        <time>2016-05-08T10:00:04Z</time>
      </trkpt>
      <trkpt lat="44.79925" lon="0.55576">
        <ele>5</ele>
        <time>2016-05-08T10:00:09Z</time>
      </trkpt>
      <trkpt lat="44.79918" lon="0.55583">
        <ele>1</ele>
        <time>2016-05-08T10:00:19Z</time>
      </trkpt>
      <trkpt lat="44.7991" lon="0.55588">
        <ele>3</ele>
        <time>2016-05-08T10:00:26Z</time>
      </trkpt>
      <trkpt lat="44.79903" lon="0.55595">
        <ele>7</ele>
        <time>2016-05-08T10:00:31Z</time>
      </trkpt>
      <trkpt lat="44.79898" lon="0.55605">
        <ele>7</ele>
        <time>2016-05-08T10:00:36Z</time>
      </trkpt>
      <trkpt lat="44.79893" lon="0.55615">
        <ele>9</ele>
        <time>2016-05-08T10:00:43Z</time>
      </trkpt>
      <trkpt lat="44.79886" lon="0.55622">
        <ele>5</ele>
        <time>2016-05-08T10:00:52Z</time>
      </trkpt>
      <trkpt lat="44.7988" lon="0.55625">
        <ele>4</ele>
        <time>2016-05-08T10:00:56Z</time>
      </trkpt>
      <trkpt lat="44.79872" lon="0.55629">
        <ele>-1</ele>
        <time>2016-05-08T10:01:04Z</time>
      </trkpt>
      <trkpt lat="44.79864" lon="0.5564">
        <ele>56</ele>
        <time>2016-05-08T10:01:09Z</time>
      </trkpt>
      <trkpt lat="44.79857" lon="0.55648">
        <ele>55.7</ele>
        <time>2016-05-08T10:01:14Z</time>
      </trkpt>
      <trkpt lat="44.7985" lon="0.55655">
        <ele>1</ele>
        <time>2016-05-08T10:01:20Z</time>
      </trkpt>
      <trkpt lat="44.79842" lon="0.55659">
        <ele>3</ele>
        <time>2016-05-08T10:01:25Z</time>
      </trkpt>
      <trkpt lat="44.79834" lon="0.55665">
        <ele>5</ele>
        <time>2016-05-08T10:01:31Z</time>
      </trkpt>
      <trkpt lat="44.79827" lon="0.55672">
        <ele>1</ele>
        <time>2016-05-08T10:01:44Z</time>
      </trkpt>
      <trkpt lat="44.79822" lon="0.55683">
        <ele>-5</ele>
        <time>2016-05-08T10:01:57Z</time>
      </trkpt>
      <trkpt lat="44.79815" lon="0.5569">
        <ele>-12</ele>
        <time>2016-05-08T10:02:13Z</time>
      </trkpt>
      <trkpt lat="44.79801" lon="0.55701">
        <ele>-10</ele>
        <time>2016-05-08T10:02:18Z</time>
      </trkpt>
      <trkpt lat="44.79793" lon="0.55709">
        <ele>-9</ele>
        <time>2016-05-08T10:02:22Z</time>
      </trkpt>
      <trkpt lat="44.79784" lon="0.55716">
        <ele>-7</ele>
        <time>2016-05-08T10:02:27Z</time>
      </trkpt>
      <trkpt lat="44.79777" lon="0.55721">
        <ele>-5</ele>
        <time>2016-05-08T10:02:32Z</time>
      </trkpt>
      <trkpt lat="44.79769" lon="0.55725">
        <ele>-7</ele>
        <time>2016-05-08T10:02:38Z</time>
      </trkpt>
      <trkpt lat="44.79761" lon="0.55728">
        <ele>-6</ele>
        <time>2016-05-08T10:02:43Z</time>
      </trkpt>
      <trkpt lat="44.79754" lon="0.55733">
        <ele>-2</ele>
        <time>2016-05-08T10:02:48Z</time>
      </trkpt>
      <trkpt lat="44.79749" lon="0.55741">
        <ele>51</ele>
        <time>2016-05-08T10:02:53Z</time>
      </trkpt>
      <trkpt lat="44.79744" lon="0.55751">
        <ele>2</ele>
        <time>2016-05-08T10:03:00Z</time>
      </trkpt>
      <trkpt lat="44.79742" lon="0.55762">
        <ele>3</ele>
        <time>2016-05-08T10:03:06Z</time>
      </trkpt>
      <trkpt lat="44.79738" lon="0.55773">
        <ele>8</ele>
        <time>2016-05-08T10:03:12Z</time>
      </trkpt>
      <trkpt lat="44.79737" lon="0.55784">
        <ele>7</ele>
        <time>2016-05-08T10:03:18Z</time>
      </trkpt>
      <trkpt lat="44.79735" lon="0.55796">
        <ele>4</ele>
        <time>2016-05-08T10:03:24Z</time>
      </trkpt>
      <trkpt lat="44.79733" lon="0.55807">
        <ele>2</ele>
        <time>2016-05-08T10:03:31Z</time>
      </trkpt>
      <trkpt lat="44.7973" lon="0.55818">
        <ele>1</ele>
        <time>2016-05-08T10:03:38Z</time>
      </trkpt>
      <trkpt lat="44.79728" lon="0.55831">
        <ele>49.8</ele>
        <time>2016-05-08T10:03:44Z</time>
      </trkpt>
      <trkpt lat="44.79726" lon="0.55842">
        <ele>49.5</ele>
        <time>2016-05-08T10:03:50Z</time>
      </trkpt>
      <trkpt lat="44.79726" lon="0.55854">
        <ele>49.1</ele>
        <time>2016-05-08T10:03:57Z</time>
      </trkpt>
      <trkpt lat="44.79723" lon="0.55865">
        <ele>2</ele>
        <time>2016-05-08T10:04:02Z</time>
      </trkpt>
      <trkpt lat="44.7972" lon="0.55875">
        <ele>1</ele>
        <time>2016-05-08T10:04:07Z</time>
      </trkpt>
      <trkpt lat="44.79715" lon="0.55883">
        <ele>48.7</ele>
        <time>2016-05-08T10:04:13Z</time>
      </trkpt>
      <trkpt lat="44.79709" lon="0.55893">
        <ele>-1</ele>
        <time>2016-05-08T10:04:19Z</time>
      </trkpt>
      <trkpt lat="44.79704" lon="0.55901">
        <ele>-3</ele>
        <time>2016-05-08T10:04:25Z</time>
      </trkpt>
      <trkpt lat="44.79698" lon="0.5591">
        <ele>-4</ele>
        <time>2016-05-08T10:04:33Z</time>
      </trkpt>
      <trkpt lat="44.79693" lon="0.55918">
        <ele>-7</ele>
        <time>2016-05-08T10:04:40Z</time>
      </trkpt>
      <trkpt lat="44.79688" lon="0.55928">
        <ele>-10</ele>
        <time>2016-05-08T10:04:46Z</time>
      </trkpt>
      <trkpt lat="44.79684" lon="0.55937">
        <ele>-9</ele>
        <time>2016-05-08T10:04:52Z</time>
      </trkpt>
      <trkpt lat="44.79685" lon="0.55949">
        <ele>-10</ele>
        <time>2016-05-08T10:04:57Z</time>
      </trkpt>
      <trkpt lat="44.79685" lon="0.55961">
        <ele>-9</ele>
        <time>2016-05-08T10:05:02Z</time>
      </trkpt>
      <trkpt lat="44.79687" lon="0.55971">
        <ele>-8</ele>
        <time>2016-05-08T10:05:08Z</time>
      </trkpt>
      <trkpt lat="44.79693" lon="0.55979">
        <ele>-7</ele>
        <time>2016-05-08T10:05:15Z</time>
      </trkpt>
      <trkpt lat="44.79698" lon="0.55988">
        <ele>-7</ele>
        <time>2016-05-08T10:05:22Z</time>
      </trkpt>
      <trkpt lat="44.79705" lon="0.55996">
        <ele>-10</ele>
        <time>2016-05-08T10:05:30Z</time>
      </trkpt>
      <trkpt lat="44.79712" lon="0.56004">
        <ele>-11</ele>
        <time>2016-05-08T10:05:39Z</time>
      </trkpt>
      <trkpt lat="44.79719" lon="0.56008">
        <ele>-9</ele>
        <time>2016-05-08T10:05:45Z</time>
      </trkpt>
      <trkpt lat="44.79726" lon="0.56014">
        <ele>-8</ele>
        <time>2016-05-08T10:05:50Z</time>
      </trkpt>
      <trkpt lat="44.79733" lon="0.5602">
        <ele>-9</ele>
        <time>2016-05-08T10:05:58Z</time>
      </trkpt>
      <trkpt lat="44.79738" lon="0.5603">
        <ele>-9</ele>
        <time>2016-05-08T10:06:07Z</time>
      </trkpt>
      <trkpt lat="44.79744" lon="0.56039">
        <ele>-18</ele>
        <time>2016-05-08T10:06:24Z</time>
      </trkpt>
      <trkpt lat="44.79752" lon="0.56041">
        <ele>-18</ele>
        <time>2016-05-08T10:06:30Z</time>
      </trkpt>
      <trkpt lat="44.7976" lon="0.56047">
        <ele>-21</ele>
        <time>2016-05-08T10:06:38Z</time>
      </trkpt>
      <trkpt lat="44.79767" lon="0.56049">
        <ele>-18</ele>
        <time>2016-05-08T10:06:42Z</time>
      </trkpt>
      <trkpt lat="44.79778" lon="0.56052">
        <ele>-11</ele>
        <time>2016-05-08T10:06:47Z</time>
      </trkpt>
      <trkpt lat="44.79785" lon="0.56057">
        <ele>-11</ele>
        <time>2016-05-08T10:06:56Z</time>
      </trkpt>
      <trkpt lat="44.79792" lon="0.56062">
        <ele>-14</ele>
        <time>2016-05-08T10:07:03Z</time>
      </trkpt>
      <trkpt lat="44.798" lon="0.56066">
        <ele>-15</ele>
        <time>2016-05-08T10:07:10Z</time>
      </trkpt>
      <trkpt lat="44.79806" lon="0.56072">
        <ele>-14</ele>
        <time>2016-05-08T10:07:16Z</time>
      </trkpt>
      <trkpt lat="44.79815" lon="0.56074">
        <ele>-11</ele>
        <time>2016-05-08T10:07:23Z</time>
      </trkpt>
      <trkpt lat="44.79823" lon="0.5608">
        <ele>-18</ele>
        <time>2016-05-08T10:07:34Z</time>
      </trkpt>
      <trkpt lat="44.79831" lon="0.56083">
        <ele>-16</ele>
        <time>2016-05-08T10:07:39Z</time>
      </trkpt>
      <trkpt lat="44.79839" lon="0.56087">
        <ele>-9</ele>
        <time>2016-05-08T10:07:43Z</time>
      </trkpt>
      <trkpt lat="44.79847" lon="0.5609">
        <ele>-9</ele>
        <time>2016-05-08T10:07:51Z</time>
      </trkpt>
      <trkpt lat="44.79855" lon="0.56094">
        <ele>-13</ele>
        <time>2016-05-08T10:07:59Z</time>
      </trkpt>
      <trkpt lat="44.79863" lon="0.56097">
        <ele>-22</ele>
        <time>2016-05-08T10:08:11Z</time>
      </trkpt>
      <trkpt lat="44.79871" lon="0.56099">
        <ele>-22</ele>
        <time>2016-05-08T10:08:15Z</time>
      </trkpt>
      <trkpt lat="44.79881" lon="0.56102">
        <ele>-17</ele>
        <time>2016-05-08T10:08:19Z</time>
      </trkpt>
      <trkpt lat="44.79889" lon="0.56105">
        <ele>-13</ele>
        <time>2016-05-08T10:08:24Z</time>
      </trkpt>
      <trkpt lat="44.79896" lon="0.5611">
        <ele>-18</ele>
        <time>2016-05-08T10:08:38Z</time>
      </trkpt>
      <trkpt lat="44.79904" lon="0.56113">
        <ele>-20</ele>
        <time>2016-05-08T10:08:42Z</time>
      </trkpt>
      <trkpt lat="44.79912" lon="0.56119">
        <ele>-22</ele>
        <time>2016-05-08T10:08:53Z</time>
      </trkpt>
      <trkpt lat="44.79914" lon="0.5613">
        <ele>-18</ele>
        <time>2016-05-08T10:09:02Z</time>
      </trkpt>
      <trkpt lat="44.79917" lon="0.56142">
        <ele>-10</ele>
        <time>2016-05-08T10:09:09Z</time>
      </trkpt>
      <trkpt lat="44.79914" lon="0.56151">
        <ele>-10</ele>
        <time>2016-05-08T10:09:14Z</time>
      </trkpt>
      <trkpt lat="44.79911" lon="0.56162">
        <ele>-8</ele>
        <time>2016-05-08T10:09:20Z</time>
      </trkpt>
      <trkpt lat="44.79911" lon="0.56174">
        <ele>-7</ele>
        <time>2016-05-08T10:09:28Z</time>
      </trkpt>
      <trkpt lat="44.79907" lon="0.56186">
        <ele>-6</ele>
        <time>2016-05-08T10:09:38Z</time>
      </trkpt>
      <trkpt lat="44.799" lon="0.56193">
        <ele>-2</ele>
        <time>2016-05-08T10:09:48Z</time>
      </trkpt>
      <trkpt lat="44.79893" lon="0.56199">
        <ele>2</ele>
        <time>2016-05-08T10:09:58Z</time>
      </trkpt>
      <trkpt lat="44.7989" lon="0.5621">
        <ele>6</ele>
        <time>2016-05-08T10:10:09Z</time>
      </trkpt>
      <trkpt lat="44.79885" lon="0.56221">
        <ele>9</ele>
        <time>2016-05-08T10:10:18Z</time>
      </trkpt>
      <trkpt lat="44.79882" lon="0.56233">
        <ele>12</ele>
        <time>2016-05-08T10:10:32Z</time>
      </trkpt>
      <trkpt lat="44.79875" lon="0.56238">
        <ele>9</ele>
        <time>2016-05-08T10:10:41Z</time>
      </trkpt>
      <trkpt lat="44.79867" lon="0.56239">
        <ele>6</ele>
        <time>2016-05-08T10:10:48Z</time>
      </trkpt>
      <trkpt lat="44.79859" lon="0.56243">
        <ele>10</ele>
        <time>2016-05-08T10:10:55Z</time>
      </trkpt>
      <trkpt lat="44.79851" lon="0.56249">
        <ele>12</ele>
        <time>2016-05-08T10:10:59Z</time>
      </trkpt>
      <trkpt lat="44.79845" lon="0.56255">
        <ele>11</ele>
        <time>2016-05-08T10:11:07Z</time>
      </trkpt>
      <trkpt lat="44.79839" lon="0.56264">
        <ele>12</ele>
        <time>2016-05-08T10:11:13Z</time>
      </trkpt>
      <trkpt lat="44.79835" lon="0.56274">
        <ele>9</ele>
        <time>2016-05-08T10:11:21Z</time>
      </trkpt>
      <trkpt lat="44.7983" lon="0.56283">
        <ele>6</ele>
        <time>2016-05-08T10:11:30Z</time>
      </trkpt>
      <trkpt lat="44.79833" lon="0.56295">
        <ele>7</ele>
        <time>2016-05-08T10:11:39Z</time>
      </trkpt>
      <trkpt lat="44.79837" lon="0.56305">
        <ele>9</ele>
        <time>2016-05-08T10:11:47Z</time>
      </trkpt>
      <trkpt lat="44.79839" lon="0.56316">
        <ele>10</ele>
        <time>2016-05-08T10:12:00Z</time>
      </trkpt>
      <trkpt lat="44.79838" lon="0.56327">
        <ele>8</ele>
        <time>2016-05-08T10:12:11Z</time>
      </trkpt>
      <trkpt lat="44.79838" lon="0.56339">
        <ele>11</ele>
        <time>2016-05-08T10:12:16Z</time>
      </trkpt>
      <trkpt lat="44.79837" lon="0.5635">
        <ele>13</ele>
        <time>2016-05-08T10:12:21Z</time>
      </trkpt>
      <trkpt lat="44.79835" lon="0.56362">
        <ele>16</ele>
        <time>2016-05-08T10:12:28Z</time>
      </trkpt>
      <trkpt lat="44.79831" lon="0.56373">
        <ele>14</ele>
        <time>2016-05-08T10:12:35Z</time>
      </trkpt>
      <trkpt lat="44.79826" lon="0.56383">
        <ele>18</ele>
        <time>2016-05-08T10:12:49Z</time>
      </trkpt>
      <trkpt lat="44.79824" lon="0.56393">
        <ele>21</ele>
        <time>2016-05-08T10:13:06Z</time>
      </trkpt>
      <trkpt lat="44.7982" lon="0.56404">
        <ele>30</ele>
        <time>2016-05-08T10:13:19Z</time>
      </trkpt>
      <trkpt lat="44.79812" lon="0.56407">
        <ele>35</ele>
        <time>2016-05-08T10:13:29Z</time>
      </trkpt>
      <trkpt lat="44.79804" lon="0.56408">
        <ele>35</ele>
        <time>2016-05-08T10:13:37Z</time>
      </trkpt>
      <trkpt lat="44.79795" lon="0.56408">
        <ele>35</ele>
        <time>2016-05-08T10:13:43Z</time>
      </trkpt>
      <trkpt lat="44.79787" lon="0.5641">
        <ele>35</ele>
        <time>2016-05-08T10:13:48Z</time>
      </trkpt>
      <trkpt lat="44.79779" lon="0.56407">
        <ele>33</ele>
        <time>2016-05-08T10:14:02Z</time>
      </trkpt>
      <trkpt lat="44.79776" lon="0.56404">
        <ele>29</ele>
        <time>2016-05-08T10:14:18Z</time>
      </trkpt>
      <trkpt lat="44.79764" lon="0.56399">
        <ele>31</ele>
        <time>2016-05-08T10:14:23Z</time>
      </trkpt>
      <trkpt lat="44.79756" lon="0.56395">
        <ele>29</ele>
        <time>2016-05-08T10:14:35Z</time>
      </trkpt>
      <trkpt lat="44.79749" lon="0.56391">
        <ele>28</ele>
        <time>2016-05-08T10:14:40Z</time>
      </trkpt>
      <trkpt lat="44.7974" lon="0.56386">
        <ele>37</ele>
        <time>2016-05-08T10:14:44Z</time>
      </trkpt>
      <trkpt lat="44.79732" lon="0.56393">
        <ele>39</ele>
        <time>2016-05-08T10:14:54Z</time>
      </trkpt>
      <trkpt lat="44.79725" lon="0.56399">
        <ele>41</ele>
        <time>2016-05-08T10:15:03Z</time>
      </trkpt>
      <trkpt lat="44.79717" lon="0.56404">
        <ele>44</ele>
        <time>2016-05-08T10:15:10Z</time>
      </trkpt>
      <trkpt lat="44.79707" lon="0.5641">
        <ele>47</ele>
        <time>2016-05-08T10:15:15Z</time>
      </trkpt>
      <trkpt lat="44.79701" lon="0.56418">
        <ele>44</ele>
        <time>2016-05-08T10:15:22Z</time>
      </trkpt>
      <trkpt lat="44.79694" lon="0.56422">
        <ele>40</ele>
        <time>2016-05-08T10:15:38Z</time>
      </trkpt>
      <trkpt lat="44.7969" lon="0.56424">
        <ele>39</ele>
        <time>2016-05-08T10:15:59Z</time>
      </trkpt>
      <trkpt lat="44.79681" lon="0.56424">
        <ele>37</ele>
        <time>2016-05-08T10:16:21Z</time>
      </trkpt>
      <trkpt lat="44.79674" lon="0.56422">
        <ele>35</ele>
        <time>2016-05-08T10:16:29Z</time>
      </trkpt>
      <trkpt lat="44.79666" lon="0.5642">
        <ele>34</ele>
        <time>2016-05-08T10:16:43Z</time>
      </trkpt>
      <trkpt lat="44.79662" lon="0.56421">
        <ele>36</ele>
        <time>2016-05-08T10:17:13Z</time>
      </trkpt>
      <trkpt lat="44.79663" lon="0.56426">
        <ele>34</ele>
        <time>2016-05-08T10:24:57Z</time>
      </trkpt>
      <trkpt lat="44.79653" lon="0.56422">
        <ele>35</ele>
        <time>2016-05-08T10:25:01Z</time>
      </trkpt>
      <trkpt lat="44.79662" lon="0.5642">
        <ele>30</ele>
        <time>2016-05-08T10:25:53Z</time>
      </trkpt>
      <trkpt lat="44.79659" lon="0.56409">
        <ele>2</ele>
        <time>2016-05-08T10:27:26Z</time>
      </trkpt>
      <trkpt lat="44.79652" lon="0.56404">
        <ele>5</ele>
        <time>2016-05-08T10:27:34Z</time>
      </trkpt>
      <trkpt lat="44.79647" lon="0.56411">
        <ele>21</ele>
        <time>2016-05-08T10:28:13Z</time>
      </trkpt>
      <trkpt lat="44.79656" lon="0.56401">
        <ele>11</ele>
        <time>2016-05-08T10:28:18Z</time>
      </trkpt>
      <trkpt lat="44.79648" lon="0.56407">
        <ele>17</ele>
        <time>2016-05-08T10:28:54Z</time>
      </trkpt>
      <trkpt lat="44.7964" lon="0.56418">
        <ele>12</ele>
        <time>2016-05-08T10:28:58Z</time>
      </trkpt>
      <trkpt lat="44.79634" lon="0.56431">
        <ele>10</ele>
        <time>2016-05-08T10:29:02Z</time>
      </trkpt>
      <trkpt lat="44.7964" lon="0.56434">
        <ele>17</ele>
        <time>2016-05-08T10:29:22Z</time>
      </trkpt>
      <trkpt lat="44.79652" lon="0.56436">
        <ele>37</ele>
        <time>2016-05-08T10:29:26Z</time>
      </trkpt>
      <trkpt lat="44.79652" lon="0.56436">
        <ele>37</ele>
        <time>2016-05-08T10:29:42Z</time>
      </trkpt>
      <trkpt lat="44.79662" lon="0.56425">
        <ele>54</ele>
        <time>2016-05-08T10:29:46Z</time>
      </trkpt>
      <trkpt lat="44.79661" lon="0.56423">
        <ele>58</ele>
        <time>2016-05-08T10:30:44Z</time>
      </trkpt>
      <trkpt lat="44.79671" lon="0.56416">
        <ele>53</ele>
        <time>2016-05-08T10:30:48Z</time>
      </trkpt>
      <trkpt lat="44.79662" lon="0.56413">
        <ele>58</ele>
        <time>2016-05-08T10:31:27Z</time>
      </trkpt>
      <trkpt lat="44.79666" lon="0.56417">
        <ele>52</ele>
        <time>2016-05-08T10:33:22Z</time>
      </trkpt>
      <trkpt lat="44.79657" lon="0.56408">
        <ele>44</ele>
        <time>2016-05-08T10:33:26Z</time>
      </trkpt>
      <trkpt lat="44.79657" lon="0.56408">
        <ele>44</ele>
        <time>2016-05-08T10:34:02Z</time>
      </trkpt>
      <trkpt lat="44.79666" lon="0.56412">
        <ele>44</ele>
        <time>2016-05-08T10:34:06Z</time>
      </trkpt>
      <trkpt lat="44.79668" lon="0.56411">
        <ele>29</ele>
        <time>2016-05-08T10:36:23Z</time>
      </trkpt>
      <trkpt lat="44.79665" lon="0.56397">
        <ele>48</ele>
        <time>2016-05-08T10:36:27Z</time>
      </trkpt>
      <trkpt lat="44.79664" lon="0.56409">
        <ele>41</ele>
        <time>2016-05-08T10:36:46Z</time>
      </trkpt>
      <trkpt lat="44.79663" lon="0.5641">
        <ele>42</ele>
        <time>2016-05-08T10:37:40Z</time>
      </trkpt>
      <trkpt lat="44.79658" lon="0.56422">
        <ele>47</ele>
        <time>2016-05-08T10:37:44Z</time>
      </trkpt>
      <trkpt lat="44.7966" lon="0.56434">
        <ele>41</ele>
        <time>2016-05-08T10:39:24Z</time>
      </trkpt>
      <trkpt lat="44.79668" lon="0.56436">
        <ele>38</ele>
        <time>2016-05-08T10:39:35Z</time>
      </trkpt>
      <trkpt lat="44.79676" lon="0.56439">
        <ele>41</ele>
        <time>2016-05-08T10:39:45Z</time>
      </trkpt>
      <trkpt lat="44.79681" lon="0.56449">
        <ele>42</ele>
        <time>2016-05-08T10:39:56Z</time>
      </trkpt>
      <trkpt lat="44.7968" lon="0.56461">
        <ele>40</ele>
        <time>2016-05-08T10:40:04Z</time>
      </trkpt>
      <trkpt lat="44.79677" lon="0.56472">
        <ele>38</ele>
        <time>2016-05-08T10:40:12Z</time>
      </trkpt>
      <trkpt lat="44.79674" lon="0.56482">
        <ele>40</ele>
        <time>2016-05-08T10:40:18Z</time>
      </trkpt>
      <trkpt lat="44.7967" lon="0.56493">
        <ele>46</ele>
        <time>2016-05-08T10:40:23Z</time>
      </trkpt>
      <trkpt lat="44.79667" lon="0.56504">
        <ele>46</ele>
        <time>2016-05-08T10:40:30Z</time>
      </trkpt>
      <trkpt lat="44.79662" lon="0.56515">
        <ele>45</ele>
        <time>2016-05-08T10:40:39Z</time>
      </trkpt>
      <trkpt lat="44.79656" lon="0.56524">
        <ele>43</ele>
        <time>2016-05-08T10:40:48Z</time>
      </trkpt>
      <trkpt lat="44.79652" lon="0.56534">
        <ele>44</ele>
        <time>2016-05-08T10:40:56Z</time>
      </trkpt>
      <trkpt lat="44.79648" lon="0.56544">
        <ele>48</ele>
        <time>2016-05-08T10:41:05Z</time>
      </trkpt>
      <trkpt lat="44.79647" lon="0.56556">
        <ele>43</ele>
        <time>2016-05-08T10:41:18Z</time>
      </trkpt>
      <trkpt lat="44.79646" lon="0.56568">
        <ele>46</ele>
        <time>2016-05-08T10:41:34Z</time>
      </trkpt>
      <trkpt lat="44.79648" lon="0.5658">
        <ele>41</ele>
        <time>2016-05-08T10:41:41Z</time>
      </trkpt>
      <trkpt lat="44.79654" lon="0.56588">
        <ele>41</ele>
        <time>2016-05-08T10:41:46Z</time>
      </trkpt>
      <trkpt lat="44.79662" lon="0.56592">
        <ele>39</ele>
        <time>2016-05-08T10:41:53Z</time>
      </trkpt>
      <trkpt lat="44.79669" lon="0.56598">
        <ele>38</ele>
        <time>2016-05-08T10:41:59Z</time>
      </trkpt>
      <trkpt lat="44.79678" lon="0.56601">
        <ele>38</ele>
        <time>2016-05-08T10:42:06Z</time>
      </trkpt>
      <trkpt lat="44.79686" lon="0.56601">
        <ele>37</ele>
        <time>2016-05-08T10:42:11Z</time>
      </trkpt>
      <trkpt lat="44.79692" lon="0.56609">
        <ele>35</ele>
        <time>2016-05-08T10:42:20Z</time>
      </trkpt>
      <trkpt lat="44.79699" lon="0.56615">
        <ele>36</ele>
        <time>2016-05-08T10:42:25Z</time>
      </trkpt>
      <trkpt lat="44.79705" lon="0.56621">
        <ele>36</ele>
        <time>2016-05-08T10:42:31Z</time>
      </trkpt>
      <trkpt lat="44.79713" lon="0.56629">
        <ele>36</ele>
        <time>2016-05-08T10:42:36Z</time>
      </trkpt>
      <trkpt lat="44.79721" lon="0.56636">
        <ele>38</ele>
        <time>2016-05-08T10:42:42Z</time>
      </trkpt>
      <trkpt lat="44.79726" lon="0.56644">
        <ele>37</ele>
        <time>2016-05-08T10:42:47Z</time>
      </trkpt>
      <trkpt lat="44.79731" lon="0.56653">
        <ele>38</ele>
        <time>2016-05-08T10:42:53Z</time>
      </trkpt>
      <trkpt lat="44.79735" lon="0.56664">
        <ele>36</ele>
        <time>2016-05-08T10:43:01Z</time>
      </trkpt>
      <trkpt lat="44.79741" lon="0.56674">
        <ele>41</ele>
        <time>2016-05-08T10:43:09Z</time>
      </trkpt>
      <trkpt lat="44.79745" lon="0.56684">
        <ele>40</ele>
        <time>2016-05-08T10:43:17Z</time>
      </trkpt>
      <trkpt lat="44.7975" lon="0.56694">
        <ele>42</ele>
        <time>2016-05-08T10:43:24Z</time>
      </trkpt>
      <trkpt lat="44.79754" lon="0.56703">
        <ele>43</ele>
        <time>2016-05-08T10:43:30Z</time>
      </trkpt>
      <trkpt lat="44.79757" lon="0.56714">
        <ele>44</ele>
        <time>2016-05-08T10:43:35Z</time>
      </trkpt>
      <trkpt lat="44.7976" lon="0.56724">
        <ele>46</ele>
        <time>2016-05-08T10:43:41Z</time>
      </trkpt>
      <trkpt lat="44.79763" lon="0.56736">
        <ele>43</ele>
        <time>2016-05-08T10:43:48Z</time>
      </trkpt>
      <trkpt lat="44.79767" lon="0.56745">
        <ele>41</ele>
        <time>2016-05-08T10:43:54Z</time>
      </trkpt>
      <trkpt lat="44.79768" lon="0.56756">
        <ele>37</ele>
        <time>2016-05-08T10:44:03Z</time>
      </trkpt>
      <trkpt lat="44.7977" lon="0.56768">
        <ele>34</ele>
        <time>2016-05-08T10:44:12Z</time>
      </trkpt>
      <trkpt lat="44.79775" lon="0.56777">
        <ele>31</ele>
        <time>2016-05-08T10:44:19Z</time>
      </trkpt>
      <trkpt lat="44.79781" lon="0.56786">
        <ele>30</ele>
        <time>2016-05-08T10:44:25Z</time>
      </trkpt>
      <trkpt lat="44.79787" lon="0.56794">
        <ele>31</ele>
        <time>2016-05-08T10:44:30Z</time>
      </trkpt>
      <trkpt lat="44.79795" lon="0.568">
        <ele>34</ele>
        <time>2016-05-08T10:44:36Z</time>
      </trkpt>
      <trkpt lat="44.79808" lon="0.56806">
        <ele>38</ele>
        <time>2016-05-08T10:44:41Z</time>
      </trkpt>
      <trkpt lat="44.79816" lon="0.56808">
        <ele>40</ele>
        <time>2016-05-08T10:44:45Z</time>
      </trkpt>
      <trkpt lat="44.79823" lon="0.56807">
        <ele>44</ele>
        <time>2016-05-08T10:44:51Z</time>
      </trkpt>
      <trkpt lat="44.79832" lon="0.56798">
        <ele>50</ele>
        <time>2016-05-08T10:44:56Z</time>
      </trkpt>
      <trkpt lat="44.79838" lon="0.56791">
        <ele>53</ele>
        <time>2016-05-08T10:45:02Z</time>
      </trkpt>
      <trkpt lat="44.79846" lon="0.56785">
        <ele>53</ele>
        <time>2016-05-08T10:45:10Z</time>
      </trkpt>
      <trkpt lat="44.79854" lon="0.56782">
        <ele>56</ele>
        <time>2016-05-08T10:45:18Z</time>
      </trkpt>
      <trkpt lat="44.79861" lon="0.56777">
        <ele>49</ele>
        <time>2016-05-08T10:45:24Z</time>
      </trkpt>
      <trkpt lat="44.79869" lon="0.56771">
        <ele>45</ele>
        <time>2016-05-08T10:45:32Z</time>
      </trkpt>
      <trkpt lat="44.79875" lon="0.56764">
        <ele>34</ele>
        <time>2016-05-08T10:45:40Z</time>
      </trkpt>
      <trkpt lat="44.79883" lon="0.5676">
        <ele>32</ele>
        <time>2016-05-08T10:45:47Z</time>
      </trkpt>
      <trkpt lat="44.7989" lon="0.56754">
        <ele>29</ele>
        <time>2016-05-08T10:45:55Z</time>
      </trkpt>
      <trkpt lat="44.79898" lon="0.56751">
        <ele>30</ele>
        <time>2016-05-08T10:46:01Z</time>
      </trkpt>
      <trkpt lat="44.79906" lon="0.5675">
        <ele>27</ele>
        <time>2016-05-08T10:46:10Z</time>
      </trkpt>
      <trkpt lat="44.79914" lon="0.56747">
        <ele>26</ele>
        <time>2016-05-08T10:46:20Z</time>
      </trkpt>
      <trkpt lat="44.79922" lon="0.56748">
        <ele>26</ele>
        <time>2016-05-08T10:46:38Z</time>
      </trkpt>
      <trkpt lat="44.79935" lon="0.56749">
        <ele>21</ele>
        <time>2016-05-08T10:46:42Z</time>
      </trkpt>
      <trkpt lat="44.79948" lon="0.56746">
        <ele>23</ele>
        <time>2016-05-08T10:46:46Z</time>
      </trkpt>
      <trkpt lat="44.79957" lon="0.56744">
        <ele>23</ele>
        <time>2016-05-08T10:46:50Z</time>
      </trkpt>
      <trkpt lat="44.79965" lon="0.56742">
        <ele>25</ele>
        <time>2016-05-08T10:46:54Z</time>
      </trkpt>
      <trkpt lat="44.79974" lon="0.56744">
        <ele>26</ele>
        <time>2016-05-08T10:46:59Z</time>
      </trkpt>
      <trkpt lat="44.79982" lon="0.56742">
        <ele>22</ele>
        <time>2016-05-08T10:47:05Z</time>
      </trkpt>
      <trkpt lat="44.7999" lon="0.56738">
        <ele>18</ele>
        <time>2016-05-08T10:47:12Z</time>
      </trkpt>
      <trkpt lat="44.79997" lon="0.56734">
        <ele>25</ele>
        <time>2016-05-08T10:47:19Z</time>
      </trkpt>
      <trkpt lat="44.80006" lon="0.56736">
        <ele>27</ele>
        <time>2016-05-08T10:47:27Z</time>
      </trkpt>
      <trkpt lat="44.80014" lon="0.56736">
        <ele>25</ele>
        <time>2016-05-08T10:47:38Z</time>
      </trkpt>
      <trkpt lat="44.80023" lon="0.56737">
        <ele>25</ele>
        <time>2016-05-08T10:47:46Z</time>
      </trkpt>
      <trkpt lat="44.8003" lon="0.56738">
        <ele>25</ele>
        <time>2016-05-08T10:47:50Z</time>
      </trkpt>
      <trkpt lat="44.80038" lon="0.56738">
        <ele>25</ele>
        <time>2016-05-08T10:47:54Z</time>
      </trkpt>
      <trkpt lat="44.80046" lon="0.56738">
        <ele>23</ele>
        <time>2016-05-08T10:47:59Z</time>
      </trkpt>
      <trkpt lat="44.80053" lon="0.56745">
        <ele>27</ele>
        <time>2016-05-08T10:48:03Z</time>
      </trkpt>
      <trkpt lat="44.8006" lon="0.56749">
        <ele>26</ele>
        <time>2016-05-08T10:48:07Z</time>
      </trkpt>
      <trkpt lat="44.80068" lon="0.56753">
        <ele>27</ele>
        <time>2016-05-08T10:48:12Z</time>
      </trkpt>
      <trkpt lat="44.80075" lon="0.56759">
        <ele>25</ele>
        <time>2016-05-08T10:48:18Z</time>
      </trkpt>
      <trkpt lat="44.80082" lon="0.56766">
        <ele>26</ele>
        <time>2016-05-08T10:48:27Z</time>
      </trkpt>
      <trkpt lat="44.80089" lon="0.56774">
        <ele>26</ele>
        <time>2016-05-08T10:48:36Z</time>
      </trkpt>
      <trkpt lat="44.80095" lon="0.5678">
        <ele>23</ele>
        <time>2016-05-08T10:48:41Z</time>
      </trkpt>
      <trkpt lat="44.80103" lon="0.56784">
        <ele>25</ele>
        <time>2016-05-08T10:48:45Z</time>
      </trkpt>
      <trkpt lat="44.8011" lon="0.56791">
        <ele>25</ele>
        <time>2016-05-08T10:48:50Z</time>
      </trkpt>
      <trkpt lat="44.80116" lon="0.56798">
        <ele>26</ele>
        <time>2016-05-08T10:48:55Z</time>
      </trkpt>
      <trkpt lat="44.80123" lon="0.56804">
        <ele>28</ele>
        <time>2016-05-08T10:49:02Z</time>
      </trkpt>
      <trkpt lat="44.80128" lon="0.56814">
        <ele>29</ele>
        <time>2016-05-08T10:49:09Z</time>
      </trkpt>
      <trkpt lat="44.80128" lon="0.56826">
        <ele>30</ele>
        <time>2016-05-08T10:49:17Z</time>
      </trkpt>
      <trkpt lat="44.80124" lon="0.56837">
        <ele>33</ele>
        <time>2016-05-08T10:49:26Z</time>
      </trkpt>
      <trkpt lat="44.80119" lon="0.56847">
        <ele>35</ele>
        <time>2016-05-08T10:49:34Z</time>
      </trkpt>
      <trkpt lat="44.80115" lon="0.56857">
        <ele>37</ele>
        <time>2016-05-08T10:49:42Z</time>
      </trkpt>
      <trkpt lat="44.80113" lon="0.56868">
        <ele>41</ele>
        <time>2016-05-08T10:49:49Z</time>
      </trkpt>
      <trkpt lat="44.80112" lon="0.56879">
        <ele>46</ele>
        <time>2016-05-08T10:49:55Z</time>
      </trkpt>
      <trkpt lat="44.80109" lon="0.56891">
        <ele>50</ele>
        <time>2016-05-08T10:50:02Z</time>
      </trkpt>
      <trkpt lat="44.80104" lon="0.56901">
        <ele>49</ele>
        <time>2016-05-08T10:50:09Z</time>
      </trkpt>
      <trkpt lat="44.80098" lon="0.56909">
        <ele>49</ele>
        <time>2016-05-08T10:50:15Z</time>
      </trkpt>
      <trkpt lat="44.80093" lon="0.56919">
        <ele>48</ele>
        <time>2016-05-08T10:50:22Z</time>
      </trkpt>
      <trkpt lat="44.80093" lon="0.56931">
        <ele>48</ele>
        <time>2016-05-08T10:50:30Z</time>
      </trkpt>
      <trkpt lat="44.80092" lon="0.56943">
        <ele>50</ele>
        <time>2016-05-08T10:50:36Z</time>
      </trkpt>
      <trkpt lat="44.80092" lon="0.56955">
        <ele>55</ele>
        <time>2016-05-08T10:50:42Z</time>
      </trkpt>
      <trkpt lat="44.80091" lon="0.56967">
        <ele>56</ele>
        <time>2016-05-08T10:50:48Z</time>
      </trkpt>
      <trkpt lat="44.8009" lon="0.56979">
        <ele>55</ele>
        <time>2016-05-08T10:50:55Z</time>
      </trkpt>
      <trkpt lat="44.80087" lon="0.5699">
        <ele>55</ele>
        <time>2016-05-08T10:51:02Z</time>
      </trkpt>
      <trkpt lat="44.80083" lon="0.57001">
        <ele>53</ele>
        <time>2016-05-08T10:51:10Z</time>
      </trkpt>
      <trkpt lat="44.8008" lon="0.5701">
        <ele>54</ele>
        <time>2016-05-08T10:51:16Z</time>
      </trkpt>
      <trkpt lat="44.80076" lon="0.5702">
        <ele>52</ele>
        <time>2016-05-08T10:51:21Z</time>
      </trkpt>
      <trkpt lat="44.80072" lon="0.5703">
        <ele>48</ele>
        <time>2016-05-08T10:51:27Z</time>
      </trkpt>
      <trkpt lat="44.80069" lon="0.57039">
        <ele>48</ele>
        <time>2016-05-08T10:51:33Z</time>
      </trkpt>
      <trkpt lat="44.80066" lon="0.57051">
        <ele>44</ele>
        <time>2016-05-08T10:51:40Z</time>
      </trkpt>
      <trkpt lat="44.80063" lon="0.57062">
        <ele>42</ele>
        <time>2016-05-08T10:51:49Z</time>
      </trkpt>
      <trkpt lat="44.80061" lon="0.57073">
        <ele>44</ele>
        <time>2016-05-08T10:51:55Z</time>
      </trkpt>
      <trkpt lat="44.80058" lon="0.57085">
        <ele>48</ele>
        <time>2016-05-08T10:52:01Z</time>
      </trkpt>
      <trkpt lat="44.80055" lon="0.57095">
        <ele>52</ele>
        <time>2016-05-08T10:52:06Z</time>
      </trkpt>
      <trkpt lat="44.80053" lon="0.57105">
        <ele>57</ele>
        <time>2016-05-08T10:52:10Z</time>
      </trkpt>
      <trkpt lat="44.80051" lon="0.57117">
        <ele>60</ele>
        <time>2016-05-08T10:52:16Z</time>
      </trkpt>
      <trkpt lat="44.80049" lon="0.57128">
        <ele>58</ele>
        <time>2016-05-08T10:52:22Z</time>
      </trkpt>
      <trkpt lat="44.80045" lon="0.57139">
        <ele>57</ele>
        <time>2016-05-08T10:52:29Z</time>
      </trkpt>
      <trkpt lat="44.8004" lon="0.57148">
        <ele>57</ele>
        <time>2016-05-08T10:52:35Z</time>
      </trkpt>
      <trkpt lat="44.80034" lon="0.57155">
        <ele>58</ele>
        <time>2016-05-08T10:52:41Z</time>
      </trkpt>
      <trkpt lat="44.80031" lon="0.57165">
        <ele>59</ele>
        <time>2016-05-08T10:52:48Z</time>
      </trkpt>
      <trkpt lat="44.80029" lon="0.57176">
        <ele>59</ele>
        <time>2016-05-08T10:52:55Z</time>
      </trkpt>
      <trkpt lat="44.80024" lon="0.57191">
        <ele>57</ele>
        <time>2016-05-08T10:53:00Z</time>
      </trkpt>
      <trkpt lat="44.80023" lon="0.57202">
        <ele>56</ele>
        <time>2016-05-08T10:53:06Z</time>
      </trkpt>
      <trkpt lat="44.8002" lon="0.57211">
        <ele>56</ele>
        <time>2016-05-08T10:53:12Z</time>
      </trkpt>
      <trkpt lat="44.80016" lon="0.57223">
        <ele>55</ele>
        <time>2016-05-08T10:53:19Z</time>
      </trkpt>
      <trkpt lat="44.80013" lon="0.57234">
        <ele>53</ele>
        <time>2016-05-08T10:53:26Z</time>
      </trkpt>
      <trkpt lat="44.8001" lon="0.57246">
        <ele>51</ele>
        <time>2016-05-08T10:53:32Z</time>
      </trkpt>
      <trkpt lat="44.80009" lon="0.57258">
        <ele>49</ele>
        <time>2016-05-08T10:53:40Z</time>
      </trkpt>
      <trkpt lat="44.80007" lon="0.5727">
        <ele>50</ele>
        <time>2016-05-08T10:53:47Z</time>
      </trkpt>
      <trkpt lat="44.80005" lon="0.57281">
        <ele>51</ele>
        <time>2016-05-08T10:53:54Z</time>
      </trkpt>
      <trkpt lat="44.80002" lon="0.57291">
        <ele>54</ele>
        <time>2016-05-08T10:53:59Z</time>
      </trkpt>
      <trkpt lat="44.79998" lon="0.57302">
        <ele>54</ele>
        <time>2016-05-08T10:54:05Z</time>
      </trkpt>
      <trkpt lat="44.79994" lon="0.57313">
        <ele>54</ele>
        <time>2016-05-08T10:54:11Z</time>
      </trkpt>
      <trkpt lat="44.7999" lon="0.57323">
        <ele>54</ele>
        <time>2016-05-08T10:54:16Z</time>
      </trkpt>
      <trkpt lat="44.79986" lon="0.57333">
        <ele>55</ele>
        <time>2016-05-08T10:54:21Z</time>
      </trkpt>
      <trkpt lat="44.79982" lon="0.57341">
        <ele>56</ele>
        <time>2016-05-08T10:54:26Z</time>
      </trkpt>
      <trkpt lat="44.79977" lon="0.5735">
        <ele>57</ele>
        <time>2016-05-08T10:54:31Z</time>
      </trkpt>
      <trkpt lat="44.79972" lon="0.57359">
        <ele>60</ele>
        <time>2016-05-08T10:54:37Z</time>
      </trkpt>
      <trkpt lat="44.79965" lon="0.57367">
        <ele>61</ele>
        <time>2016-05-08T10:54:44Z</time>
      </trkpt>
      <trkpt lat="44.79958" lon="0.57374">
        <ele>64</ele>
        <time>2016-05-08T10:54:51Z</time>
      </trkpt>
      <trkpt lat="44.79953" lon="0.57382">
        <ele>65</ele>
        <time>2016-05-08T10:54:58Z</time>
      </trkpt>
      <trkpt lat="44.79947" lon="0.57388">
        <ele>65</ele>
        <time>2016-05-08T10:55:04Z</time>
      </trkpt>
      <trkpt lat="44.79941" lon="0.57396">
        <ele>67</ele>
        <time>2016-05-08T10:55:09Z</time>
      </trkpt>
      <trkpt lat="44.79935" lon="0.57404">
        <ele>67</ele>
        <time>2016-05-08T10:55:15Z</time>
      </trkpt>
      <trkpt lat="44.79928" lon="0.57411">
        <ele>69</ele>
        <time>2016-05-08T10:55:21Z</time>
      </trkpt>
      <trkpt lat="44.79921" lon="0.57419">
        <ele>69</ele>
        <time>2016-05-08T10:55:28Z</time>
      </trkpt>
      <trkpt lat="44.79915" lon="0.57426">
        <ele>69</ele>
        <time>2016-05-08T10:55:34Z</time>
      </trkpt>
      <trkpt lat="44.79908" lon="0.57433">
        <ele>69</ele>
        <time>2016-05-08T10:55:40Z</time>
      </trkpt>
      <trkpt lat="44.79902" lon="0.57442">
        <ele>68</ele>
        <time>2016-05-08T10:55:47Z</time>
      </trkpt>
      <trkpt lat="44.79895" lon="0.57447">
        <ele>67</ele>
        <time>2016-05-08T10:55:52Z</time>
      </trkpt>
      <trkpt lat="44.79887" lon="0.57451">
        <ele>69</ele>
        <time>2016-05-08T10:55:58Z</time>
      </trkpt>
      <trkpt lat="44.7988" lon="0.57458">
        <ele>68</ele>
        <time>2016-05-08T10:56:05Z</time>
      </trkpt>
      <trkpt lat="44.79872" lon="0.57463">
        <ele>70</ele>
        <time>2016-05-08T10:56:11Z</time>
      </trkpt>
      <trkpt lat="44.79867" lon="0.57471">
        <ele>71</ele>
        <time>2016-05-08T10:56:17Z</time>
      </trkpt>
      <trkpt lat="44.7986" lon="0.57479">
        <ele>72</ele>
        <time>2016-05-08T10:56:24Z</time>
      </trkpt>
      <trkpt lat="44.79854" lon="0.57487">
        <ele>68</ele>
        <time>2016-05-08T10:56:31Z</time>
      </trkpt>
      <trkpt lat="44.79848" lon="0.57496">
        <ele>67</ele>
        <time>2016-05-08T10:56:38Z</time>
      </trkpt>
      <trkpt lat="44.79843" lon="0.57504">
        <ele>66</ele>
        <time>2016-05-08T10:56:44Z</time>
      </trkpt>
      <trkpt lat="44.79837" lon="0.57511">
        <ele>65</ele>
        <time>2016-05-08T10:56:49Z</time>
      </trkpt>
      <trkpt lat="44.7983" lon="0.57518">
        <ele>66</ele>
        <time>2016-05-08T10:56:57Z</time>
      </trkpt>
      <trkpt lat="44.79823" lon="0.57525">
        <ele>65</ele>
        <time>2016-05-08T10:57:04Z</time>
      </trkpt>
      <trkpt lat="44.79817" lon="0.57533">
        <ele>64</ele>
        <time>2016-05-08T10:57:10Z</time>
      </trkpt>
      <trkpt lat="44.79811" lon="0.5754">
        <ele>65</ele>
        <time>2016-05-08T10:57:16Z</time>
      </trkpt>
      <trkpt lat="44.79806" lon="0.5755">
        <ele>65</ele>
        <time>2016-05-08T10:57:22Z</time>
      </trkpt>
      <trkpt lat="44.798" lon="0.57559">
        <ele>64</ele>
        <time>2016-05-08T10:57:28Z</time>
      </trkpt>
      <trkpt lat="44.79794" lon="0.57567">
        <ele>62</ele>
        <time>2016-05-08T10:57:35Z</time>
      </trkpt>
      <trkpt lat="44.79788" lon="0.57574">
        <ele>59</ele>
        <time>2016-05-08T10:57:41Z</time>
      </trkpt>
      <trkpt lat="44.79782" lon="0.57581">
        <ele>56</ele>
        <time>2016-05-08T10:57:46Z</time>
      </trkpt>
      <trkpt lat="44.79776" lon="0.5759">
        <ele>55</ele>
        <time>2016-05-08T10:57:51Z</time>
      </trkpt>
      <trkpt lat="44.79771" lon="0.57598">
        <ele>59</ele>
        <time>2016-05-08T10:57:56Z</time>
      </trkpt>
      <trkpt lat="44.79766" lon="0.57608">
        <ele>61</ele>
        <time>2016-05-08T10:58:02Z</time>
      </trkpt>
      <trkpt lat="44.7976" lon="0.57616">
        <ele>64</ele>
        <time>2016-05-08T10:58:08Z</time>
      </trkpt>
      <trkpt lat="44.79754" lon="0.57626">
        <ele>66</ele>
        <time>2016-05-08T10:58:16Z</time>
      </trkpt>
      <trkpt lat="44.79748" lon="0.57634">
        <ele>68</ele>
        <time>2016-05-08T10:58:24Z</time>
      </trkpt>
      <trkpt lat="44.79742" lon="0.57642">
        <ele>68</ele>
        <time>2016-05-08T10:58:31Z</time>
      </trkpt>
      <trkpt lat="44.79737" lon="0.5765">
        <ele>68</ele>
        <time>2016-05-08T10:58:36Z</time>
      </trkpt>
      <trkpt lat="44.79731" lon="0.57657">
        <ele>67</ele>
        <time>2016-05-08T10:58:41Z</time>
      </trkpt>
      <trkpt lat="44.79724" lon="0.57664">
        <ele>65</ele>
        <time>2016-05-08T10:58:48Z</time>
      </trkpt>
      <trkpt lat="44.79717" lon="0.57671">
        <ele>68</ele>
        <time>2016-05-08T10:58:55Z</time>
      </trkpt>
      <trkpt lat="44.79709" lon="0.57677">
        <ele>71</ele>
        <time>2016-05-08T10:59:02Z</time>
      </trkpt>
      <trkpt lat="44.79702" lon="0.57682">
        <ele>71</ele>
        <time>2016-05-08T10:59:08Z</time>
      </trkpt>
      <trkpt lat="44.79693" lon="0.57685">
        <ele>67</ele>
        <time>2016-05-08T10:59:14Z</time>
      </trkpt>
      <trkpt lat="44.79685" lon="0.57685">
        <ele>64</ele>
        <time>2016-05-08T10:59:20Z</time>
      </trkpt>
      <trkpt lat="44.79676" lon="0.57684">
        <ele>62</ele>
        <time>2016-05-08T10:59:26Z</time>
      </trkpt>
      <trkpt lat="44.79669" lon="0.57679">
        <ele>59</ele>
        <time>2016-05-08T10:59:32Z</time>
      </trkpt>
      <trkpt lat="44.79662" lon="0.57674">
        <ele>57</ele>
        <time>2016-05-08T10:59:38Z</time>
      </trkpt>
      <trkpt lat="44.79654" lon="0.57668">
        <ele>57</ele>
        <time>2016-05-08T10:59:44Z</time>
      </trkpt>
      <trkpt lat="44.79647" lon="0.57663">
        <ele>56</ele>
        <time>2016-05-08T10:59:50Z</time>
      </trkpt>
      <trkpt lat="44.79639" lon="0.57661">
        <ele>57</ele>
        <time>2016-05-08T10:59:56Z</time>
      </trkpt>
      <trkpt lat="44.7963" lon="0.57658">
        <ele>55</ele>
        <time>2016-05-08T11:00:03Z</time>
      </trkpt>
      <trkpt lat="44.79623" lon="0.57651">
        <ele>56</ele>
        <time>2016-05-08T11:00:10Z</time>
      </trkpt>
      <trkpt lat="44.79615" lon="0.57647">
        <ele>56</ele>
        <time>2016-05-08T11:00:16Z</time>
      </trkpt>
      <trkpt lat="44.79607" lon="0.57643">
        <ele>58</ele>
        <time>2016-05-08T11:00:21Z</time>
      </trkpt>
      <trkpt lat="44.79599" lon="0.57637">
        <ele>58</ele>
        <time>2016-05-08T11:00:28Z</time>
      </trkpt>
      <trkpt lat="44.79591" lon="0.57634">
        <ele>60</ele>
        <time>2016-05-08T11:00:34Z</time>
      </trkpt>
      <trkpt lat="44.79584" lon="0.57629">
        <ele>61</ele>
        <time>2016-05-08T11:00:39Z</time>
      </trkpt>
      <trkpt lat="44.79576" lon="0.57626">
        <ele>61</ele>
        <time>2016-05-08T11:00:45Z</time>
      </trkpt>
      <trkpt lat="44.79567" lon="0.57623">
        <ele>59</ele>
        <time>2016-05-08T11:00:51Z</time>
      </trkpt>
      <trkpt lat="44.79559" lon="0.5762">
        <ele>60</ele>
        <time>2016-05-08T11:00:57Z</time>
      </trkpt>
      <trkpt lat="44.79551" lon="0.57618">
        <ele>59</ele>
        <time>2016-05-08T11:01:03Z</time>
      </trkpt>
      <trkpt lat="44.79543" lon="0.57615">
        <ele>59</ele>
        <time>2016-05-08T11:01:09Z</time>
      </trkpt>
      <trkpt lat="44.79535" lon="0.57612">
        <ele>58</ele>
        <time>2016-05-08T11:01:16Z</time>
      </trkpt>
      <trkpt lat="44.79527" lon="0.57609">
        <ele>58</ele>
        <time>2016-05-08T11:01:22Z</time>
      </trkpt>
      <trkpt lat="44.79519" lon="0.57607">
        <ele>57</ele>
        <time>2016-05-08T11:01:28Z</time>
      </trkpt>
      <trkpt lat="44.79512" lon="0.57603">
        <ele>56</ele>
        <time>2016-05-08T11:01:34Z</time>
      </trkpt>
      <trkpt lat="44.79505" lon="0.57599">
        <ele>54</ele>
        <time>2016-05-08T11:01:41Z</time>
      </trkpt>
      <trkpt lat="44.79497" lon="0.57595">
        <ele>53</ele>
        <time>2016-05-08T11:01:48Z</time>
      </trkpt>
      <trkpt lat="44.79489" lon="0.57594">
        <ele>53</ele>
        <time>2016-05-08T11:01:54Z</time>
      </trkpt>
      <trkpt lat="44.79481" lon="0.57593">
        <ele>52</ele>
        <time>2016-05-08T11:02:00Z</time>
      </trkpt>
      <trkpt lat="44.79474" lon="0.57587">
        <ele>52</ele>
        <time>2016-05-08T11:02:07Z</time>
      </trkpt>
      <trkpt lat="44.79466" lon="0.57582">
        <ele>54</ele>
        <time>2016-05-08T11:02:13Z</time>
      </trkpt>
      <trkpt lat="44.79459" lon="0.57575">
        <ele>55</ele>
        <time>2016-05-08T11:02:19Z</time>
      </trkpt>
      <trkpt lat="44.79451" lon="0.57572">
        <ele>56</ele>
        <time>2016-05-08T11:02:24Z</time>
      </trkpt>
      <trkpt lat="44.79442" lon="0.57569">
        <ele>57</ele>
        <time>2016-05-08T11:02:31Z</time>
      </trkpt>
      <trkpt lat="44.79434" lon="0.57565">
        <ele>58</ele>
        <time>2016-05-08T11:02:39Z</time>
      </trkpt>
      <trkpt lat="44.79426" lon="0.57562">
        <ele>56</ele>
        <time>2016-05-08T11:02:46Z</time>
      </trkpt>
      <trkpt lat="44.79418" lon="0.57557">
        <ele>55</ele>
        <time>2016-05-08T11:02:53Z</time>
      </trkpt>
      <trkpt lat="44.79409" lon="0.57555">
        <ele>55</ele>
        <time>2016-05-08T11:03:00Z</time>
      </trkpt>
      <trkpt lat="44.79402" lon="0.57552">
        <ele>57</ele>
        <time>2016-05-08T11:03:06Z</time>
      </trkpt>
      <trkpt lat="44.79394" lon="0.57548">
        <ele>59</ele>
        <time>2016-05-08T11:03:12Z</time>
      </trkpt>
      <trkpt lat="44.79386" lon="0.57544">
        <ele>59</ele>
        <time>2016-05-08T11:03:19Z</time>
      </trkpt>
      <trkpt lat="44.79377" lon="0.57541">
        <ele>58</ele>
        <time>2016-05-08T11:03:27Z</time>
      </trkpt>
      <trkpt lat="44.7937" lon="0.57537">
        <ele>56</ele>
        <time>2016-05-08T11:03:33Z</time>
      </trkpt>
      <trkpt lat="44.79363" lon="0.5753">
        <ele>58</ele>
        <time>2016-05-08T11:03:39Z</time>
      </trkpt>
      <trkpt lat="44.79356" lon="0.57525">
        <ele>59</ele>
        <time>2016-05-08T11:03:47Z</time>
      </trkpt>
      <trkpt lat="44.79348" lon="0.5752">
        <ele>57</ele>
        <time>2016-05-08T11:03:53Z</time>
      </trkpt>
      <trkpt lat="44.79339" lon="0.57517">
        <ele>56</ele>
        <time>2016-05-08T11:03:58Z</time>
      </trkpt>
      <trkpt lat="44.79332" lon="0.57512">
        <ele>53</ele>
        <time>2016-05-08T11:04:04Z</time>
      </trkpt>
      <trkpt lat="44.79323" lon="0.57507">
        <ele>52</ele>
        <time>2016-05-08T11:04:10Z</time>
      </trkpt>
      <trkpt lat="44.79316" lon="0.57502">
        <ele>55</ele>
        <time>2016-05-08T11:04:17Z</time>
      </trkpt>
      <trkpt lat="44.7931" lon="0.57495">
        <ele>54</ele>
        <time>2016-05-08T11:04:35Z</time>
      </trkpt>
      <trkpt lat="44.79314" lon="0.57484">
        <ele>44</ele>
        <time>2016-05-08T11:04:51Z</time>
      </trkpt>
      <trkpt lat="44.79315" lon="0.57472">
        <ele>45</ele>
        <time>2016-05-08T11:04:56Z</time>
      </trkpt>
      <trkpt lat="44.79317" lon="0.57461">
        <ele>40</ele>
        <time>2016-05-08T11:05:06Z</time>
      </trkpt>
      <trkpt lat="44.7932" lon="0.57449">
        <ele>39</ele>
        <time>2016-05-08T11:05:13Z</time>
      </trkpt>
      <trkpt lat="44.79323" lon="0.57438">
        <ele>38</ele>
        <time>2016-05-08T11:05:19Z</time>
      </trkpt>
      <trkpt lat="44.79326" lon="0.57427">
        <ele>39</ele>
        <time>2016-05-08T11:05:26Z</time>
      </trkpt>
      <trkpt lat="44.79326" lon="0.57416">
        <ele>41</ele>
        <time>2016-05-08T11:05:34Z</time>
      </trkpt>
      <trkpt lat="44.79325" lon="0.57404">
        <ele>40</ele>
        <time>2016-05-08T11:05:39Z</time>
      </trkpt>
      <trkpt lat="44.79328" lon="0.57392">
        <ele>42</ele>
        <time>2016-05-08T11:05:45Z</time>
      </trkpt>
      <trkpt lat="44.7933" lon="0.5738">
        <ele>44</ele>
        <time>2016-05-08T11:05:51Z</time>
      </trkpt>
      <trkpt lat="44.79335" lon="0.5737">
        <ele>47</ele>
        <time>2016-05-08T11:05:56Z</time>
      </trkpt>
      <trkpt lat="44.79338" lon="0.57359">
        <ele>48</ele>
        <time>2016-05-08T11:06:02Z</time>
      </trkpt>
      <trkpt lat="44.79341" lon="0.57348">
        <ele>50</ele>
        <time>2016-05-08T11:06:08Z</time>
      </trkpt>
      <trkpt lat="44.79346" lon="0.57339">
        <ele>50</ele>
        <time>2016-05-08T11:06:15Z</time>
      </trkpt>
      <trkpt lat="44.7935" lon="0.57328">
        <ele>50</ele>
        <time>2016-05-08T11:06:21Z</time>
      </trkpt>
      <trkpt lat="44.79352" lon="0.57316">
        <ele>49</ele>
        <time>2016-05-08T11:06:27Z</time>
      </trkpt>
      <trkpt lat="44.79355" lon="0.57305">
        <ele>49</ele>
        <time>2016-05-08T11:06:33Z</time>
      </trkpt>
      <trkpt lat="44.79357" lon="0.57294">
        <ele>50</ele>
        <time>2016-05-08T11:06:39Z</time>
      </trkpt>
      <trkpt lat="44.79359" lon="0.57283">
        <ele>51</ele>
        <time>2016-05-08T11:06:46Z</time>
      </trkpt>
      <trkpt lat="44.79363" lon="0.57273">
        <ele>53</ele>
        <time>2016-05-08T11:06:53Z</time>
      </trkpt>
      <trkpt lat="44.79366" lon="0.57263">
        <ele>52</ele>
        <time>2016-05-08T11:06:59Z</time>
      </trkpt>
      <trkpt lat="44.79372" lon="0.57255">
        <ele>52</ele>
        <time>2016-05-08T11:07:05Z</time>
      </trkpt>
      <trkpt lat="44.79377" lon="0.57246">
        <ele>51</ele>
        <time>2016-05-08T11:07:11Z</time>
      </trkpt>
      <trkpt lat="44.79382" lon="0.57236">
        <ele>51</ele>
        <time>2016-05-08T11:07:17Z</time>
      </trkpt>
      <trkpt lat="44.79385" lon="0.57226">
        <ele>52</ele>
        <time>2016-05-08T11:07:22Z</time>
      </trkpt>
      <trkpt lat="44.79387" lon="0.57214">
        <ele>53</ele>
        <time>2016-05-08T11:07:28Z</time>
      </trkpt>
      <trkpt lat="44.79391" lon="0.57203">
        <ele>55</ele>
        <time>2016-05-08T11:07:35Z</time>
      </trkpt>
      <trkpt lat="44.79396" lon="0.57193">
        <ele>56</ele>
        <time>2016-05-08T11:07:42Z</time>
      </trkpt>
      <trkpt lat="44.79401" lon="0.57184">
        <ele>55</ele>
        <time>2016-05-08T11:07:48Z</time>
      </trkpt>
      <trkpt lat="44.79405" lon="0.57174">
        <ele>54</ele>
        <time>2016-05-08T11:07:55Z</time>
      </trkpt>
      <trkpt lat="44.79411" lon="0.57166">
        <ele>52</ele>
        <time>2016-05-08T11:08:02Z</time>
      </trkpt>
      <trkpt lat="44.79416" lon="0.57158">
        <ele>51</ele>
        <time>2016-05-08T11:08:07Z</time>
      </trkpt>
      <trkpt lat="44.79421" lon="0.57149">
        <ele>50</ele>
        <time>2016-05-08T11:08:12Z</time>
      </trkpt>
      <trkpt lat="44.79426" lon="0.57138">
        <ele>51</ele>
        <time>2016-05-08T11:08:18Z</time>
      </trkpt>
      <trkpt lat="44.79431" lon="0.57128">
        <ele>49</ele>
        <time>2016-05-08T11:08:24Z</time>
      </trkpt>
      <trkpt lat="44.79435" lon="0.57117">
        <ele>49</ele>
        <time>2016-05-08T11:08:31Z</time>
      </trkpt>
      <trkpt lat="44.7944" lon="0.5711">
        <ele>49</ele>
        <time>2016-05-08T11:08:37Z</time>
      </trkpt>
      <trkpt lat="44.79445" lon="0.57101">
        <ele>50</ele>
        <time>2016-05-08T11:08:44Z</time>
      </trkpt>
      <trkpt lat="44.79451" lon="0.57092">
        <ele>47</ele>
        <time>2016-05-08T11:08:53Z</time>
      </trkpt>
      <trkpt lat="44.79455" lon="0.57081">
        <ele>44</ele>
        <time>2016-05-08T11:09:01Z</time>
      </trkpt>
      <trkpt lat="44.79461" lon="0.57072">
        <ele>41</ele>
        <time>2016-05-08T11:09:08Z</time>
      </trkpt>
      <trkpt lat="44.79466" lon="0.57064">
        <ele>42</ele>
        <time>2016-05-08T11:09:14Z</time>
      </trkpt>
      <trkpt lat="44.79473" lon="0.57057">
        <ele>43</ele>
        <time>2016-05-08T11:09:20Z</time>
      </trkpt>
      <trkpt lat="44.7948" lon="0.57048">
        <ele>42</ele>
        <time>2016-05-08T11:09:25Z</time>
      </trkpt>
      <trkpt lat="44.79486" lon="0.57039">
        <ele>44</ele>
        <time>2016-05-08T11:09:32Z</time>
      </trkpt>
      <trkpt lat="44.7949" lon="0.5703">
        <ele>40</ele>
        <time>2016-05-08T11:09:41Z</time>
      </trkpt>
      <trkpt lat="44.79495" lon="0.57021">
        <ele>37</ele>
        <time>2016-05-08T11:09:46Z</time>
      </trkpt>
      <trkpt lat="44.79498" lon="0.57009">
        <ele>35</ele>
        <time>2016-05-08T11:09:52Z</time>
      </trkpt>
      <trkpt lat="44.79499" lon="0.56998">
        <ele>37</ele>
        <time>2016-05-08T11:09:57Z</time>
      </trkpt>
      <trkpt lat="44.79499" lon="0.56987">
        <ele>38</ele>
        <time>2016-05-08T11:10:01Z</time>
      </trkpt>
      <trkpt lat="44.79501" lon="0.56976">
        <ele>39</ele>
        <time>2016-05-08T11:10:07Z</time>
      </trkpt>
      <trkpt lat="44.79502" lon="0.56965">
        <ele>38</ele>
        <time>2016-05-08T11:10:14Z</time>
      </trkpt>
      <trkpt lat="44.79508" lon="0.56957">
        <ele>39</ele>
        <time>2016-05-08T11:10:19Z</time>
      </trkpt>
      <trkpt lat="44.79514" lon="0.56948">
        <ele>37</ele>
        <time>2016-05-08T11:10:25Z</time>
      </trkpt>
      <trkpt lat="44.79519" lon="0.56939">
        <ele>37</ele>
        <time>2016-05-08T11:10:32Z</time>
      </trkpt>
      <trkpt lat="44.79523" lon="0.56929">
        <ele>36</ele>
        <time>2016-05-08T11:10:38Z</time>
      </trkpt>
      <trkpt lat="44.79527" lon="0.56919">
        <ele>35</ele>
        <time>2016-05-08T11:10:44Z</time>
      </trkpt>
      <trkpt lat="44.7953" lon="0.56908">
        <ele>39</ele>
        <time>2016-05-08T11:10:48Z</time>
      </trkpt>
      <trkpt lat="44.79535" lon="0.56899">
        <ele>43</ele>
        <time>2016-05-08T11:10:52Z</time>
      </trkpt>
      <trkpt lat="44.79537" lon="0.56887">
        <ele>47</ele>
        <time>2016-05-08T11:10:56Z</time>
      </trkpt>
      <trkpt lat="44.79539" lon="0.56877">
        <ele>48</ele>
        <time>2016-05-08T11:11:00Z</time>
      </trkpt>
      <trkpt lat="44.79542" lon="0.56866">
        <ele>51</ele>
        <time>2016-05-08T11:11:05Z</time>
      </trkpt>
      <trkpt lat="44.79545" lon="0.56854">
        <ele>50</ele>
        <time>2016-05-08T11:11:11Z</time>
      </trkpt>
      <trkpt lat="44.79548" lon="0.56844">
        <ele>50</ele>
        <time>2016-05-08T11:11:17Z</time>
      </trkpt>
      <trkpt lat="44.79552" lon="0.56834">
        <ele>53</ele>
        <time>2016-05-08T11:11:22Z</time>
      </trkpt>
      <trkpt lat="44.79555" lon="0.56827">
        <ele>52</ele>
        <time>2016-05-08T11:11:25Z</time>
      </trkpt>
      <trkpt lat="44.79558" lon="0.56816">
        <ele>51</ele>
        <time>2016-05-08T11:11:30Z</time>
      </trkpt>
      <trkpt lat="44.79562" lon="0.56805">
        <ele>49</ele>
        <time>2016-05-08T11:11:36Z</time>
      </trkpt>
      <trkpt lat="44.79566" lon="0.56796">
        <ele>45</ele>
        <time>2016-05-08T11:11:43Z</time>
      </trkpt>
      <trkpt lat="44.79568" lon="0.56784">
        <ele>36</ele>
        <time>2016-05-08T11:11:58Z</time>
      </trkpt>
      <trkpt lat="44.79572" lon="0.56773">
        <ele>29</ele>
        <time>2016-05-08T11:12:07Z</time>
      </trkpt>
      <trkpt lat="44.79575" lon="0.56763">
        <ele>28</ele>
        <time>2016-05-08T11:12:12Z</time>
      </trkpt>
      <trkpt lat="44.7958" lon="0.56753">
        <ele>27</ele>
        <time>2016-05-08T11:12:18Z</time>
      </trkpt>
      <trkpt lat="44.79586" lon="0.56746">
        <ele>23</ele>
        <time>2016-05-08T11:12:24Z</time>
      </trkpt>
      <trkpt lat="44.79593" lon="0.56738">
        <ele>21</ele>
        <time>2016-05-08T11:12:32Z</time>
      </trkpt>
      <trkpt lat="44.79598" lon="0.56729">
        <ele>18</ele>
        <time>2016-05-08T11:12:40Z</time>
      </trkpt>
      <trkpt lat="44.79603" lon="0.5672">
        <ele>25</ele>
        <time>2016-05-08T11:12:45Z</time>
      </trkpt>
      <trkpt lat="44.79603" lon="0.56708">
        <ele>36</ele>
        <time>2016-05-08T11:12:51Z</time>
      </trkpt>
      <trkpt lat="44.79599" lon="0.56699">
        <ele>40</ele>
        <time>2016-05-08T11:12:57Z</time>
      </trkpt>
      <trkpt lat="44.79591" lon="0.5669">
        <ele>38</ele>
        <time>2016-05-08T11:13:02Z</time>
      </trkpt>
      <trkpt lat="44.79585" lon="0.56684">
        <ele>43</ele>
        <time>2016-05-08T11:13:09Z</time>
      </trkpt>
      <trkpt lat="44.79579" lon="0.56677">
        <ele>44</ele>
        <time>2016-05-08T11:13:14Z</time>
      </trkpt>
      <trkpt lat="44.79574" lon="0.56668">
        <ele>46</ele>
        <time>2016-05-08T11:13:19Z</time>
      </trkpt>
      <trkpt lat="44.79567" lon="0.56662">
        <ele>49</ele>
        <time>2016-05-08T11:13:25Z</time>
      </trkpt>
      <trkpt lat="44.7956" lon="0.56656">
        <ele>47</ele>
        <time>2016-05-08T11:13:30Z</time>
      </trkpt>
      <trkpt lat="44.79554" lon="0.56647">
        <ele>44</ele>
        <time>2016-05-08T11:13:37Z</time>
      </trkpt>
      <trkpt lat="44.79547" lon="0.56642">
        <ele>43</ele>
        <time>2016-05-08T11:13:43Z</time>
      </trkpt>
      <trkpt lat="44.79543" lon="0.56634">
        <ele>48</ele>
        <time>2016-05-08T11:13:48Z</time>
      </trkpt>
      <trkpt lat="44.79536" lon="0.56626">
        <ele>47</ele>
        <time>2016-05-08T11:13:53Z</time>
      </trkpt>
      <trkpt lat="44.79529" lon="0.5662">
        <ele>48</ele>
        <time>2016-05-08T11:13:58Z</time>
      </trkpt>
      <trkpt lat="44.79523" lon="0.56613">
        <ele>49</ele>
        <time>2016-05-08T11:14:04Z</time>
      </trkpt>
      <trkpt lat="44.79517" lon="0.56604">
        <ele>50</ele>
        <time>2016-05-08T11:14:11Z</time>
      </trkpt>
      <trkpt lat="44.7951" lon="0.56597">
        <ele>50</ele>
        <time>2016-05-08T11:14:18Z</time>
      </trkpt>
      <trkpt lat="44.79503" lon="0.56591">
        <ele>49</ele>
        <time>2016-05-08T11:14:24Z</time>
      </trkpt>
      <trkpt lat="44.79497" lon="0.56583">
        <ele>51</ele>
        <time>2016-05-08T11:14:30Z</time>
      </trkpt>
      <trkpt lat="44.79489" lon="0.56577">
        <ele>53</ele>
        <time>2016-05-08T11:14:35Z</time>
      </trkpt>
      <trkpt lat="44.79482" lon="0.5657">
        <ele>52</ele>
        <time>2016-05-08T11:14:41Z</time>
      </trkpt>
      <trkpt lat="44.79476" lon="0.56561">
        <ele>52</ele>
        <time>2016-05-08T11:14:48Z</time>
      </trkpt>
      <trkpt lat="44.79469" lon="0.56555">
        <ele>52</ele>
        <time>2016-05-08T11:14:54Z</time>
      </trkpt>
      <trkpt lat="44.79462" lon="0.5655">
        <ele>52</ele>
        <time>2016-05-08T11:14:59Z</time>
      </trkpt>
      <trkpt lat="44.79455" lon="0.56544">
        <ele>51</ele>
        <time>2016-05-08T11:15:07Z</time>
      </trkpt>
      <trkpt lat="44.79447" lon="0.56538">
        <ele>48</ele>
        <time>2016-05-08T11:15:15Z</time>
      </trkpt>
      <trkpt lat="44.7944" lon="0.56533">
        <ele>46</ele>
        <time>2016-05-08T11:15:22Z</time>
      </trkpt>
      <trkpt lat="44.79433" lon="0.56527">
        <ele>44</ele>
        <time>2016-05-08T11:15:29Z</time>
      </trkpt>
      <trkpt lat="44.79427" lon="0.56519">
        <ele>43</ele>
        <time>2016-05-08T11:15:36Z</time>
      </trkpt>
      <trkpt lat="44.79419" lon="0.56512">
        <ele>43</ele>
        <time>2016-05-08T11:15:44Z</time>
      </trkpt>
      <trkpt lat="44.79412" lon="0.56506">
        <ele>43</ele>
        <time>2016-05-08T11:15:52Z</time>
      </trkpt>
      <trkpt lat="44.79404" lon="0.565">
        <ele>43</ele>
        <time>2016-05-08T11:15:59Z</time>
      </trkpt>
      <trkpt lat="44.79399" lon="0.56493">
        <ele>44</ele>
        <time>2016-05-08T11:16:05Z</time>
      </trkpt>
      <trkpt lat="44.79391" lon="0.56486">
        <ele>42</ele>
        <time>2016-05-08T11:16:13Z</time>
      </trkpt>
      <trkpt lat="44.79384" lon="0.56479">
        <ele>42</ele>
        <time>2016-05-08T11:16:23Z</time>
      </trkpt>
      <trkpt lat="44.79375" lon="0.56479">
        <ele>43</ele>
        <time>2016-05-08T11:16:29Z</time>
      </trkpt>
      <trkpt lat="44.79367" lon="0.56479">
        <ele>43</ele>
        <time>2016-05-08T11:16:33Z</time>
      </trkpt>
      <trkpt lat="44.79358" lon="0.5648">
        <ele>45</ele>
        <time>2016-05-08T11:16:37Z</time>
      </trkpt>
      <trkpt lat="44.7935" lon="0.5648">
        <ele>46</ele>
        <time>2016-05-08T11:16:41Z</time>
      </trkpt>
      <trkpt lat="44.79342" lon="0.56478">
        <ele>46</ele>
        <time>2016-05-08T11:16:46Z</time>
      </trkpt>
      <trkpt lat="44.79333" lon="0.56477">
        <ele>47</ele>
        <time>2016-05-08T11:16:52Z</time>
      </trkpt>
      <trkpt lat="44.79325" lon="0.56475">
        <ele>49</ele>
        <time>2016-05-08T11:16:58Z</time>
      </trkpt>
      <trkpt lat="44.79318" lon="0.56471">
        <ele>49</ele>
        <time>2016-05-08T11:17:04Z</time>
      </trkpt>
      <trkpt lat="44.79311" lon="0.56464">
        <ele>50</ele>
        <time>2016-05-08T11:17:10Z</time>
      </trkpt>
      <trkpt lat="44.79304" lon="0.56458">
        <ele>51</ele>
        <time>2016-05-08T11:17:15Z</time>
      </trkpt>
      <trkpt lat="44.79297" lon="0.56454">
        <ele>49</ele>
        <time>2016-05-08T11:17:20Z</time>
      </trkpt>
      <trkpt lat="44.7929" lon="0.56448">
        <ele>48</ele>
        <time>2016-05-08T11:17:25Z</time>
      </trkpt>
      <trkpt lat="44.79284" lon="0.5644">
        <ele>46</ele>
        <time>2016-05-08T11:17:31Z</time>
      </trkpt>
      <trkpt lat="44.79278" lon="0.56432">
        <ele>45</ele>
        <time>2016-05-08T11:17:37Z</time>
      </trkpt>
      <trkpt lat="44.79272" lon="0.56426">
        <ele>45</ele>
        <time>2016-05-08T11:17:42Z</time>
      </trkpt>
      <trkpt lat="44.79265" lon="0.5642">
        <ele>47</ele>
        <time>2016-05-08T11:17:47Z</time>
      </trkpt>
      <trkpt lat="44.79259" lon="0.56411">
        <ele>49</ele>
        <time>2016-05-08T11:17:55Z</time>
      </trkpt>
      <trkpt lat="44.79254" lon="0.56405">
        <ele>49</ele>
        <time>2016-05-08T11:19:58Z</time>
      </trkpt>
      <trkpt lat="44.79245" lon="0.56399">
        <ele>39</ele>
        <time>2016-05-08T11:20:02Z</time>
      </trkpt>
      <trkpt lat="44.79237" lon="0.56397">
        <ele>32</ele>
        <time>2016-05-08T11:22:37Z</time>
      </trkpt>
      <trkpt lat="44.79229" lon="0.56402">
        <ele>33</ele>
        <time>2016-05-08T11:22:48Z</time>
      </trkpt>
      <trkpt lat="44.79228" lon="0.56414">
        <ele>34</ele>
        <time>2016-05-08T11:22:56Z</time>
      </trkpt>
      <trkpt lat="44.79227" lon="0.56426">
        <ele>36</ele>
        <time>2016-05-08T11:23:04Z</time>
      </trkpt>
      <trkpt lat="44.79226" lon="0.56437">
        <ele>37</ele>
        <time>2016-05-08T11:23:11Z</time>
      </trkpt>
      <trkpt lat="44.79224" lon="0.56449">
        <ele>37</ele>
        <time>2016-05-08T11:23:18Z</time>
      </trkpt>
      <trkpt lat="44.79222" lon="0.5646">
        <ele>37</ele>
        <time>2016-05-08T11:23:24Z</time>
      </trkpt>
      <trkpt lat="44.79217" lon="0.5647">
        <ele>33</ele>
        <time>2016-05-08T11:23:30Z</time>
      </trkpt>
      <trkpt lat="44.79216" lon="0.56481">
        <ele>34</ele>
        <time>2016-05-08T11:23:38Z</time>
      </trkpt>
      <trkpt lat="44.79212" lon="0.56493">
        <ele>38</ele>
        <time>2016-05-08T11:23:48Z</time>
      </trkpt>
      <trkpt lat="44.79211" lon="0.56505">
        <ele>39</ele>
        <time>2016-05-08T11:23:57Z</time>
      </trkpt>
      <trkpt lat="44.79208" lon="0.56516">
        <ele>41</ele>
        <time>2016-05-08T11:24:04Z</time>
      </trkpt>
      <trkpt lat="44.79203" lon="0.56526">
        <ele>44</ele>
        <time>2016-05-08T11:24:10Z</time>
      </trkpt>
      <trkpt lat="44.792" lon="0.56537">
        <ele>42</ele>
        <time>2016-05-08T11:24:17Z</time>
      </trkpt>
      <trkpt lat="44.79195" lon="0.56547">
        <ele>38</ele>
        <time>2016-05-08T11:24:25Z</time>
      </trkpt>
      <trkpt lat="44.79189" lon="0.56557">
        <ele>36</ele>
        <time>2016-05-08T11:24:32Z</time>
      </trkpt>
      <trkpt lat="44.79185" lon="0.56565">
        <ele>38</ele>
        <time>2016-05-08T11:24:38Z</time>
      </trkpt>
      <trkpt lat="44.79178" lon="0.56573">
        <ele>37</ele>
        <time>2016-05-08T11:24:44Z</time>
      </trkpt>
      <trkpt lat="44.79172" lon="0.56581">
        <ele>36</ele>
        <time>2016-05-08T11:24:50Z</time>
      </trkpt>
      <trkpt lat="44.79166" lon="0.56588">
        <ele>33</ele>
        <time>2016-05-08T11:24:57Z</time>
      </trkpt>
      <trkpt lat="44.79161" lon="0.56598">
        <ele>30</ele>
        <time>2016-05-08T11:25:04Z</time>
      </trkpt>
      <trkpt lat="44.79158" lon="0.56607">
        <ele>31</ele>
        <time>2016-05-08T11:25:09Z</time>
      </trkpt>
      <trkpt lat="44.79156" lon="0.56618">
        <ele>30</ele>
        <time>2016-05-08T11:25:15Z</time>
      </trkpt>
      <trkpt lat="44.79154" lon="0.56631">
        <ele>29</ele>
        <time>2016-05-08T11:25:22Z</time>
      </trkpt>
      <trkpt lat="44.7915" lon="0.56638">
        <ele>35</ele>
        <time>2016-05-08T11:25:26Z</time>
      </trkpt>
      <trkpt lat="44.79143" lon="0.56645">
        <ele>41</ele>
        <time>2016-05-08T11:25:30Z</time>
      </trkpt>
      <trkpt lat="44.79136" lon="0.56649">
        <ele>44</ele>
        <time>2016-05-08T11:25:37Z</time>
      </trkpt>
      <trkpt lat="44.79127" lon="0.56649">
        <ele>45</ele>
        <time>2016-05-08T11:25:44Z</time>
      </trkpt>
      <trkpt lat="44.79118" lon="0.5665">
        <ele>45</ele>
        <time>2016-05-08T11:25:50Z</time>
      </trkpt>
      <trkpt lat="44.7911" lon="0.56649">
        <ele>44</ele>
        <time>2016-05-08T11:25:54Z</time>
      </trkpt>
      <trkpt lat="44.79103" lon="0.56651">
        <ele>44</ele>
        <time>2016-05-08T11:25:59Z</time>
      </trkpt>
      <trkpt lat="44.79095" lon="0.56652">
        <ele>44</ele>
        <time>2016-05-08T11:26:05Z</time>
      </trkpt>
      <trkpt lat="44.79088" lon="0.56653">
        <ele>46</ele>
        <time>2016-05-08T11:26:10Z</time>
      </trkpt>
      <trkpt lat="44.7908" lon="0.56653">
        <ele>49</ele>
        <time>2016-05-08T11:26:15Z</time>
      </trkpt>
      <trkpt lat="44.79071" lon="0.56653">
        <ele>51</ele>
        <time>2016-05-08T11:26:22Z</time>
      </trkpt>
      <trkpt lat="44.79063" lon="0.56654">
        <ele>51</ele>
        <time>2016-05-08T11:26:29Z</time>
      </trkpt>
      <trkpt lat="44.79055" lon="0.56654">
        <ele>49</ele>
        <time>2016-05-08T11:26:36Z</time>
      </trkpt>
      <trkpt lat="44.79047" lon="0.56654">
        <ele>51</ele>
        <time>2016-05-08T11:26:43Z</time>
      </trkpt>
      <trkpt lat="44.79038" lon="0.56655">
        <ele>51</ele>
        <time>2016-05-08T11:26:49Z</time>
      </trkpt>
      <trkpt lat="44.7903" lon="0.56656">
        <ele>52</ele>
        <time>2016-05-08T11:26:54Z</time>
      </trkpt>
      <trkpt lat="44.79021" lon="0.56659">
        <ele>55</ele>
        <time>2016-05-08T11:27:00Z</time>
      </trkpt>
      <trkpt lat="44.79013" lon="0.56659">
        <ele>56</ele>
        <time>2016-05-08T11:27:07Z</time>
      </trkpt>
      <trkpt lat="44.79005" lon="0.56661">
        <ele>56</ele>
        <time>2016-05-08T11:27:15Z</time>
      </trkpt>
      <trkpt lat="44.78998" lon="0.56668">
        <ele>59</ele>
        <time>2016-05-08T11:27:25Z</time>
      </trkpt>
      <trkpt lat="44.7899" lon="0.56673">
        <ele>56</ele>
        <time>2016-05-08T11:27:30Z</time>
      </trkpt>
      <trkpt lat="44.78982" lon="0.56678">
        <ele>55</ele>
        <time>2016-05-08T11:27:37Z</time>
      </trkpt>
      <trkpt lat="44.78976" lon="0.56682">
        <ele>56</ele>
        <time>2016-05-08T11:27:42Z</time>
      </trkpt>
      <trkpt lat="44.78968" lon="0.56687">
        <ele>57</ele>
        <time>2016-05-08T11:27:47Z</time>
      </trkpt>
      <trkpt lat="44.7896" lon="0.56691">
        <ele>59</ele>
        <time>2016-05-08T11:27:54Z</time>
      </trkpt>
      <trkpt lat="44.78952" lon="0.56693">
        <ele>58</ele>
        <time>2016-05-08T11:27:59Z</time>
      </trkpt>
      <trkpt lat="44.78943" lon="0.56696">
        <ele>56</ele>
        <time>2016-05-08T11:28:05Z</time>
      </trkpt>
      <trkpt lat="44.78935" lon="0.567">
        <ele>54</ele>
        <time>2016-05-08T11:28:12Z</time>
      </trkpt>
      <trkpt lat="44.78927" lon="0.56702">
        <ele>51</ele>
        <time>2016-05-08T11:28:18Z</time>
      </trkpt>
      <trkpt lat="44.78919" lon="0.56706">
        <ele>52</ele>
        <time>2016-05-08T11:28:25Z</time>
      </trkpt>
      <trkpt lat="44.7891" lon="0.56708">
        <ele>52</ele>
        <time>2016-05-08T11:28:30Z</time>
      </trkpt>
      <trkpt lat="44.78903" lon="0.5671">
        <ele>52</ele>
        <time>2016-05-08T11:28:36Z</time>
      </trkpt>
      <trkpt lat="44.78894" lon="0.56712">
        <ele>51</ele>
        <time>2016-05-08T11:28:44Z</time>
      </trkpt>
      <trkpt lat="44.78886" lon="0.5671">
        <ele>50</ele>
        <time>2016-05-08T11:28:52Z</time>
      </trkpt>
      <trkpt lat="44.78878" lon="0.56709">
        <ele>42</ele>
        <time>2016-05-08T11:29:01Z</time>
      </trkpt>
      <trkpt lat="44.78869" lon="0.56709">
        <ele>37</ele>
        <time>2016-05-08T11:29:10Z</time>
      </trkpt>
      <trkpt lat="44.78861" lon="0.56712">
        <ele>36</ele>
        <time>2016-05-08T11:29:16Z</time>
      </trkpt>
      <trkpt lat="44.78855" lon="0.56721">
        <ele>37</ele>
        <time>2016-05-08T11:29:23Z</time>
      </trkpt>
      <trkpt lat="44.78848" lon="0.56728">
        <ele>42</ele>
        <time>2016-05-08T11:29:27Z</time>
      </trkpt>
      <trkpt lat="44.78841" lon="0.56734">
        <ele>44</ele>
        <time>2016-05-08T11:29:34Z</time>
      </trkpt>
      <trkpt lat="44.78833" lon="0.56738">
        <ele>45</ele>
        <time>2016-05-08T11:29:41Z</time>
      </trkpt>
      <trkpt lat="44.78826" lon="0.56744">
        <ele>47</ele>
        <time>2016-05-08T11:29:46Z</time>
      </trkpt>
      <trkpt lat="44.78819" lon="0.56751">
        <ele>49</ele>
        <time>2016-05-08T11:29:52Z</time>
      </trkpt>
      <trkpt lat="44.78811" lon="0.56757">
        <ele>50</ele>
        <time>2016-05-08T11:30:00Z</time>
      </trkpt>
      <trkpt lat="44.78803" lon="0.56761">
        <ele>50</ele>
        <time>2016-05-08T11:30:09Z</time>
      </trkpt>
      <trkpt lat="44.78795" lon="0.56767">
        <ele>49</ele>
        <time>2016-05-08T11:30:17Z</time>
      </trkpt>
      <trkpt lat="44.78788" lon="0.56773">
        <ele>49</ele>
        <time>2016-05-08T11:30:22Z</time>
      </trkpt>
      <trkpt lat="44.78781" lon="0.56778">
        <ele>47</ele>
        <time>2016-05-08T11:30:27Z</time>
      </trkpt>
      <trkpt lat="44.78776" lon="0.56787">
        <ele>48</ele>
        <time>2016-05-08T11:30:32Z</time>
      </trkpt>
      <trkpt lat="44.7877" lon="0.56797">
        <ele>48</ele>
        <time>2016-05-08T11:30:39Z</time>
      </trkpt>
      <trkpt lat="44.78766" lon="0.56807">
        <ele>48</ele>
        <time>2016-05-08T11:30:46Z</time>
      </trkpt>
      <trkpt lat="44.78762" lon="0.56817">
        <ele>49</ele>
        <time>2016-05-08T11:30:53Z</time>
      </trkpt>
      <trkpt lat="44.78757" lon="0.56825">
        <ele>48</ele>
        <time>2016-05-08T11:31:00Z</time>
      </trkpt>
      <trkpt lat="44.78751" lon="0.56832">
        <ele>52</ele>
        <time>2016-05-08T11:31:06Z</time>
      </trkpt>
      <trkpt lat="44.78743" lon="0.56832">
        <ele>56</ele>
        <time>2016-05-08T11:31:12Z</time>
      </trkpt>
      <trkpt lat="44.78735" lon="0.56827">
        <ele>57</ele>
        <time>2016-05-08T11:31:19Z</time>
      </trkpt>
      <trkpt lat="44.78728" lon="0.56819">
        <ele>58</ele>
        <time>2016-05-08T11:31:27Z</time>
      </trkpt>
      <trkpt lat="44.78722" lon="0.56811">
        <ele>56</ele>
        <time>2016-05-08T11:31:34Z</time>
      </trkpt>
      <trkpt lat="44.78716" lon="0.56804">
        <ele>55</ele>
        <time>2016-05-08T11:31:40Z</time>
      </trkpt>
      <trkpt lat="44.78709" lon="0.56797">
        <ele>54</ele>
        <time>2016-05-08T11:31:46Z</time>
      </trkpt>
      <trkpt lat="44.78703" lon="0.56788">
        <ele>54</ele>
        <time>2016-05-08T11:31:52Z</time>
      </trkpt>
      <trkpt lat="44.78696" lon="0.56781">
        <ele>53</ele>
        <time>2016-05-08T11:31:58Z</time>
      </trkpt>
      <trkpt lat="44.7869" lon="0.56774">
        <ele>50</ele>
        <time>2016-05-08T11:32:04Z</time>
      </trkpt>
      <trkpt lat="44.78684" lon="0.56767">
        <ele>51</ele>
        <time>2016-05-08T11:32:10Z</time>
      </trkpt>
      <trkpt lat="44.78677" lon="0.5676">
        <ele>52</ele>
        <time>2016-05-08T11:32:16Z</time>
      </trkpt>
      <trkpt lat="44.78671" lon="0.56752">
        <ele>50</ele>
        <time>2016-05-08T11:32:23Z</time>
      </trkpt>
      <trkpt lat="44.78664" lon="0.56747">
        <ele>48</ele>
        <time>2016-05-08T11:32:29Z</time>
      </trkpt>
      <trkpt lat="44.78657" lon="0.56741">
        <ele>46</ele>
        <time>2016-05-08T11:32:35Z</time>
      </trkpt>
      <trkpt lat="44.7865" lon="0.56736">
        <ele>45</ele>
        <time>2016-05-08T11:32:42Z</time>
      </trkpt>
      <trkpt lat="44.78642" lon="0.5673">
        <ele>43</ele>
        <time>2016-05-08T11:32:50Z</time>
      </trkpt>
      <trkpt lat="44.78635" lon="0.56724">
        <ele>43</ele>
        <time>2016-05-08T11:32:58Z</time>
      </trkpt>
      <trkpt lat="44.78628" lon="0.56719">
        <ele>42</ele>
        <time>2016-05-08T11:33:05Z</time>
      </trkpt>
      <trkpt lat="44.78621" lon="0.56713">
        <ele>41</ele>
        <time>2016-05-08T11:33:13Z</time>
      </trkpt>
      <trkpt lat="44.78614" lon="0.56707">
        <ele>41</ele>
        <time>2016-05-08T11:33:20Z</time>
      </trkpt>
      <trkpt lat="44.78608" lon="0.567">
        <ele>41</ele>
        <time>2016-05-08T11:33:26Z</time>
      </trkpt>
      <trkpt lat="44.786" lon="0.56695">
        <ele>42</ele>
        <time>2016-05-08T11:33:33Z</time>
      </trkpt>
      <trkpt lat="44.78592" lon="0.5669">
        <ele>45</ele>
        <time>2016-05-08T11:33:42Z</time>
      </trkpt>
      <trkpt lat="44.78586" lon="0.56683">
        <ele>47</ele>
        <time>2016-05-08T11:33:48Z</time>
      </trkpt>
      <trkpt lat="44.78579" lon="0.56677">
        <ele>47</ele>
        <time>2016-05-08T11:33:54Z</time>
      </trkpt>
      <trkpt lat="44.78572" lon="0.56672">
        <ele>47</ele>
        <time>2016-05-08T11:34:00Z</time>
      </trkpt>
      <trkpt lat="44.78565" lon="0.56666">
        <ele>46</ele>
        <time>2016-05-08T11:34:07Z</time>
      </trkpt>
      <trkpt lat="44.78557" lon="0.5666">
        <ele>46</ele>
        <time>2016-05-08T11:34:15Z</time>
      </trkpt>
      <trkpt lat="44.78551" lon="0.56656">
        <ele>45</ele>
        <time>2016-05-08T11:34:21Z</time>
      </trkpt>
      <trkpt lat="44.78542" lon="0.56653">
        <ele>46</ele>
        <time>2016-05-08T11:34:26Z</time>
      </trkpt>
      <trkpt lat="44.78535" lon="0.56658">
        <ele>45</ele>
        <time>2016-05-08T11:34:34Z</time>
      </trkpt>
      <trkpt lat="44.78528" lon="0.56666">
        <ele>43</ele>
        <time>2016-05-08T11:34:41Z</time>
      </trkpt>
      <trkpt lat="44.78521" lon="0.56673">
        <ele>36</ele>
        <time>2016-05-08T11:34:54Z</time>
      </trkpt>
      <trkpt lat="44.78518" lon="0.56682">
        <ele>36</ele>
        <time>2016-05-08T11:34:59Z</time>
      </trkpt>
      <trkpt lat="44.78515" lon="0.56692">
        <ele>38</ele>
        <time>2016-05-08T11:35:03Z</time>
      </trkpt>
      <trkpt lat="44.78509" lon="0.56702">
        <ele>36</ele>
        <time>2016-05-08T11:35:09Z</time>
      </trkpt>
      <trkpt lat="44.78505" lon="0.56711">
        <ele>37</ele>
        <time>2016-05-08T11:35:13Z</time>
      </trkpt>
      <trkpt lat="44.785" lon="0.56721">
        <ele>38</ele>
        <time>2016-05-08T11:35:19Z</time>
      </trkpt>
      <trkpt lat="44.78495" lon="0.56731">
        <ele>36</ele>
        <time>2016-05-08T11:35:27Z</time>
      </trkpt>
      <trkpt lat="44.7849" lon="0.56741">
        <ele>35</ele>
        <time>2016-05-08T11:35:33Z</time>
      </trkpt>
      <trkpt lat="44.78486" lon="0.56751">
        <ele>33</ele>
        <time>2016-05-08T11:35:40Z</time>
      </trkpt>
      <trkpt lat="44.78482" lon="0.56762">
        <ele>35</ele>
        <time>2016-05-08T11:35:44Z</time>
      </trkpt>
      <trkpt lat="44.78478" lon="0.56772">
        <ele>37</ele>
        <time>2016-05-08T11:35:48Z</time>
      </trkpt>
      <trkpt lat="44.78475" lon="0.56782">
        <ele>40</ele>
        <time>2016-05-08T11:35:53Z</time>
      </trkpt>
      <trkpt lat="44.78472" lon="0.56794">
        <ele>41</ele>
        <time>2016-05-08T11:35:59Z</time>
      </trkpt>
      <trkpt lat="44.78468" lon="0.56806">
        <ele>41</ele>
        <time>2016-05-08T11:36:06Z</time>
      </trkpt>
      <trkpt lat="44.78466" lon="0.56817">
        <ele>41</ele>
        <time>2016-05-08T11:36:12Z</time>
      </trkpt>
      <trkpt lat="44.78463" lon="0.56828">
        <ele>40</ele>
        <time>2016-05-08T11:36:19Z</time>
      </trkpt>
      <trkpt lat="44.78462" lon="0.5684">
        <ele>41</ele>
        <time>2016-05-08T11:36:26Z</time>
      </trkpt>
      <trkpt lat="44.7846" lon="0.56851">
        <ele>42</ele>
        <time>2016-05-08T11:36:31Z</time>
      </trkpt>
      <trkpt lat="44.78458" lon="0.56863">
        <ele>42</ele>
        <time>2016-05-08T11:36:37Z</time>
      </trkpt>
      <trkpt lat="44.78458" lon="0.56875">
        <ele>44</ele>
        <time>2016-05-08T11:36:43Z</time>
      </trkpt>
      <trkpt lat="44.78458" lon="0.56888">
        <ele>44</ele>
        <time>2016-05-08T11:36:50Z</time>
      </trkpt>
      <trkpt lat="44.78458" lon="0.56899">
        <ele>43</ele>
        <time>2016-05-08T11:36:56Z</time>
      </trkpt>
      <trkpt lat="44.78458" lon="0.5691">
        <ele>42</ele>
        <time>2016-05-08T11:37:01Z</time>
      </trkpt>
      <trkpt lat="44.7846" lon="0.5692">
        <ele>40</ele>
        <time>2016-05-08T11:37:07Z</time>
      </trkpt>
      <trkpt lat="44.78463" lon="0.56932">
        <ele>38</ele>
        <time>2016-05-08T11:37:14Z</time>
      </trkpt>
      <trkpt lat="44.78466" lon="0.56942">
        <ele>36</ele>
        <time>2016-05-08T11:37:20Z</time>
      </trkpt>
      <trkpt lat="44.78467" lon="0.56952">
        <ele>38</ele>
        <time>2016-05-08T11:37:25Z</time>
      </trkpt>
      <trkpt lat="44.78467" lon="0.56965">
        <ele>42</ele>
        <time>2016-05-08T11:37:30Z</time>
      </trkpt>
      <trkpt lat="44.78468" lon="0.56977">
        <ele>42</ele>
        <time>2016-05-08T11:37:35Z</time>
      </trkpt>
      <trkpt lat="44.78467" lon="0.56989">
        <ele>42</ele>
        <time>2016-05-08T11:37:41Z</time>
      </trkpt>
      <trkpt lat="44.78468" lon="0.57001">
        <ele>42</ele>
        <time>2016-05-08T11:37:49Z</time>
      </trkpt>
      <trkpt lat="44.7847" lon="0.57011">
        <ele>41</ele>
        <time>2016-05-08T11:37:55Z</time>
      </trkpt>
      <trkpt lat="44.78473" lon="0.57023">
        <ele>40</ele>
        <time>2016-05-08T11:38:02Z</time>
      </trkpt>
      <trkpt lat="44.78476" lon="0.57033">
        <ele>38</ele>
        <time>2016-05-08T11:38:09Z</time>
      </trkpt>
      <trkpt lat="44.78476" lon="0.57043">
        <ele>37</ele>
        <time>2016-05-08T11:38:14Z</time>
      </trkpt>
      <trkpt lat="44.78477" lon="0.57055">
        <ele>37</ele>
        <time>2016-05-08T11:38:19Z</time>
      </trkpt>
      <trkpt lat="44.78483" lon="0.57067">
        <ele>41</ele>
        <time>2016-05-08T11:38:23Z</time>
      </trkpt>
      <trkpt lat="44.78482" lon="0.57081">
        <ele>38</ele>
        <time>2016-05-08T11:38:28Z</time>
      </trkpt>
      <trkpt lat="44.78482" lon="0.57092">
        <ele>38</ele>
        <time>2016-05-08T11:38:33Z</time>
      </trkpt>
      <trkpt lat="44.78483" lon="0.57104">
        <ele>36</ele>
        <time>2016-05-08T11:38:39Z</time>
      </trkpt>
      <trkpt lat="44.78481" lon="0.57115">
        <ele>36</ele>
        <time>2016-05-08T11:38:46Z</time>
      </trkpt>
      <trkpt lat="44.7848" lon="0.57128">
        <ele>35</ele>
        <time>2016-05-08T11:38:52Z</time>
      </trkpt>
      <trkpt lat="44.78482" lon="0.57137">
        <ele>32</ele>
        <time>2016-05-08T11:39:10Z</time>
      </trkpt>
      <trkpt lat="44.78483" lon="0.57144">
        <ele>29</ele>
        <time>2016-05-08T11:39:31Z</time>
      </trkpt>
      <trkpt lat="44.78489" lon="0.57159">
        <ele>-7</ele>
        <time>2016-05-08T11:39:36Z</time>
      </trkpt>
      <trkpt lat="44.7849" lon="0.57163">
        <ele>-5</ele>
        <time>2016-05-08T11:39:48Z</time>
      </trkpt>
      <trkpt lat="44.78496" lon="0.57183">
        <ele>-3</ele>
        <time>2016-05-08T11:39:52Z</time>
      </trkpt>
      <trkpt lat="44.78496" lon="0.57205">
        <ele>2</ele>
        <time>2016-05-08T11:39:57Z</time>
      </trkpt>
      <trkpt lat="44.78497" lon="0.57234">
        <ele>19</ele>
        <time>2016-05-08T11:40:01Z</time>
      </trkpt>
      <trkpt lat="44.78504" lon="0.57246">
        <ele>25</ele>
        <time>2016-05-08T11:40:06Z</time>
      </trkpt>
      <trkpt lat="44.78509" lon="0.57255">
        <ele>28</ele>
        <time>2016-05-08T11:40:11Z</time>
      </trkpt>
      <trkpt lat="44.78515" lon="0.57263">
        <ele>29</ele>
        <time>2016-05-08T11:40:20Z</time>
      </trkpt>
      <trkpt lat="44.78519" lon="0.57275">
        <ele>28</ele>
        <time>2016-05-08T11:40:26Z</time>
      </trkpt>
      <trkpt lat="44.78519" lon="0.57287">
        <ele>28</ele>
        <time>2016-05-08T11:40:34Z</time>
      </trkpt>
      <trkpt lat="44.78516" lon="0.57297">
        <ele>25</ele>
        <time>2016-05-08T11:40:38Z</time>
      </trkpt>
      <trkpt lat="44.78515" lon="0.57309">
        <ele>27</ele>
        <time>2016-05-08T11:40:50Z</time>
      </trkpt>
      <trkpt lat="44.78512" lon="0.57321">
        <ele>26</ele>
        <time>2016-05-08T11:40:56Z</time>
      </trkpt>
      <trkpt lat="44.78509" lon="0.57331">
        <ele>31</ele>
        <time>2016-05-08T11:41:01Z</time>
      </trkpt>
      <trkpt lat="44.78505" lon="0.5734">
        <ele>30</ele>
        <time>2016-05-08T11:41:06Z</time>
      </trkpt>
      <trkpt lat="44.78502" lon="0.57348">
        <ele>31</ele>
        <time>2016-05-08T11:41:10Z</time>
      </trkpt>
      <trkpt lat="44.78497" lon="0.5736">
        <ele>34</ele>
        <time>2016-05-08T11:41:15Z</time>
      </trkpt>
      <trkpt lat="44.78493" lon="0.57368">
        <ele>38</ele>
        <time>2016-05-08T11:41:20Z</time>
      </trkpt>
      <trkpt lat="44.78487" lon="0.57376">
        <ele>41</ele>
        <time>2016-05-08T11:41:25Z</time>
      </trkpt>
      <trkpt lat="44.7848" lon="0.57382">
        <ele>41</ele>
        <time>2016-05-08T11:41:32Z</time>
      </trkpt>
      <trkpt lat="44.78474" lon="0.57388">
        <ele>40</ele>
        <time>2016-05-08T11:41:39Z</time>
      </trkpt>
      <trkpt lat="44.78466" lon="0.57392">
        <ele>36</ele>
        <time>2016-05-08T11:41:46Z</time>
      </trkpt>
      <trkpt lat="44.78459" lon="0.57397">
        <ele>36</ele>
        <time>2016-05-08T11:41:51Z</time>
      </trkpt>
      <trkpt lat="44.78452" lon="0.57403">
        <ele>34</ele>
        <time>2016-05-08T11:41:57Z</time>
      </trkpt>
      <trkpt lat="44.78444" lon="0.57405">
        <ele>34</ele>
        <time>2016-05-08T11:42:04Z</time>
      </trkpt>
      <trkpt lat="44.78436" lon="0.57406">
        <ele>35</ele>
        <time>2016-05-08T11:42:10Z</time>
      </trkpt>
      <trkpt lat="44.78428" lon="0.57407">
        <ele>37</ele>
        <time>2016-05-08T11:42:15Z</time>
      </trkpt>
      <trkpt lat="44.7842" lon="0.5741">
        <ele>40</ele>
        <time>2016-05-08T11:42:20Z</time>
      </trkpt>
      <trkpt lat="44.78412" lon="0.57411">
        <ele>39</ele>
        <time>2016-05-08T11:42:27Z</time>
      </trkpt>
      <trkpt lat="44.78404" lon="0.57413">
        <ele>40</ele>
        <time>2016-05-08T11:42:33Z</time>
      </trkpt>
      <trkpt lat="44.78397" lon="0.57416">
        <ele>41</ele>
        <time>2016-05-08T11:42:38Z</time>
      </trkpt>
      <trkpt lat="44.78389" lon="0.5742">
        <ele>45</ele>
        <time>2016-05-08T11:42:43Z</time>
      </trkpt>
      <trkpt lat="44.78381" lon="0.57422">
        <ele>47</ele>
        <time>2016-05-08T11:42:49Z</time>
      </trkpt>
      <trkpt lat="44.78373" lon="0.57424">
        <ele>48</ele>
        <time>2016-05-08T11:42:57Z</time>
      </trkpt>
      <trkpt lat="44.78364" lon="0.57428">
        <ele>48</ele>
        <time>2016-05-08T11:43:04Z</time>
      </trkpt>
      <trkpt lat="44.78356" lon="0.57433">
        <ele>48</ele>
        <time>2016-05-08T11:43:12Z</time>
      </trkpt>
      <trkpt lat="44.78348" lon="0.57438">
        <ele>48</ele>
        <time>2016-05-08T11:43:20Z</time>
      </trkpt>
      <trkpt lat="44.7834" lon="0.57443">
        <ele>46</ele>
        <time>2016-05-08T11:43:28Z</time>
      </trkpt>
      <trkpt lat="44.78331" lon="0.57444">
        <ele>44</ele>
        <time>2016-05-08T11:43:37Z</time>
      </trkpt>
      <trkpt lat="44.78323" lon="0.57445">
        <ele>37</ele>
        <time>2016-05-08T11:43:46Z</time>
      </trkpt>
      <trkpt lat="44.78316" lon="0.57451">
        <ele>34</ele>
        <time>2016-05-08T11:43:54Z</time>
      </trkpt>
      <trkpt lat="44.78308" lon="0.57456">
        <ele>34</ele>
        <time>2016-05-08T11:44:00Z</time>
      </trkpt>
      <trkpt lat="44.78302" lon="0.57463">
        <ele>35</ele>
        <time>2016-05-08T11:44:07Z</time>
      </trkpt>
      <trkpt lat="44.78295" lon="0.57469">
        <ele>37</ele>
        <time>2016-05-08T11:44:11Z</time>
      </trkpt>
      <trkpt lat="44.78289" lon="0.57477">
        <ele>39</ele>
        <time>2016-05-08T11:44:16Z</time>
      </trkpt>
      <trkpt lat="44.78282" lon="0.57482">
        <ele>41</ele>
        <time>2016-05-08T11:44:22Z</time>
      </trkpt>
      <trkpt lat="44.78275" lon="0.57488">
        <ele>42</ele>
        <time>2016-05-08T11:44:27Z</time>
      </trkpt>
      <trkpt lat="44.78268" lon="0.57495">
        <ele>43</ele>
        <time>2016-05-08T11:44:33Z</time>
      </trkpt>
      <trkpt lat="44.78262" lon="0.57502">
        <ele>43</ele>
        <time>2016-05-08T11:44:39Z</time>
      </trkpt>
      <trkpt lat="44.78255" lon="0.57508">
        <ele>44</ele>
        <time>2016-05-08T11:44:45Z</time>
      </trkpt>
      <trkpt lat="44.78247" lon="0.57514">
        <ele>46</ele>
        <time>2016-05-08T11:44:51Z</time>
      </trkpt>
      <trkpt lat="44.7824" lon="0.57518">
        <ele>47</ele>
        <time>2016-05-08T11:44:57Z</time>
      </trkpt>
      <trkpt lat="44.78233" lon="0.57523">
        <ele>49</ele>
        <time>2016-05-08T11:45:04Z</time>
      </trkpt>
      <trkpt lat="44.78225" lon="0.57527">
        <ele>50</ele>
        <time>2016-05-08T11:45:11Z</time>
      </trkpt>
      <trkpt lat="44.78217" lon="0.5753">
        <ele>51</ele>
        <time>2016-05-08T11:45:17Z</time>
      </trkpt>
      <trkpt lat="44.78209" lon="0.5753">
        <ele>51</ele>
        <time>2016-05-08T11:45:23Z</time>
      </trkpt>
      <trkpt lat="44.78201" lon="0.57531">
        <ele>53</ele>
        <time>2016-05-08T11:45:28Z</time>
      </trkpt>
      <trkpt lat="44.78193" lon="0.57532">
        <ele>55</ele>
        <time>2016-05-08T11:45:34Z</time>
      </trkpt>
      <trkpt lat="44.78184" lon="0.57531">
        <ele>55</ele>
        <time>2016-05-08T11:45:40Z</time>
      </trkpt>
      <trkpt lat="44.78176" lon="0.5753">
        <ele>54</ele>
        <time>2016-05-08T11:45:46Z</time>
      </trkpt>
      <trkpt lat="44.78168" lon="0.5753">
        <ele>56</ele>
        <time>2016-05-08T11:45:52Z</time>
      </trkpt>
      <trkpt lat="44.7816" lon="0.57529">
        <ele>58</ele>
        <time>2016-05-08T11:45:58Z</time>
      </trkpt>
      <trkpt lat="44.78151" lon="0.57529">
        <ele>57</ele>
        <time>2016-05-08T11:46:04Z</time>
      </trkpt>
      <trkpt lat="44.78143" lon="0.57527">
        <ele>58</ele>
        <time>2016-05-08T11:46:11Z</time>
      </trkpt>
      <trkpt lat="44.78135" lon="0.57526">
        <ele>56</ele>
        <time>2016-05-08T11:46:17Z</time>
      </trkpt>
      <trkpt lat="44.78127" lon="0.57525">
        <ele>54</ele>
        <time>2016-05-08T11:46:24Z</time>
      </trkpt>
      <trkpt lat="44.78119" lon="0.57523">
        <ele>52</ele>
        <time>2016-05-08T11:46:31Z</time>
      </trkpt>
      <trkpt lat="44.7811" lon="0.57523">
        <ele>52</ele>
        <time>2016-05-08T11:46:39Z</time>
      </trkpt>
      <trkpt lat="44.78102" lon="0.57521">
        <ele>54</ele>
        <time>2016-05-08T11:46:45Z</time>
      </trkpt>
      <trkpt lat="44.78094" lon="0.57521">
        <ele>57</ele>
        <time>2016-05-08T11:46:53Z</time>
      </trkpt>
      <trkpt lat="44.78085" lon="0.57521">
        <ele>58</ele>
        <time>2016-05-08T11:46:59Z</time>
      </trkpt>
      <trkpt lat="44.78077" lon="0.57519">
        <ele>59</ele>
        <time>2016-05-08T11:47:04Z</time>
      </trkpt>
      <trkpt lat="44.78068" lon="0.57519">
        <ele>59</ele>
        <time>2016-05-08T11:47:10Z</time>
      </trkpt>
      <trkpt lat="44.7806" lon="0.5752">
        <ele>58</ele>
        <time>2016-05-08T11:47:19Z</time>
      </trkpt>
      <trkpt lat="44.78052" lon="0.57521">
        <ele>58</ele>
        <time>2016-05-08T11:47:25Z</time>
      </trkpt>
      <trkpt lat="44.78044" lon="0.57527">
        <ele>55</ele>
        <time>2016-05-08T11:47:33Z</time>
      </trkpt>
      <trkpt lat="44.78035" lon="0.5753">
        <ele>54</ele>
        <time>2016-05-08T11:47:40Z</time>
      </trkpt>
      <trkpt lat="44.78028" lon="0.57535">
        <ele>53</ele>
        <time>2016-05-08T11:47:46Z</time>
      </trkpt>
      <trkpt lat="44.7802" lon="0.57539">
        <ele>51</ele>
        <time>2016-05-08T11:47:53Z</time>
      </trkpt>
      <trkpt lat="44.78011" lon="0.57541">
        <ele>51</ele>
        <time>2016-05-08T11:48:00Z</time>
      </trkpt>
      <trkpt lat="44.78004" lon="0.57535">
        <ele>53</ele>
        <time>2016-05-08T11:48:09Z</time>
      </trkpt>
      <trkpt lat="44.78003" lon="0.57522">
        <ele>51</ele>
        <time>2016-05-08T11:48:15Z</time>
      </trkpt>
      <trkpt lat="44.78002" lon="0.5751">
        <ele>51</ele>
        <time>2016-05-08T11:48:22Z</time>
      </trkpt>
      <trkpt lat="44.78004" lon="0.57498">
        <ele>53</ele>
        <time>2016-05-08T11:48:29Z</time>
      </trkpt>
      <trkpt lat="44.78006" lon="0.57486">
        <ele>55</ele>
        <time>2016-05-08T11:48:39Z</time>
      </trkpt>
      <trkpt lat="44.78007" lon="0.57474">
        <ele>55</ele>
        <time>2016-05-08T11:48:47Z</time>
      </trkpt>
      <trkpt lat="44.78007" lon="0.57462">
        <ele>55</ele>
        <time>2016-05-08T11:48:56Z</time>
      </trkpt>
      <trkpt lat="44.78007" lon="0.57451">
        <ele>53</ele>
        <time>2016-05-08T11:49:04Z</time>
      </trkpt>
      <trkpt lat="44.78004" lon="0.57439">
        <ele>52</ele>
        <time>2016-05-08T11:49:11Z</time>
      </trkpt>
      <trkpt lat="44.78002" lon="0.5743">
        <ele>52</ele>
        <time>2016-05-08T11:49:16Z</time>
      </trkpt>
      <trkpt lat="44.77999" lon="0.57418">
        <ele>49</ele>
        <time>2016-05-08T11:49:21Z</time>
      </trkpt>
      <trkpt lat="44.78" lon="0.57406">
        <ele>49</ele>
        <time>2016-05-08T11:49:27Z</time>
      </trkpt>
      <trkpt lat="44.78" lon="0.57394">
        <ele>45</ele>
        <time>2016-05-08T11:49:35Z</time>
      </trkpt>
      <trkpt lat="44.78002" lon="0.5738">
        <ele>46</ele>
        <time>2016-05-08T11:49:40Z</time>
      </trkpt>
      <trkpt lat="44.78001" lon="0.57368">
        <ele>45</ele>
        <time>2016-05-08T11:49:47Z</time>
      </trkpt>
      <trkpt lat="44.78003" lon="0.57356">
        <ele>47</ele>
        <time>2016-05-08T11:49:56Z</time>
      </trkpt>
      <trkpt lat="44.78001" lon="0.57346">
        <ele>39</ele>
        <time>2016-05-08T11:50:03Z</time>
      </trkpt>
      <trkpt lat="44.77999" lon="0.57334">
        <ele>41</ele>
        <time>2016-05-08T11:50:09Z</time>
      </trkpt>
      <trkpt lat="44.78" lon="0.57322">
        <ele>46</ele>
        <time>2016-05-08T11:50:13Z</time>
      </trkpt>
      <trkpt lat="44.78" lon="0.57311">
        <ele>51</ele>
        <time>2016-05-08T11:50:18Z</time>
      </trkpt>
      <trkpt lat="44.78" lon="0.57298">
        <ele>53</ele>
        <time>2016-05-08T11:50:25Z</time>
      </trkpt>
      <trkpt lat="44.78003" lon="0.57288">
        <ele>49</ele>
        <time>2016-05-08T11:50:33Z</time>
      </trkpt>
      <trkpt lat="44.78006" lon="0.57278">
        <ele>48</ele>
        <time>2016-05-08T11:50:40Z</time>
      </trkpt>
      <trkpt lat="44.7801" lon="0.57265">
        <ele>53</ele>
        <time>2016-05-08T11:50:45Z</time>
      </trkpt>
      <trkpt lat="44.78013" lon="0.57255">
        <ele>54</ele>
        <time>2016-05-08T11:50:52Z</time>
      </trkpt>
      <trkpt lat="44.78014" lon="0.57243">
        <ele>53</ele>
        <time>2016-05-08T11:50:59Z</time>
      </trkpt>
      <trkpt lat="44.78014" lon="0.57231">
        <ele>52</ele>
        <time>2016-05-08T11:51:06Z</time>
      </trkpt>
      <trkpt lat="44.78011" lon="0.57219">
        <ele>51</ele>
        <time>2016-05-08T11:51:12Z</time>
      </trkpt>
      <trkpt lat="44.78011" lon="0.57208">
        <ele>52</ele>
        <time>2016-05-08T11:51:19Z</time>
      </trkpt>
      <trkpt lat="44.78012" lon="0.57196">
        <ele>53</ele>
        <time>2016-05-08T11:51:26Z</time>
      </trkpt>
      <trkpt lat="44.78013" lon="0.57185">
        <ele>53</ele>
        <time>2016-05-08T11:51:36Z</time>
      </trkpt>
      <trkpt lat="44.78014" lon="0.57173">
        <ele>54</ele>
        <time>2016-05-08T11:51:42Z</time>
      </trkpt>
      <trkpt lat="44.78016" lon="0.57161">
        <ele>54</ele>
        <time>2016-05-08T11:51:49Z</time>
      </trkpt>
      <trkpt lat="44.78014" lon="0.57153">
        <ele>53</ele>
        <time>2016-05-08T11:51:54Z</time>
      </trkpt>
      <trkpt lat="44.78008" lon="0.5714">
        <ele>52</ele>
        <time>2016-05-08T11:51:58Z</time>
      </trkpt>
      <trkpt lat="44.78007" lon="0.57129">
        <ele>49</ele>
        <time>2016-05-08T11:52:07Z</time>
      </trkpt>
      <trkpt lat="44.78006" lon="0.57118">
        <ele>45</ele>
        <time>2016-05-08T11:52:13Z</time>
      </trkpt>
      <trkpt lat="44.78004" lon="0.57106">
        <ele>36</ele>
        <time>2016-05-08T11:52:21Z</time>
      </trkpt>
      <trkpt lat="44.78001" lon="0.571">
        <ele>35</ele>
        <time>2016-05-08T11:52:26Z</time>
      </trkpt>
      <trkpt lat="44.77995" lon="0.57092">
        <ele>37</ele>
        <time>2016-05-08T11:52:31Z</time>
      </trkpt>
      <trkpt lat="44.7799" lon="0.57082">
        <ele>38</ele>
        <time>2016-05-08T11:52:36Z</time>
      </trkpt>
      <trkpt lat="44.77984" lon="0.57074">
        <ele>38</ele>
        <time>2016-05-08T11:52:42Z</time>
      </trkpt>
      <trkpt lat="44.77978" lon="0.57065">
        <ele>39</ele>
        <time>2016-05-08T11:52:47Z</time>
      </trkpt>
      <trkpt lat="44.77974" lon="0.57055">
        <ele>38</ele>
        <time>2016-05-08T11:52:52Z</time>
      </trkpt>
      <trkpt lat="44.77968" lon="0.57046">
        <ele>38</ele>
        <time>2016-05-08T11:52:56Z</time>
      </trkpt>
      <trkpt lat="44.77964" lon="0.57037">
        <ele>41</ele>
        <time>2016-05-08T11:53:01Z</time>
      </trkpt>
      <trkpt lat="44.7796" lon="0.57024">
        <ele>44</ele>
        <time>2016-05-08T11:53:06Z</time>
      </trkpt>
      <trkpt lat="44.77959" lon="0.57013">
        <ele>44</ele>
        <time>2016-05-08T11:53:11Z</time>
      </trkpt>
      <trkpt lat="44.7796" lon="0.57002">
        <ele>45</ele>
        <time>2016-05-08T11:53:17Z</time>
      </trkpt>
      <trkpt lat="44.77963" lon="0.5699">
        <ele>45</ele>
        <time>2016-05-08T11:53:28Z</time>
      </trkpt>
      <trkpt lat="44.77964" lon="0.56979">
        <ele>41</ele>
        <time>2016-05-08T11:53:39Z</time>
      </trkpt>
      <trkpt lat="44.77965" lon="0.56968">
        <ele>38</ele>
        <time>2016-05-08T11:53:46Z</time>
      </trkpt>
      <trkpt lat="44.77964" lon="0.56957">
        <ele>36</ele>
        <time>2016-05-08T11:53:51Z</time>
      </trkpt>
      <trkpt lat="44.77966" lon="0.56944">
        <ele>36</ele>
        <time>2016-05-08T11:53:57Z</time>
      </trkpt>
      <trkpt lat="44.77965" lon="0.56931">
        <ele>39</ele>
        <time>2016-05-08T11:54:01Z</time>
      </trkpt>
      <trkpt lat="44.77966" lon="0.56919">
        <ele>40</ele>
        <time>2016-05-08T11:54:06Z</time>
      </trkpt>
      <trkpt lat="44.77966" lon="0.56906">
        <ele>37</ele>
        <time>2016-05-08T11:54:17Z</time>
      </trkpt>
      <trkpt lat="44.77966" lon="0.56895">
        <ele>37</ele>
        <time>2016-05-08T11:54:22Z</time>
      </trkpt>
      <trkpt lat="44.77966" lon="0.56886">
        <ele>37</ele>
        <time>2016-05-08T11:54:26Z</time>
      </trkpt>
      <trkpt lat="44.77966" lon="0.56872">
        <ele>38</ele>
        <time>2016-05-08T11:54:30Z</time>
      </trkpt>
      <trkpt lat="44.77966" lon="0.56861">
        <ele>39</ele>
        <time>2016-05-08T11:54:34Z</time>
      </trkpt>
      <trkpt lat="44.77966" lon="0.5685">
        <ele>40</ele>
        <time>2016-05-08T11:54:38Z</time>
      </trkpt>
      <trkpt lat="44.77968" lon="0.56838">
        <ele>39</ele>
        <time>2016-05-08T11:54:45Z</time>
      </trkpt>
      <trkpt lat="44.77968" lon="0.56826">
        <ele>41</ele>
        <time>2016-05-08T11:54:50Z</time>
      </trkpt>
      <trkpt lat="44.77971" lon="0.56814">
        <ele>43</ele>
        <time>2016-05-08T11:54:56Z</time>
      </trkpt>
      <trkpt lat="44.77974" lon="0.56804">
        <ele>40</ele>
        <time>2016-05-08T11:55:03Z</time>
      </trkpt>
      <trkpt lat="44.77975" lon="0.56791">
        <ele>37</ele>
        <time>2016-05-08T11:55:08Z</time>
      </trkpt>
      <trkpt lat="44.77976" lon="0.56779">
        <ele>41</ele>
        <time>2016-05-08T11:55:13Z</time>
      </trkpt>
      <trkpt lat="44.77976" lon="0.56767">
        <ele>40</ele>
        <time>2016-05-08T11:55:19Z</time>
      </trkpt>
      <trkpt lat="44.77977" lon="0.56756">
        <ele>44</ele>
        <time>2016-05-08T11:55:24Z</time>
      </trkpt>
      <trkpt lat="44.77974" lon="0.56744">
        <ele>42</ele>
        <time>2016-05-08T11:55:34Z</time>
      </trkpt>
      <trkpt lat="44.77973" lon="0.56732">
        <ele>40</ele>
        <time>2016-05-08T11:55:41Z</time>
      </trkpt>
      <trkpt lat="44.77977" lon="0.56721">
        <ele>41</ele>
        <time>2016-05-08T11:55:49Z</time>
      </trkpt>
      <trkpt lat="44.77979" lon="0.56709">
        <ele>33</ele>
        <time>2016-05-08T11:55:57Z</time>
      </trkpt>
      <trkpt lat="44.77982" lon="0.56695">
        <ele>37</ele>
        <time>2016-05-08T11:56:02Z</time>
      </trkpt>
      <trkpt lat="44.77984" lon="0.56682">
        <ele>41</ele>
        <time>2016-05-08T11:56:06Z</time>
      </trkpt>
      <trkpt lat="44.77986" lon="0.5667">
        <ele>43</ele>
        <time>2016-05-08T11:56:11Z</time>
      </trkpt>
      <trkpt lat="44.7798" lon="0.56663">
        <ele>43</ele>
        <time>2016-05-08T11:56:18Z</time>
      </trkpt>
      <trkpt lat="44.77972" lon="0.56657">
        <ele>43</ele>
        <time>2016-05-08T11:56:24Z</time>
      </trkpt>
      <trkpt lat="44.77965" lon="0.56653">
        <ele>42</ele>
        <time>2016-05-08T11:56:30Z</time>
      </trkpt>
      <trkpt lat="44.77957" lon="0.56648">
        <ele>43</ele>
        <time>2016-05-08T11:56:37Z</time>
      </trkpt>
      <trkpt lat="44.7795" lon="0.56643">
        <ele>42</ele>
        <time>2016-05-08T11:56:44Z</time>
      </trkpt>
      <trkpt lat="44.77942" lon="0.56639">
        <ele>42</ele>
        <time>2016-05-08T11:56:51Z</time>
      </trkpt>
      <trkpt lat="44.77936" lon="0.5663">
        <ele>42</ele>
        <time>2016-05-08T11:56:57Z</time>
      </trkpt>
      <trkpt lat="44.7793" lon="0.56621">
        <ele>38</ele>
        <time>2016-05-08T11:57:07Z</time>
      </trkpt>
      <trkpt lat="44.77926" lon="0.56611">
        <ele>34</ele>
        <time>2016-05-08T11:57:16Z</time>
      </trkpt>
      <trkpt lat="44.77921" lon="0.566">
        <ele>31</ele>
        <time>2016-05-08T11:57:26Z</time>
      </trkpt>
      <trkpt lat="44.77919" lon="0.56589">
        <ele>31</ele>
        <time>2016-05-08T11:57:34Z</time>
      </trkpt>
      <trkpt lat="44.77919" lon="0.56577">
        <ele>28</ele>
        <time>2016-05-08T11:57:41Z</time>
      </trkpt>
      <trkpt lat="44.7792" lon="0.56564">
        <ele>21</ele>
        <time>2016-05-08T11:57:49Z</time>
      </trkpt>
      <trkpt lat="44.77922" lon="0.56552">
        <ele>19</ele>
        <time>2016-05-08T11:58:00Z</time>
      </trkpt>
      <trkpt lat="44.77929" lon="0.56545">
        <ele>8</ele>
        <time>2016-05-08T11:58:13Z</time>
      </trkpt>
      <trkpt lat="44.77937" lon="0.56542">
        <ele>5</ele>
        <time>2016-05-08T11:58:21Z</time>
      </trkpt>
      <trkpt lat="44.7794" lon="0.56532">
        <ele>6</ele>
        <time>2016-05-08T11:58:25Z</time>
      </trkpt>
      <trkpt lat="44.77945" lon="0.56524">
        <ele>6</ele>
        <time>2016-05-08T11:58:30Z</time>
      </trkpt>
      <trkpt lat="44.77948" lon="0.56513">
        <ele>4</ele>
        <time>2016-05-08T11:58:34Z</time>
      </trkpt>
      <trkpt lat="44.77954" lon="0.56506">
        <ele>2</ele>
        <time>2016-05-08T11:58:39Z</time>
      </trkpt>
      <trkpt lat="44.77961" lon="0.56499">
        <ele>4</ele>
        <time>2016-05-08T11:58:44Z</time>
      </trkpt>
      <trkpt lat="44.77967" lon="0.56491">
        <ele>2</ele>
        <time>2016-05-08T11:58:49Z</time>
      </trkpt>
      <trkpt lat="44.77974" lon="0.56485">
        <ele>3</ele>
        <time>2016-05-08T11:58:55Z</time>
      </trkpt>
      <trkpt lat="44.7798" lon="0.56476">
        <ele>7</ele>
        <time>2016-05-08T11:59:00Z</time>
      </trkpt>
      <trkpt lat="44.77983" lon="0.56466">
        <ele>9</ele>
        <time>2016-05-08T11:59:04Z</time>
      </trkpt>
      <trkpt lat="44.77988" lon="0.56456">
        <ele>9</ele>
        <time>2016-05-08T11:59:08Z</time>
      </trkpt>
      <trkpt lat="44.77992" lon="0.56448">
        <ele>9</ele>
        <time>2016-05-08T11:59:12Z</time>
      </trkpt>
      <trkpt lat="44.77996" lon="0.56437">
        <ele>11</ele>
        <time>2016-05-08T11:59:17Z</time>
      </trkpt>
      <trkpt lat="44.78001" lon="0.56427">
        <ele>13</ele>
        <time>2016-05-08T11:59:24Z</time>
      </trkpt>
      <trkpt lat="44.78007" lon="0.56417">
        <ele>11</ele>
        <time>2016-05-08T11:59:32Z</time>
      </trkpt>
      <trkpt lat="44.7801" lon="0.56407">
        <ele>13</ele>
        <time>2016-05-08T11:59:38Z</time>
      </trkpt>
      <trkpt lat="44.78013" lon="0.56395">
        <ele>14</ele>
        <time>2016-05-08T11:59:43Z</time>
      </trkpt>
      <trkpt lat="44.78012" lon="0.56377">
        <ele>15</ele>
        <time>2016-05-08T11:59:48Z</time>
      </trkpt>
      <trkpt lat="44.78009" lon="0.56366">
        <ele>14</ele>
        <time>2016-05-08T11:59:53Z</time>
      </trkpt>
      <trkpt lat="44.78007" lon="0.56355">
        <ele>13</ele>
        <time>2016-05-08T11:59:57Z</time>
      </trkpt>
      <trkpt lat="44.78001" lon="0.56349">
        <ele>11</ele>
        <time>2016-05-08T12:00:04Z</time>
      </trkpt>
      <trkpt lat="44.77993" lon="0.56344">
        <ele>8</ele>
        <time>2016-05-08T12:00:10Z</time>
      </trkpt>
      <trkpt lat="44.77984" lon="0.5634">
        <ele>11</ele>
        <time>2016-05-08T12:00:17Z</time>
      </trkpt>
      <trkpt lat="44.77976" lon="0.56335">
        <ele>12</ele>
        <time>2016-05-08T12:00:31Z</time>
      </trkpt>
      <trkpt lat="44.77971" lon="0.56325">
        <ele>10</ele>
        <time>2016-05-08T12:00:36Z</time>
      </trkpt>
      <trkpt lat="44.77968" lon="0.56314">
        <ele>11</ele>
        <time>2016-05-08T12:00:42Z</time>
      </trkpt>
      <trkpt lat="44.77968" lon="0.56303">
        <ele>7</ele>
        <time>2016-05-08T12:00:53Z</time>
      </trkpt>
      <trkpt lat="44.77966" lon="0.56292">
        <ele>-3</ele>
        <time>2016-05-08T12:01:09Z</time>
      </trkpt>
      <trkpt lat="44.77966" lon="0.56284">
        <ele>-7</ele>
        <time>2016-05-08T12:01:21Z</time>
      </trkpt>
      <trkpt lat="44.77963" lon="0.5627">
        <ele>-6</ele>
        <time>2016-05-08T12:01:26Z</time>
      </trkpt>
      <trkpt lat="44.7796" lon="0.56265">
        <ele>-9</ele>
        <time>2016-05-08T12:01:30Z</time>
      </trkpt>
      <trkpt lat="44.77951" lon="0.56255">
        <ele>-8</ele>
        <time>2016-05-08T12:01:34Z</time>
      </trkpt>
      <trkpt lat="44.7794" lon="0.56235">
        <ele>-10</ele>
        <time>2016-05-08T12:01:39Z</time>
      </trkpt>
      <trkpt lat="44.77937" lon="0.56225">
        <ele>-10</ele>
        <time>2016-05-08T12:01:43Z</time>
      </trkpt>
      <trkpt lat="44.77937" lon="0.56212">
        <ele>-10</ele>
        <time>2016-05-08T12:01:49Z</time>
      </trkpt>
      <trkpt lat="44.77936" lon="0.56202">
        <ele>-10</ele>
        <time>2016-05-08T12:01:55Z</time>
      </trkpt>
      <trkpt lat="44.77938" lon="0.56191">
        <ele>-8</ele>
        <time>2016-05-08T12:02:00Z</time>
      </trkpt>
      <trkpt lat="44.77939" lon="0.56178">
        <ele>-11</ele>
        <time>2016-05-08T12:02:09Z</time>
      </trkpt>
      <trkpt lat="44.77941" lon="0.56168">
        <ele>-10</ele>
        <time>2016-05-08T12:02:18Z</time>
      </trkpt>
      <trkpt lat="44.77944" lon="0.56165">
        <ele>-7</ele>
        <time>2016-05-08T12:02:37Z</time>
      </trkpt>
      <trkpt lat="44.77938" lon="0.56148">
        <ele>-1</ele>
        <time>2016-05-08T12:02:42Z</time>
      </trkpt>
      <trkpt lat="44.77942" lon="0.56138">
        <ele>-8</ele>
        <time>2016-05-08T12:02:51Z</time>
      </trkpt>
      <trkpt lat="44.77945" lon="0.56127">
        <ele>-3</ele>
        <time>2016-05-08T12:02:56Z</time>
      </trkpt>
      <trkpt lat="44.77947" lon="0.56116">
        <ele>-1</ele>
        <time>2016-05-08T12:03:02Z</time>
      </trkpt>
      <trkpt lat="44.77948" lon="0.56104">
        <ele>-1</ele>
        <time>2016-05-08T12:03:09Z</time>
      </trkpt>
      <trkpt lat="44.77949" lon="0.56092">
        <ele>-1</ele>
        <time>2016-05-08T12:03:15Z</time>
      </trkpt>
      <trkpt lat="44.77949" lon="0.56081">
        <ele>1</ele>
        <time>2016-05-08T12:03:21Z</time>
      </trkpt>
      <trkpt lat="44.77949" lon="0.56069">
        <ele>3</ele>
        <time>2016-05-08T12:03:28Z</time>
      </trkpt>
      <trkpt lat="44.77949" lon="0.56057">
        <ele>5</ele>
        <time>2016-05-08T12:03:34Z</time>
      </trkpt>
      <trkpt lat="44.77948" lon="0.56044">
        <ele>6</ele>
        <time>2016-05-08T12:03:40Z</time>
      </trkpt>
      <trkpt lat="44.77949" lon="0.56033">
        <ele>7</ele>
        <time>2016-05-08T12:03:46Z</time>
      </trkpt>
      <trkpt lat="44.77948" lon="0.56021">
        <ele>6</ele>
        <time>2016-05-08T12:03:52Z</time>
      </trkpt>
      <trkpt lat="44.77945" lon="0.56009">
        <ele>5</ele>
        <time>2016-05-08T12:04:00Z</time>
      </trkpt>
      <trkpt lat="44.77944" lon="0.55999">
        <ele>3</ele>
        <time>2016-05-08T12:04:07Z</time>
      </trkpt>
      <trkpt lat="44.77943" lon="0.55986">
        <ele>6</ele>
        <time>2016-05-08T12:04:13Z</time>
      </trkpt>
      <trkpt lat="44.77937" lon="0.55979">
        <ele>11</ele>
        <time>2016-05-08T12:04:21Z</time>
      </trkpt>
      <trkpt lat="44.77929" lon="0.55983">
        <ele>9</ele>
        <time>2016-05-08T12:04:34Z</time>
      </trkpt>
      <trkpt lat="44.77922" lon="0.55989">
        <ele>11</ele>
        <time>2016-05-08T12:04:45Z</time>
      </trkpt>
      <trkpt lat="44.7792" lon="0.55991">
        <ele>9</ele>
        <time>2016-05-08T12:04:59Z</time>
      </trkpt>
      <trkpt lat="44.77909" lon="0.55995">
        <ele>6</ele>
        <time>2016-05-08T12:05:04Z</time>
      </trkpt>
      <trkpt lat="44.77902" lon="0.56002">
        <ele>6</ele>
        <time>2016-05-08T12:06:08Z</time>
      </trkpt>
      <trkpt lat="44.77894" lon="0.56004">
        <ele>4</ele>
        <time>2016-05-08T12:06:20Z</time>
      </trkpt>
      <trkpt lat="44.77885" lon="0.56006">
        <ele>4</ele>
        <time>2016-05-08T12:06:28Z</time>
      </trkpt>
      <trkpt lat="44.77877" lon="0.5601">
        <ele>5</ele>
        <time>2016-05-08T12:06:35Z</time>
      </trkpt>
      <trkpt lat="44.7787" lon="0.56005">
        <ele>2</ele>
        <time>2016-05-08T12:06:44Z</time>
      </trkpt>
      <trkpt lat="44.77862" lon="0.56002">
        <ele>4</ele>
        <time>2016-05-08T12:06:51Z</time>
      </trkpt>
      <trkpt lat="44.77854" lon="0.56002">
        <ele>2</ele>
        <time>2016-05-08T12:06:59Z</time>
      </trkpt>
      <trkpt lat="44.77846" lon="0.56005">
        <ele>3</ele>
        <time>2016-05-08T12:07:06Z</time>
      </trkpt>
      <trkpt lat="44.77838" lon="0.56009">
        <ele>6</ele>
        <time>2016-05-08T12:07:12Z</time>
      </trkpt>
      <trkpt lat="44.7783" lon="0.56013">
        <ele>6</ele>
        <time>2016-05-08T12:07:18Z</time>
      </trkpt>
      <trkpt lat="44.77823" lon="0.56017">
        <ele>6</ele>
        <time>2016-05-08T12:07:25Z</time>
      </trkpt>
      <trkpt lat="44.77814" lon="0.5602">
        <ele>5</ele>
        <time>2016-05-08T12:07:33Z</time>
      </trkpt>
      <trkpt lat="44.77807" lon="0.56024">
        <ele>4</ele>
        <time>2016-05-08T12:07:40Z</time>
      </trkpt>
      <trkpt lat="44.77798" lon="0.56026">
        <ele>4</ele>
        <time>2016-05-08T12:07:47Z</time>
      </trkpt>
      <trkpt lat="44.7779" lon="0.56026">
        <ele>5</ele>
        <time>2016-05-08T12:07:53Z</time>
      </trkpt>
      <trkpt lat="44.77782" lon="0.56027">
        <ele>5</ele>
        <time>2016-05-08T12:07:59Z</time>
      </trkpt>
      <trkpt lat="44.77774" lon="0.5603">
        <ele>5</ele>
        <time>2016-05-08T12:08:05Z</time>
      </trkpt>
      <trkpt lat="44.77766" lon="0.56031">
        <ele>7</ele>
        <time>2016-05-08T12:08:12Z</time>
      </trkpt>
      <trkpt lat="44.77758" lon="0.56034">
        <ele>8</ele>
        <time>2016-05-08T12:08:20Z</time>
      </trkpt>
      <trkpt lat="44.77749" lon="0.56036">
        <ele>9</ele>
        <time>2016-05-08T12:08:27Z</time>
      </trkpt>
      <trkpt lat="44.77741" lon="0.56037">
        <ele>9</ele>
        <time>2016-05-08T12:08:33Z</time>
      </trkpt>
      <trkpt lat="44.77734" lon="0.56038">
        <ele>10</ele>
        <time>2016-05-08T12:08:39Z</time>
      </trkpt>
      <trkpt lat="44.77726" lon="0.56037">
        <ele>7</ele>
        <time>2016-05-08T12:08:45Z</time>
      </trkpt>
      <trkpt lat="44.77717" lon="0.56036">
        <ele>6</ele>
        <time>2016-05-08T12:08:53Z</time>
      </trkpt>
      <trkpt lat="44.77709" lon="0.56039">
        <ele>2</ele>
        <time>2016-05-08T12:09:01Z</time>
      </trkpt>
      <trkpt lat="44.77701" lon="0.56036">
        <ele>63.1</ele>
        <time>2016-05-08T12:09:08Z</time>
      </trkpt>
      <trkpt lat="44.77692" lon="0.56031">
        <ele>63.6</ele>
        <time>2016-05-08T12:09:12Z</time>
      </trkpt>
      <trkpt lat="44.77686" lon="0.56027">
        <ele>1</ele>
        <time>2016-05-08T12:09:16Z</time>
      </trkpt>
      <trkpt lat="44.77677" lon="0.56023">
        <ele>2</ele>
        <time>2016-05-08T12:09:24Z</time>
      </trkpt>
      <trkpt lat="44.7767" lon="0.56019">
        <ele>2</ele>
        <time>2016-05-08T12:09:31Z</time>
      </trkpt>
      <trkpt lat="44.77663" lon="0.56015">
        <ele>3</ele>
        <time>2016-05-08T12:09:37Z</time>
      </trkpt>
      <trkpt lat="44.77655" lon="0.56011">
        <ele>2</ele>
        <time>2016-05-08T12:09:44Z</time>
      </trkpt>
      <trkpt lat="44.77648" lon="0.56003">
        <ele>3</ele>
        <time>2016-05-08T12:09:50Z</time>
      </trkpt>
      <trkpt lat="44.77646" lon="0.55993">
        <ele>2</ele>
        <time>2016-05-08T12:09:56Z</time>
      </trkpt>
      <trkpt lat="44.77645" lon="0.55981">
        <ele>5</ele>
        <time>2016-05-08T12:10:01Z</time>
      </trkpt>
      <trkpt lat="44.77645" lon="0.5597">
        <ele>9</ele>
        <time>2016-05-08T12:10:07Z</time>
      </trkpt>
      <trkpt lat="44.77645" lon="0.55959">
        <ele>12</ele>
        <time>2016-05-08T12:10:13Z</time>
      </trkpt>
      <trkpt lat="44.77645" lon="0.55948">
        <ele>14</ele>
        <time>2016-05-08T12:10:19Z</time>
      </trkpt>
      <trkpt lat="44.77646" lon="0.55936">
        <ele>17</ele>
        <time>2016-05-08T12:10:26Z</time>
      </trkpt>
      <trkpt lat="44.77646" lon="0.55925">
        <ele>16</ele>
        <time>2016-05-08T12:10:34Z</time>
      </trkpt>
      <trkpt lat="44.77646" lon="0.55913">
        <ele>16</ele>
        <time>2016-05-08T12:10:42Z</time>
      </trkpt>
      <trkpt lat="44.77645" lon="0.559">
        <ele>14</ele>
        <time>2016-05-08T12:10:51Z</time>
      </trkpt>
      <trkpt lat="44.77645" lon="0.55888">
        <ele>16</ele>
        <time>2016-05-08T12:10:59Z</time>
      </trkpt>
      <trkpt lat="44.77644" lon="0.55877">
        <ele>17</ele>
        <time>2016-05-08T12:11:05Z</time>
      </trkpt>
      <trkpt lat="44.77644" lon="0.55865">
        <ele>18</ele>
        <time>2016-05-08T12:11:12Z</time>
      </trkpt>
      <trkpt lat="44.77644" lon="0.55853">
        <ele>17</ele>
        <time>2016-05-08T12:11:20Z</time>
      </trkpt>
      <trkpt lat="44.77644" lon="0.55841">
        <ele>15</ele>
        <time>2016-05-08T12:11:29Z</time>
      </trkpt>
      <trkpt lat="44.77643" lon="0.55829">
        <ele>16</ele>
        <time>2016-05-08T12:11:38Z</time>
      </trkpt>
      <trkpt lat="44.77643" lon="0.55817">
        <ele>18</ele>
        <time>2016-05-08T12:11:45Z</time>
      </trkpt>
      <trkpt lat="44.77644" lon="0.55805">
        <ele>19</ele>
        <time>2016-05-08T12:11:54Z</time>
      </trkpt>
      <trkpt lat="44.77644" lon="0.55793">
        <ele>20</ele>
        <time>2016-05-08T12:12:02Z</time>
      </trkpt>
      <trkpt lat="44.7764" lon="0.55783">
        <ele>21</ele>
        <time>2016-05-08T12:12:10Z</time>
      </trkpt>
      <trkpt lat="44.77633" lon="0.55775">
        <ele>23</ele>
        <time>2016-05-08T12:12:16Z</time>
      </trkpt>
      <trkpt lat="44.77628" lon="0.55766">
        <ele>26</ele>
        <time>2016-05-08T12:12:23Z</time>
      </trkpt>
      <trkpt lat="44.7762" lon="0.5576">
        <ele>27</ele>
        <time>2016-05-08T12:12:31Z</time>
      </trkpt>
      <trkpt lat="44.77613" lon="0.55754">
        <ele>27</ele>
        <time>2016-05-08T12:12:39Z</time>
      </trkpt>
      <trkpt lat="44.77606" lon="0.55748">
        <ele>26</ele>
        <time>2016-05-08T12:12:46Z</time>
      </trkpt>
      <trkpt lat="44.776" lon="0.55738">
        <ele>25</ele>
        <time>2016-05-08T12:12:53Z</time>
      </trkpt>
      <trkpt lat="44.77599" lon="0.55727">
        <ele>25</ele>
        <time>2016-05-08T12:13:00Z</time>
      </trkpt>
      <trkpt lat="44.77598" lon="0.55716">
        <ele>25</ele>
        <time>2016-05-08T12:13:07Z</time>
      </trkpt>
      <trkpt lat="44.77598" lon="0.55704">
        <ele>26</ele>
        <time>2016-05-08T12:13:13Z</time>
      </trkpt>
      <trkpt lat="44.77602" lon="0.55694">
        <ele>27</ele>
        <time>2016-05-08T12:13:20Z</time>
      </trkpt>
      <trkpt lat="44.77606" lon="0.55683">
        <ele>27</ele>
        <time>2016-05-08T12:13:31Z</time>
      </trkpt>
      <trkpt lat="44.77609" lon="0.55673">
        <ele>28</ele>
        <time>2016-05-08T12:13:38Z</time>
      </trkpt>
      <trkpt lat="44.7761" lon="0.55661">
        <ele>30</ele>
        <time>2016-05-08T12:13:45Z</time>
      </trkpt>
      <trkpt lat="44.77611" lon="0.5565">
        <ele>28</ele>
        <time>2016-05-08T12:13:53Z</time>
      </trkpt>
      <trkpt lat="44.77611" lon="0.55639">
        <ele>28</ele>
        <time>2016-05-08T12:13:59Z</time>
      </trkpt>
      <trkpt lat="44.77611" lon="0.55628">
        <ele>29</ele>
        <time>2016-05-08T12:14:04Z</time>
      </trkpt>
      <trkpt lat="44.77611" lon="0.55617">
        <ele>30</ele>
        <time>2016-05-08T12:14:09Z</time>
      </trkpt>
      <trkpt lat="44.77612" lon="0.55605">
        <ele>34</ele>
        <time>2016-05-08T12:14:14Z</time>
      </trkpt>
      <trkpt lat="44.77614" lon="0.55594">
        <ele>33</ele>
        <time>2016-05-08T12:14:22Z</time>
      </trkpt>
      <trkpt lat="44.77618" lon="0.55583">
        <ele>37</ele>
        <time>2016-05-08T12:14:30Z</time>
      </trkpt>
      <trkpt lat="44.77626" lon="0.55578">
        <ele>38</ele>
        <time>2016-05-08T12:14:44Z</time>
      </trkpt>
      <trkpt lat="44.77634" lon="0.55574">
        <ele>39</ele>
        <time>2016-05-08T12:14:54Z</time>
      </trkpt>
      <trkpt lat="44.77636" lon="0.55562">
        <ele>37</ele>
        <time>2016-05-08T12:15:08Z</time>
      </trkpt>
      <trkpt lat="44.77636" lon="0.5555">
        <ele>36</ele>
        <time>2016-05-08T12:15:17Z</time>
      </trkpt>
      <trkpt lat="44.77636" lon="0.55539">
        <ele>36</ele>
        <time>2016-05-08T12:15:23Z</time>
      </trkpt>
      <trkpt lat="44.77636" lon="0.55528">
        <ele>35</ele>
        <time>2016-05-08T12:15:30Z</time>
      </trkpt>
      <trkpt lat="44.77638" lon="0.55516">
        <ele>36</ele>
        <time>2016-05-08T12:15:35Z</time>
      </trkpt>
      <trkpt lat="44.77639" lon="0.55504">
        <ele>38</ele>
        <time>2016-05-08T12:15:41Z</time>
      </trkpt>
      <trkpt lat="44.77644" lon="0.55494">
        <ele>38</ele>
        <time>2016-05-08T12:15:51Z</time>
      </trkpt>
      <trkpt lat="44.77651" lon="0.55487">
        <ele>36</ele>
        <time>2016-05-08T12:16:00Z</time>
      </trkpt>
      <trkpt lat="44.7766" lon="0.55486">
        <ele>39</ele>
        <time>2016-05-08T12:16:09Z</time>
      </trkpt>
      <trkpt lat="44.77669" lon="0.55488">
        <ele>40</ele>
        <time>2016-05-08T12:16:19Z</time>
      </trkpt>
      <trkpt lat="44.77677" lon="0.55488">
        <ele>41</ele>
        <time>2016-05-08T12:16:25Z</time>
      </trkpt>
      <trkpt lat="44.77686" lon="0.55486">
        <ele>44</ele>
        <time>2016-05-08T12:16:32Z</time>
      </trkpt>
      <trkpt lat="44.77695" lon="0.55484">
        <ele>44</ele>
        <time>2016-05-08T12:16:39Z</time>
      </trkpt>
      <trkpt lat="44.77703" lon="0.55485">
        <ele>43</ele>
        <time>2016-05-08T12:16:44Z</time>
      </trkpt>
      <trkpt lat="44.7771" lon="0.55486">
        <ele>43</ele>
        <time>2016-05-08T12:16:48Z</time>
      </trkpt>
      <trkpt lat="44.77718" lon="0.55487">
        <ele>45</ele>
        <time>2016-05-08T12:16:52Z</time>
      </trkpt>
      <trkpt lat="44.77726" lon="0.55486">
        <ele>45</ele>
        <time>2016-05-08T12:16:58Z</time>
      </trkpt>
      <trkpt lat="44.77735" lon="0.55486">
        <ele>47</ele>
        <time>2016-05-08T12:17:04Z</time>
      </trkpt>
      <trkpt lat="44.77743" lon="0.55488">
        <ele>45</ele>
        <time>2016-05-08T12:17:10Z</time>
      </trkpt>
      <trkpt lat="44.77752" lon="0.55485">
        <ele>45</ele>
        <time>2016-05-08T12:17:16Z</time>
      </trkpt>
      <trkpt lat="44.77759" lon="0.55482">
        <ele>41</ele>
        <time>2016-05-08T12:17:23Z</time>
      </trkpt>
      <trkpt lat="44.77768" lon="0.55478">
        <ele>39</ele>
        <time>2016-05-08T12:17:30Z</time>
      </trkpt>
      <trkpt lat="44.77775" lon="0.55475">
        <ele>37</ele>
        <time>2016-05-08T12:17:36Z</time>
      </trkpt>
      <trkpt lat="44.77782" lon="0.55469">
        <ele>37</ele>
        <time>2016-05-08T12:17:42Z</time>
      </trkpt>
      <trkpt lat="44.77789" lon="0.55463">
        <ele>38</ele>
        <time>2016-05-08T12:17:48Z</time>
      </trkpt>
      <trkpt lat="44.77795" lon="0.55454">
        <ele>39</ele>
        <time>2016-05-08T12:17:54Z</time>
      </trkpt>
      <trkpt lat="44.77801" lon="0.55447">
        <ele>40</ele>
        <time>2016-05-08T12:18:00Z</time>
      </trkpt>
      <trkpt lat="44.77808" lon="0.55439">
        <ele>40</ele>
        <time>2016-05-08T12:18:06Z</time>
      </trkpt>
      <trkpt lat="44.77814" lon="0.55432">
        <ele>41</ele>
        <time>2016-05-08T12:18:12Z</time>
      </trkpt>
      <trkpt lat="44.7782" lon="0.55424">
        <ele>41</ele>
        <time>2016-05-08T12:18:18Z</time>
      </trkpt>
      <trkpt lat="44.77826" lon="0.55417">
        <ele>41</ele>
        <time>2016-05-08T12:18:23Z</time>
      </trkpt>
      <trkpt lat="44.77833" lon="0.5541">
        <ele>43</ele>
        <time>2016-05-08T12:18:29Z</time>
      </trkpt>
      <trkpt lat="44.77839" lon="0.55403">
        <ele>43</ele>
        <time>2016-05-08T12:18:34Z</time>
      </trkpt>
      <trkpt lat="44.77846" lon="0.55397">
        <ele>43</ele>
        <time>2016-05-08T12:18:40Z</time>
      </trkpt>
      <trkpt lat="44.77854" lon="0.55391">
        <ele>41</ele>
        <time>2016-05-08T12:18:47Z</time>
      </trkpt>
      <trkpt lat="44.77861" lon="0.55385">
        <ele>41</ele>
        <time>2016-05-08T12:18:53Z</time>
      </trkpt>
      <trkpt lat="44.77867" lon="0.55379">
        <ele>42</ele>
        <time>2016-05-08T12:18:58Z</time>
      </trkpt>
      <trkpt lat="44.77873" lon="0.5537">
        <ele>41</ele>
        <time>2016-05-08T12:19:04Z</time>
      </trkpt>
      <trkpt lat="44.77878" lon="0.55361">
        <ele>40</ele>
        <time>2016-05-08T12:19:12Z</time>
      </trkpt>
      <trkpt lat="44.77886" lon="0.55354">
        <ele>42</ele>
        <time>2016-05-08T12:19:18Z</time>
      </trkpt>
      <trkpt lat="44.77894" lon="0.55351">
        <ele>47</ele>
        <time>2016-05-08T12:19:22Z</time>
      </trkpt>
      <trkpt lat="44.77901" lon="0.55344">
        <ele>46</ele>
        <time>2016-05-08T12:19:28Z</time>
      </trkpt>
      <trkpt lat="44.77907" lon="0.55338">
        <ele>44</ele>
        <time>2016-05-08T12:19:34Z</time>
      </trkpt>
      <trkpt lat="44.77915" lon="0.55332">
        <ele>43</ele>
        <time>2016-05-08T12:19:39Z</time>
      </trkpt>
      <trkpt lat="44.7792" lon="0.55323">
        <ele>39</ele>
        <time>2016-05-08T12:19:45Z</time>
      </trkpt>
      <trkpt lat="44.77926" lon="0.55315">
        <ele>37</ele>
        <time>2016-05-08T12:19:53Z</time>
      </trkpt>
      <trkpt lat="44.77931" lon="0.55305">
        <ele>34</ele>
        <time>2016-05-08T12:20:01Z</time>
      </trkpt>
      <trkpt lat="44.77936" lon="0.55296">
        <ele>35</ele>
        <time>2016-05-08T12:20:08Z</time>
      </trkpt>
      <trkpt lat="44.77942" lon="0.55286">
        <ele>33</ele>
        <time>2016-05-08T12:20:15Z</time>
      </trkpt>
      <trkpt lat="44.77946" lon="0.55277">
        <ele>37</ele>
        <time>2016-05-08T12:20:19Z</time>
      </trkpt>
      <trkpt lat="44.77954" lon="0.55274">
        <ele>39</ele>
        <time>2016-05-08T12:20:24Z</time>
      </trkpt>
      <trkpt lat="44.77962" lon="0.55272">
        <ele>40</ele>
        <time>2016-05-08T12:20:30Z</time>
      </trkpt>
      <trkpt lat="44.77959" lon="0.55261">
        <ele>36</ele>
        <time>2016-05-08T12:20:56Z</time>
      </trkpt>
      <trkpt lat="44.77956" lon="0.55253">
        <ele>35</ele>
        <time>2016-05-08T12:23:11Z</time>
      </trkpt>
      <trkpt lat="44.77957" lon="0.5524">
        <ele>25</ele>
        <time>2016-05-08T12:23:15Z</time>
      </trkpt>
      <trkpt lat="44.77955" lon="0.55252">
        <ele>29</ele>
        <time>2016-05-08T12:24:03Z</time>
      </trkpt>
      <trkpt lat="44.77949" lon="0.55261">
        <ele>41</ele>
        <time>2016-05-08T12:29:40Z</time>
      </trkpt>
      <trkpt lat="44.77956" lon="0.55254">
        <ele>42</ele>
        <time>2016-05-08T12:30:03Z</time>
      </trkpt>
      <trkpt lat="44.77962" lon="0.55245">
        <ele>29</ele>
        <time>2016-05-08T12:30:29Z</time>
      </trkpt>
      <trkpt lat="44.77954" lon="0.5524">
        <ele>16</ele>
        <time>2016-05-08T12:30:44Z</time>
      </trkpt>
      <trkpt lat="44.77955" lon="0.55235">
        <ele>4</ele>
        <time>2016-05-08T12:31:04Z</time>
      </trkpt>
      <trkpt lat="44.77955" lon="0.55242">
        <ele>96.1</ele>
        <time>2016-05-08T12:31:28Z</time>
      </trkpt>
      <trkpt lat="44.77964" lon="0.55245">
        <ele>16</ele>
        <time>2016-05-08T12:31:33Z</time>
      </trkpt>
      <trkpt lat="44.77964" lon="0.55245">
        <ele>16</ele>
        <time>2016-05-08T12:31:50Z</time>
      </trkpt>
      <trkpt lat="44.77953" lon="0.5524">
        <ele>33</ele>
        <time>2016-05-08T12:31:54Z</time>
      </trkpt>
      <trkpt lat="44.77953" lon="0.55252">
        <ele>40</ele>
        <time>2016-05-08T12:33:39Z</time>
      </trkpt>
      <trkpt lat="44.77956" lon="0.55258">
        <ele>44</ele>
        <time>2016-05-08T12:34:52Z</time>
      </trkpt>
      <trkpt lat="44.77956" lon="0.55258">
        <ele>44</ele>
        <time>2016-05-08T12:34:53Z</time>
      </trkpt>
    </trkseg>
  </trk>
</gpx>